[[{"header":{"parameterUnit":"m.s-1","parameterCategory":1,"la1":31.0,"la2":29.5877,"lo1":-88.7671,"lo2":-86.6584,"dy":0.0162,"dx":0.0185,"nx":115,"ny":88,"refTime":"2024-05-18T18:00:00:Z","depth":0,"parameterNumber":2,"parameterNumberName":"U-component_of_WINDS"},"data":[0.0,0.0,0.0,0.0,0.0,0.0,0.0,0.0,0.0,0.0,0.0,0.0,0.0,0.0,0.0,0.0,0.0,0.0,0.0,0.0,0.0,0.0,0.0,0.0,0.0,0.0,0.0,0.0,0.0,0.0,0.0,0.0,0.0,0.0,0.0,0.0,0.0,0.0,0.0,0.0,0.0,0.0,0.0,0.0,0.0,0.0,0.0,0.0,0.0,0.0,0.0,0.0,0.0,0.0,0.0,0.0,0.0,0.0,0.0,0.0,0.0,0.0,0.0,0.0,0.0,0.0,0.0,0.0,0.0,0.0,0.0,0.0,0.0,0.0,0.0,0.0,0.0,0.0,0.0,0.0,0.0,0.0,0.0,0.0,0.0,0.0,0.0,0.0,0.0,0.0,0.0,0.0,0.0,0.0,0.0,0.0,0.0,0.0,0.0,0.0,0.0,0.0,0.0,0.0,0.0,0.0,0.0,0.0,0.0,0.0,0.0,0.0,0.0,0.0,0.0,0.0,0.0,0.0,0.0,0.0,0.0,0.0,0.0,0.0,0.0,0.0,0.0,0.0,0.0,0.0,0.0,0.0,0.0,0.0,0.0,0.0,0.0,0.0,0.0,0.0,0.0,0.0,0.0,0.0,0.0,0.0,0.0,0.0,0.0,0.0,0.0,0.0,0.0,0.0,0.0,0.0,0.0,0.0,0.0,0.0,0.0,0.0,0.0,0.0,0.0,0.0,0.0,0.0,0.0,0.0,0.0,0.0,0.0,0.0,0.0,0.0,0.0,0.0,0.0,0.0,0.0,0.0,0.0,0.0,0.0,0.0,0.0,0.0,0.0,0.0,0.0,0.0,0.0,0.0,0.0,0.0,0.0,0.0,0.0,0.0,0.0,0.0,0.0,0.0,0.0,0.0,0.0,0.0,0.0,0.0,0.0,0.0,0.0,0.0,0.0,0.0,0.0,0.0,0.0,0.0,0.0,0.0,0.0,0.0,0.0,0.0,0.0,0.0,0.0,0.0,0.0,0.0,0.0,0.0,0.0,0.0,0.0,0.0,0.0,0.0,0.0,0.0,0.0,0.0,0.0,0.0,0.0,0.0,0.0,0.0,0.0,0.0,0.0,0.0,0.0,0.0,0.0,0.0,0.0,0.0,0.0,0.0,0.0,0.0,0.0,0.0,0.0,0.0,0.0,0.0,0.0,0.0,0.0,0.0,0.0,0.0,0.0,0.0,0.0,0.0,0.0,0.0,0.0,0.0,0.0,0.0,0.0,0.0,0.0,0.0,0.0,0.0,0.0,0.0,0.0,0.0,0.0,0.0,0.0,0.0,0.0,0.0,0.0,0.0,0.0,0.0,0.0,0.0,0.0,0.0,0.0,0.0,0.0,0.0,0.0,0.0,0.0,0.0,0.0,0.0,0.0,0.0,0.0,0.0,0.0,0.0,0.0,0.0,0.0,0.0,0.0,0.0,0.0,0.0,0.0,0.0,0.0,0.0,0.0,0.0,0.0,0.0,0.0,0.0,0.0,0.0,0.0,0.0,0.0,0.0,0.0,0.0,0.0,0.0,0.0,0.0,0.0,0.0,0.0,0.0,0.0,0.0,0.0,0.0,0.0,0.0,0.0,0.0,0.0,0.0,0.0,0.0,0.0,0.0,0.0,0.0,0.0,0.0,0.0,0.0,0.0,0.0,0.0,0.0,0.0,0.0,0.0,0.0,0.0,0.0,0.0,0.0,0.0,0.0,0.0,0.0,0.0,0.0,0.0,0.0,0.0,0.0,0.0,0.0,0.0,0.0,0.0,0.0,0.0,0.0,0.0,0.0,0.0,0.0,0.0,0.0,0.0,0.0,0.0,0.0,0.0,0.0,0.0,0.0,0.0,0.0,0.0,0.0,0.0,0.0,0.0,0.0,0.0,0.0,0.0,0.0,0.0,0.0,0.0,0.0,0.0,0.0,0.0,0.0,0.0,0.0,0.0,0.0,0.0,0.0,0.0,0.0,0.0,0.0,0.0,0.0,0.0,0.0,0.0,0.0,0.0,0.0,0.0,0.0,0.0,0.0,0.0,0.0,0.0,0.0,0.0,0.0,0.0,0.0,0.0,0.0,0.0,0.0,0.0,0.0,0.0,0.0,0.0,0.0,0.0,0.0,0.0,0.0,0.0,0.0,0.0,0.0,0.0,0.0,0.0,0.0,0.0,0.0,0.0,0.0,0.0,0.0,0.0,0.0,0.0,0.0,0.0,0.0,0.0,0.0,0.0,0.0,0.0,0.0,0.0,0.0,0.0,0.0,0.0,0.0,0.0,0.0,0.0,0.0,0.0,0.0,0.0,0.0,0.0,0.0,0.0,0.0,0.0,0.0,0.0,0.0,0.0,0.0,0.0,0.0,0.0,0.0,0.0,0.0,0.0,0.0,0.0,0.0,0.0,0.0,0.0,0.0,0.0,0.0,0.0,0.0,0.0,0.0,0.0,0.0,0.0,0.0,0.0,0.0,0.0,0.0,0.0,0.0,0.0,0.0,0.0,0.0,0.0,0.0,0.0,0.0,0.0,0.0,0.0,0.0,0.0,0.0,0.0,0.0,0.0,0.0,0.0,0.0,0.0,0.0,0.0,0.0,0.0,0.0,0.0,0.0,0.0,0.0,0.0,0.0,0.0,0.0,0.0,0.0,0.0,0.0,0.0,0.0,0.0,0.0,0.0,0.0,0.0,0.0,0.0,0.0,0.0,0.0,0.0,0.0,0.0,0.0,0.0,0.0,0.0,0.0,0.0,0.0,0.0,0.0,0.0,0.0,0.0,0.0,0.0,0.0,0.0,0.0,0.0,0.0,0.0,0.0,0.0,0.0,0.0,0.0,0.0,0.0,0.0,0.0,0.0,0.0,0.0,0.0,0.0,0.0,0.0,0.0,0.0,0.0,0.0,0.0,0.0,0.0,0.0,0.0,0.0,0.0,0.0,0.0,0.0,0.0,0.0,0.0,0.0,0.0,0.0,0.0,0.0,0.0,0.0,0.0,0.0,0.0,0.0,0.0,0.0,0.0,0.0,0.0,0.0,0.0,0.0,0.0,0.0,0.0,0.0,0.0,0.0,0.0,0.0,0.0,0.0,0.0,0.0,0.0,0.0,0.0,0.0,0.0,0.0,0.0,0.0,0.0,0.0,0.0,0.0,0.0,0.0,0.0,0.0,0.0,0.0,0.0,0.0,0.0,0.0,0.0,0.0,0.0,0.0,0.0,0.0,0.0,0.0,0.0,0.0,0.0,0.0,0.0,0.0,0.0,0.0,0.0,0.0,0.0,0.0,0.0,0.0,0.0,0.0,0.0,0.0,0.0,0.0,0.0,0.0,0.0,0.0,0.0,0.0,0.0,0.0,0.0,0.0,0.0,0.0,0.0,0.0,0.0,0.0,0.0,0.0,0.0,0.0,0.0,0.0,0.0,0.0,0.0,0.0,0.0,0.0,0.0,0.0,0.0,0.0,0.0,0.0,0.0,0.0,0.0,0.0,0.0,0.0,0.0,0.0,0.0,0.0,0.0,0.0,0.0,0.0,0.0,0.0,0.0,0.0,0.0,0.0,0.0,0.0,0.0,0.0,0.0,0.0,0.0,0.0,0.0,0.0,0.0,0.0,0.0,0.0,0.0,0.0,0.0,0.0,0.0,0.0,0.0,0.0,0.0,0.0,0.0,0.0,0.0,0.0,0.0,0.0,0.0,0.0,0.0,0.0,0.0,0.0,0.0,0.0,0.0,0.0,0.0,0.0,0.0,0.0,0.0,0.0,0.0,0.0,0.0,0.0,0.0,0.0,0.0,0.0,0.0,0.0,0.0,0.0,0.0,0.0,0.0,0.0,0.0,0.0,0.0,0.0,0.0,0.0,0.0,0.0,0.0,0.0,0.0,0.0,0.0,0.0,0.0,0.0,0.0,0.0,0.0,0.0,0.0,0.0,0.0,0.0,0.0,0.0,0.0,0.0,0.0,0.0,0.0,0.0,0.0,0.0,0.0,0.0,0.0,0.0,0.0,0.0,0.0,0.0,0.0,0.0,0.0,0.0,0.0,0.0,0.0,0.0,0.0,0.0,0.0,0.0,0.0,0.0,0.0,0.0,0.0,0.0,0.0,0.0,0.0,0.0,0.0,0.0,0.0,0.0,0.0,0.0,0.0,0.0,0.0,0.0,0.0,0.0,0.0,0.0,0.0,0.0,0.0,0.0,0.0,0.0,0.0,0.0,0.0,0.0,0.0,0.0,0.0,0.0,0.0,0.0,0.0,2.5301,0.0,0.0,0.0,0.0,0.0,0.0,0.0,0.0,0.0,0.0,0.0,0.0,0.0,0.0,0.0,0.0,0.0,0.0,0.0,0.0,0.0,0.0,0.0,0.0,0.0,0.0,0.0,0.0,0.0,0.0,0.0,0.0,0.0,0.0,0.0,0.0,0.0,0.0,0.0,0.0,0.0,0.0,0.0,0.0,0.0,0.0,0.0,0.0,0.0,0.0,0.0,0.0,0.0,0.0,0.0,0.0,0.0,0.0,0.0,0.0,0.0,0.0,0.0,0.0,0.0,0.0,0.0,0.0,0.0,0.0,0.0,0.0,0.0,0.0,0.0,0.0,0.0,0.0,0.0,0.0,0.0,0.0,0.0,0.0,0.0,0.0,0.0,0.0,0.0,0.0,0.0,0.0,0.0,0.0,0.0,0.0,0.0,0.0,0.0,0.0,0.0,0.0,0.0,0.0,0.0,0.0,0.0,0.0,0.0,0.0,2.5511,2.5511,2.5509,2.5437,2.5292,0.0,0.0,0.0,0.0,0.0,0.0,0.0,0.0,0.0,0.0,0.0,0.0,0.0,0.0,0.0,0.0,0.0,0.0,0.0,0.0,0.0,0.0,0.0,0.0,0.0,0.0,0.0,0.0,0.0,0.0,0.0,0.0,0.0,0.0,0.0,0.0,0.0,0.0,0.0,0.0,0.0,0.0,0.0,0.0,0.0,0.0,0.0,0.0,0.0,0.0,0.0,0.0,0.0,0.0,0.0,0.0,0.0,0.0,0.0,0.0,0.0,0.0,0.0,0.0,0.0,0.0,0.0,0.0,0.0,0.0,0.0,0.0,0.0,0.0,0.0,0.0,0.0,0.0,0.0,0.0,0.0,0.0,0.0,0.0,0.0,0.0,0.0,0.0,0.0,0.0,0.0,0.0,0.0,0.0,0.0,0.0,0.0,0.0,0.0,0.0,0.0,0.0,0.0,0.0,0.0,0.0,0.0,0.0,0.0,0.0,0.0,0.0,2.5473,2.5409,2.5231,0.0,0.0,0.0,0.0,0.0,0.0,0.0,0.0,0.0,0.0,0.0,0.0,0.0,0.0,0.0,0.0,0.0,0.0,0.0,0.0,0.0,0.0,0.0,0.0,0.0,0.0,0.0,0.0,0.0,0.0,0.0,0.0,0.0,0.0,0.0,0.0,0.0,0.0,0.0,0.0,0.0,0.0,0.0,0.0,0.0,0.0,0.0,0.0,0.0,0.0,0.0,0.0,0.0,0.0,0.0,0.0,0.0,0.0,0.0,0.0,0.0,0.0,0.0,0.0,0.0,0.0,0.0,0.0,0.0,0.0,0.0,0.0,0.0,0.0,0.0,0.0,0.0,0.0,0.0,0.0,0.0,0.0,0.0,0.0,0.0,0.0,0.0,0.0,0.0,0.0,0.0,0.0,0.0,0.0,0.0,0.0,0.0,0.0,0.0,0.0,0.0,0.0,0.0,0.0,0.0,0.0,0.0,0.0,0.0,0.0,2.5395,2.5415,2.5418,0.0,2.5049,0.0,0.0,0.0,0.0,0.0,0.0,0.0,0.0,0.0,0.0,0.0,0.0,0.0,0.0,0.0,0.0,0.0,0.0,0.0,0.0,0.0,0.0,0.0,0.0,0.0,0.0,0.0,0.0,0.0,0.0,0.0,0.0,0.0,0.0,0.0,0.0,0.0,0.0,0.0,0.0,0.0,0.0,0.0,0.0,0.0,0.0,0.0,0.0,0.0,0.0,0.0,0.0,0.0,0.0,0.0,0.0,0.0,0.0,0.0,0.0,0.0,0.0,0.0,0.0,0.0,0.0,0.0,0.0,0.0,0.0,0.0,0.0,0.0,0.0,0.0,0.0,0.0,0.0,0.0,0.0,0.0,0.0,0.0,0.0,0.0,0.0,0.0,0.0,0.0,0.0,0.0,0.0,0.0,0.0,0.0,0.0,0.0,0.0,0.0,0.0,0.0,0.0,0.0,0.0,0.0,0.0,0.0,0.0,0.0,0.0,0.0,2.5387,2.5313,2.516,0.0,0.0,0.0,0.0,0.0,0.0,0.0,0.0,0.0,0.0,0.0,0.0,0.0,0.0,0.0,0.0,0.0,0.0,0.0,0.0,0.0,0.0,0.0,0.0,0.0,0.0,0.0,0.0,0.0,0.0,0.0,0.0,0.0,0.0,0.0,0.0,0.0,0.0,0.0,0.0,0.0,0.0,0.0,0.0,0.0,0.0,0.0,0.0,0.0,0.0,0.0,0.0,0.0,0.0,0.0,0.0,0.0,0.0,0.0,0.0,0.0,0.0,0.0,0.0,0.0,0.0,0.0,0.0,0.0,0.0,0.0,0.0,0.0,0.0,0.0,0.0,0.0,0.0,0.0,0.0,0.0,0.0,0.0,0.0,0.0,0.0,0.0,0.0,0.0,0.0,0.0,0.0,0.0,0.0,0.0,0.0,0.0,0.0,0.0,0.0,0.0,0.0,0.0,0.0,0.0,0.0,0.0,0.0,0.0,0.0,2.5341,0.0,2.5322,2.5252,2.5115,2.493,0.0,0.0,0.0,0.0,0.0,0.0,0.0,0.0,0.0,0.0,0.0,0.0,0.0,0.0,0.0,0.0,0.0,0.0,0.0,0.0,0.0,0.0,0.0,0.0,0.0,0.0,0.0,0.0,0.0,0.0,0.0,0.0,0.0,0.0,0.0,0.0,0.0,0.0,0.0,0.0,0.0,0.0,0.0,0.0,0.0,0.0,0.0,0.0,0.0,0.0,0.0,0.0,0.0,0.0,0.0,0.0,0.0,0.0,0.0,0.0,0.0,0.0,0.0,0.0,0.0,0.0,0.0,0.0,0.0,0.0,0.0,0.0,0.0,0.0,0.0,0.0,0.0,0.0,0.0,0.0,0.0,0.0,0.0,0.0,0.0,0.0,0.0,0.0,0.0,0.0,0.0,0.0,0.0,0.0,0.0,0.0,0.0,0.0,0.0,0.0,0.0,0.0,0.0,0.0,0.0,0.0,0.0,0.0,0.0,2.5203,2.522,2.5214,2.521,2.5132,0.0,0.0,0.0,0.0,0.0,0.0,0.0,0.0,0.0,0.0,0.0,0.0,0.0,0.0,0.0,0.0,0.0,0.0,0.0,0.0,0.0,0.0,0.0,0.0,0.0,0.0,0.0,0.0,0.0,0.0,0.0,0.0,0.0,0.0,0.0,0.0,0.0,0.0,0.0,0.0,0.0,0.0,0.0,0.0,0.0,0.0,0.0,0.0,0.0,0.0,0.0,0.0,0.0,0.0,0.0,0.0,0.0,0.0,0.0,0.0,0.0,0.0,0.0,0.0,0.0,0.0,0.0,0.0,0.0,0.0,0.0,0.0,0.0,0.0,0.0,0.0,0.0,0.0,0.0,0.0,0.0,0.0,0.0,0.0,0.0,0.0,0.0,0.0,0.0,0.0,0.0,0.0,0.0,0.0,0.0,0.0,0.0,0.0,0.0,0.0,0.0,0.0,0.0,0.0,0.0,0.0,0.0,0.0,0.0,2.5212,2.522,2.5206,2.521,2.5132,2.5025,0.0,0.0,0.0,0.0,0.0,0.0,0.0,0.0,0.0,0.0,0.0,0.0,0.0,0.0,0.0,0.0,0.0,0.0,0.0,0.0,0.0,0.0,0.0,0.0,0.0,0.0,0.0,0.0,0.0,0.0,0.0,0.0,0.0,0.0,0.0,0.0,0.0,0.0,0.0,0.0,0.0,0.0,0.0,0.0,0.0,0.0,0.0,0.0,0.0,0.0,0.0,0.0,0.0,0.0,0.0,0.0,0.0,0.0,0.0,0.0,0.0,0.0,0.0,0.0,0.0,0.0,0.0,0.0,0.0,0.0,0.0,0.0,0.0,0.0,0.0,0.0,0.0,0.0,0.0,0.0,0.0,0.0,0.0,0.0,0.0,0.0,0.0,0.0,0.0,0.0,0.0,0.0,0.0,0.0,0.0,0.0,0.0,0.0,0.0,0.0,0.0,0.0,0.0,0.0,0.0,0.0,0.0,0.0,0.0,2.5134,0.0,2.5094,0.0,2.4985,2.4917,0.0,0.0,0.0,0.0,0.0,0.0,0.0,0.0,0.0,0.0,0.0,0.0,0.0,0.0,0.0,0.0,0.0,0.0,0.0,0.0,0.0,0.0,0.0,0.0,0.0,0.0,0.0,0.0,0.0,0.0,0.0,0.0,0.0,0.0,0.0,0.0,0.0,0.0,0.0,0.0,0.0,0.0,0.0,0.0,0.0,0.0,0.0,0.0,0.0,0.0,0.0,0.0,0.0,0.0,0.0,0.0,0.0,0.0,0.0,0.0,0.0,0.0,0.0,0.0,0.0,0.0,0.0,0.0,0.0,0.0,0.0,0.0,0.0,0.0,0.0,0.0,0.0,0.0,0.0,0.0,0.0,0.0,0.0,0.0,0.0,0.0,0.0,0.0,0.0,0.0,0.0,0.0,0.0,0.0,0.0,0.0,0.0,0.0,0.0,0.0,0.0,0.0,0.0,0.0,0.0,0.0,0.0,0.0,2.4999,2.5031,2.4991,2.4979,2.4832,2.4844,2.4798,0.0,0.0,0.0,0.0,0.0,0.0,0.0,0.0,0.0,0.0,0.0,0.0,0.0,0.0,0.0,0.0,0.0,0.0,0.0,0.0,0.0,0.0,0.0,0.0,0.0,0.0,0.0,0.0,0.0,0.0,0.0,0.0,0.0,0.0,0.0,0.0,0.0,0.0,0.0,0.0,0.0,0.0,0.0,0.0,0.0,0.0,0.0,0.0,0.0,0.0,0.0,0.0,0.0,0.0,0.0,0.0,0.0,0.0,0.0,0.0,0.0,0.0,0.0,0.0,0.0,0.0,0.0,0.0,0.0,0.0,0.0,0.0,0.0,0.0,0.0,0.0,0.0,0.0,0.0,0.0,0.0,0.0,0.0,0.0,0.0,0.0,0.0,0.0,0.0,0.0,0.0,0.0,0.0,0.0,0.0,0.0,0.0,0.0,0.0,0.0,0.0,0.0,0.0,0.0,0.0,0.0,0.0,0.0,0.0,2.5483,2.5922,2.6115,2.6042,2.5504,2.5244,0.0,0.0,0.0,0.0,0.0,0.0,0.0,0.0,0.0,0.0,0.0,0.0,0.0,0.0,0.0,0.0,0.0,0.0,0.0,0.0,0.0,0.0,0.0,0.0,0.0,0.0,0.0,0.0,0.0,0.0,0.0,0.0,0.0,0.0,0.0,0.0,0.0,0.0,0.0,0.0,0.0,0.0,0.0,0.0,0.0,0.0,0.0,0.0,0.0,0.0,0.0,0.0,0.0,0.0,0.0,0.0,0.0,0.0,0.0,0.0,0.0,0.0,0.0,0.0,0.0,0.0,0.0,0.0,0.0,0.0,0.0,0.0,0.0,0.0,0.0,0.0,0.0,0.0,0.0,0.0,0.0,0.0,0.0,0.0,0.0,0.0,0.0,0.0,0.0,0.0,0.0,0.0,0.0,0.0,0.0,0.0,0.0,0.0,0.0,0.0,0.0,0.0,0.0,0.0,0.0,0.0,0.0,0.0,0.0,2.5106,2.5832,2.6184,2.6055,2.5641,2.5342,2.523,0.0,0.0,0.0,0.0,0.0,0.0,0.0,0.0,0.0,0.0,0.0,0.0,0.0,0.0,0.0,0.0,0.0,0.0,0.0,0.0,0.0,0.0,0.0,0.0,0.0,0.0,0.0,0.0,0.0,0.0,0.0,0.0,0.0,0.0,0.0,0.0,0.0,0.0,0.0,0.0,0.0,0.0,0.0,0.0,0.0,0.0,0.0,0.0,0.0,0.0,0.0,0.0,0.0,0.0,0.0,0.0,0.0,0.0,0.0,0.0,0.0,0.0,0.0,0.0,0.0,0.0,0.0,0.0,0.0,0.0,0.0,0.0,0.0,0.0,0.0,0.0,0.0,0.0,0.0,0.0,0.0,0.0,0.0,0.0,0.0,0.0,0.0,0.0,0.0,0.0,0.0,0.0,0.0,0.0,0.0,0.0,0.0,0.0,0.0,0.0,0.0,0.0,0.0,0.0,0.0,0.0,0.0,0.0,2.3842,2.4667,2.5102,2.5197,2.5314,2.5187,0.0,0.0,0.0,0.0,0.0,0.0,0.0,0.0,0.0,0.0,0.0,0.0,0.0,0.0,0.0,0.0,0.0,0.0,0.0,0.0,0.0,0.0,0.0,0.0,0.0,0.0,0.0,0.0,0.0,0.0,0.0,0.0,0.0,0.0,0.0,0.0,0.0,0.0,0.0,0.0,0.0,0.0,0.0,0.0,0.0,0.0,0.0,0.0,0.0,0.0,0.0,0.0,0.0,0.0,0.0,0.0,0.0,0.0,0.0,0.0,0.0,0.0,0.0,0.0,0.0,0.0,0.0,0.0,0.0,0.0,0.0,0.0,0.0,0.0,0.0,0.0,0.0,0.0,0.0,0.0,0.0,0.0,0.0,0.0,0.0,0.0,0.0,0.0,0.0,0.0,0.0,0.0,0.0,0.0,0.0,0.0,0.0,0.0,0.0,0.0,0.0,0.0,0.0,0.0,0.0,0.0,0.0,0.0,0.0,2.1108,2.1169,2.2464,2.4905,2.4994,2.4893,0.0,0.0,0.0,0.0,0.0,0.0,0.0,0.0,0.0,0.0,0.0,0.0,0.0,0.0,0.0,0.0,0.0,0.0,0.0,0.0,0.0,0.0,0.0,0.0,0.0,0.0,0.0,0.0,0.0,0.0,0.0,0.0,0.0,0.0,0.0,0.0,0.0,0.0,0.0,0.0,0.0,0.0,0.0,0.0,0.0,0.0,0.0,0.0,0.0,0.0,0.0,0.0,0.0,0.0,0.0,0.0,0.0,0.0,0.0,0.0,0.0,0.0,0.0,0.0,0.0,0.0,0.0,0.0,0.0,0.0,0.0,0.0,0.0,0.0,0.0,0.0,0.0,0.0,0.0,0.0,0.0,0.0,0.0,0.0,0.0,0.0,0.0,0.0,0.0,0.0,0.0,0.0,0.0,0.0,0.0,0.0,0.0,0.0,0.0,0.0,0.0,0.0,0.0,0.0,0.0,0.0,0.0,0.0,1.7941,1.7145,1.6996,1.8128,2.0629,2.2838,2.4068,0.0,0.0,0.0,0.0,0.0,0.0,0.0,0.0,0.0,0.0,0.0,0.0,0.0,0.0,0.0,0.0,0.0,0.0,0.0,0.0,0.0,0.0,0.0,0.0,0.0,0.0,0.0,0.0,0.0,0.0,0.0,0.0,0.0,0.0,0.0,0.0,0.0,0.0,0.0,0.0,0.0,0.0,0.0,0.0,0.0,0.0,0.0,0.0,0.0,0.0,0.0,0.0,0.0,0.0,0.0,0.0,0.0,0.0,0.0,0.0,0.0,0.0,0.0,0.0,0.0,0.0,0.0,0.0,0.0,0.0,0.0,0.0,0.0,0.0,0.0,0.0,0.0,0.0,0.0,0.0,0.0,0.0,0.0,0.0,0.0,0.0,0.0,0.0,0.0,0.0,0.0,0.0,0.0,0.0,0.0,0.0,0.0,0.0,0.0,0.0,0.0,0.0,0.0,0.0,0.0,0.0,0.0,0.0,1.3922,1.233,1.22,1.2768,1.4185,1.942,2.2661,0.0,0.0,0.0,0.0,0.0,0.0,0.0,0.0,0.0,0.0,0.0,0.0,0.0,0.0,0.0,0.0,0.0,0.0,0.0,0.0,0.0,0.0,0.0,0.0,0.0,0.0,0.0,0.0,0.0,0.0,0.0,0.0,0.0,0.0,0.0,0.0,0.0,0.0,0.0,0.0,0.0,0.0,0.0,0.0,0.0,0.0,0.0,0.0,0.0,0.0,0.0,0.0,0.0,0.0,0.0,0.0,0.0,0.0,0.0,0.0,0.0,0.0,0.0,0.0,0.0,0.0,0.0,0.0,0.0,0.0,0.0,0.0,0.0,0.0,0.0,0.0,0.0,0.0,0.0,0.0,0.0,0.0,0.0,0.0,0.0,0.0,0.0,0.0,0.0,0.0,0.0,0.0,0.0,0.0,0.0,0.0,0.0,0.0,0.0,0.0,0.0,0.0,0.0,0.0,0.0,0.0,0.0,0.0,0.8525,0.6301,0.675,0.7773,0.9363,1.5722,1.9879,0.0,0.0,0.0,0.0,0.0,0.0,0.0,0.0,0.0,0.0,0.0,0.0,0.0,0.0,0.0,0.0,0.0,0.0,0.0,0.0,0.0,0.0,0.0,0.0,0.0,0.0,0.0,0.0,0.0,0.0,0.0,0.0,0.0,0.0,0.0,0.0,0.0,0.0,0.0,0.0,0.0,0.0,0.0,0.0,0.0,0.0,0.0,0.0,2.7627,0.0,0.0,0.0,0.0,0.0,0.0,0.0,0.0,0.0,0.0,0.0,0.0,0.0,0.0,0.0,0.0,0.0,0.0,0.0,0.0,0.0,0.0,0.0,0.0,0.0,0.0,0.0,0.0,0.0,0.0,0.0,0.0,0.0,0.0,0.0,0.0,0.0,0.0,0.0,0.0,0.0,0.0,0.0,0.0,0.0,0.0,0.0,0.0,0.0,0.0,0.0,0.0,0.0,0.0,0.0,0.0,0.0,0.0,0.0,0.3454,0.1021,0.1802,0.3283,0.5494,1.074,1.5487,0.0,0.0,0.0,0.0,0.0,0.0,0.0,0.0,0.0,0.0,0.0,0.0,0.0,0.0,0.0,0.0,0.0,0.0,0.0,0.0,0.0,0.0,0.0,0.0,0.0,0.0,0.0,0.0,0.0,0.0,0.0,0.0,0.0,0.0,0.0,0.0,0.0,0.0,0.0,0.0,0.0,0.0,0.0,0.0,0.0,0.0,0.0,0.0,0.0,0.0,0.0,0.0,0.0,0.0,0.0,0.0,0.0,0.0,0.0,0.0,0.0,0.0,0.0,0.0,0.0,0.0,0.0,0.0,0.0,0.0,0.0,0.0,0.0,0.0,0.0,0.0,0.0,0.0,0.0,0.0,0.0,0.0,0.0,0.0,0.0,0.0,0.0,0.0,0.0,0.0,0.0,0.0,0.0,0.0,0.0,0.0,0.0,0.0,0.0,0.0,0.0,0.0,0.0,0.0,0.0,0.0,0.0,0.2645,-0.1341,-0.3649,-0.262,-0.0785,0.1755,0.5713,1.0647,1.6568,0.0,0.0,0.0,0.0,0.0,0.0,0.0,0.0,0.0,0.0,0.0,0.0,0.0,0.0,0.0,0.0,0.0,0.0,0.0,0.0,0.0,0.0,0.0,0.0,0.0,0.0,0.0,0.0,0.0,0.0,0.0,0.0,0.0,0.0,0.0,0.0,0.0,0.0,2.6175,2.6259,0.0,0.0,0.0,0.0,0.0,0.0,0.0,0.0,2.6621,0.0,0.0,0.0,0.0,0.0,0.0,0.0,0.0,0.0,0.0,0.0,0.0,0.0,0.0,0.0,0.0,0.0,0.0,0.0,0.0,0.0,0.0,0.0,0.0,0.0,0.0,0.0,0.0,0.0,0.0,0.0,0.0,0.0,0.0,0.0,0.0,0.0,0.0,0.0,0.0,0.0,0.0,0.0,0.0,0.0,0.0,0.0,0.0,0.0,0.0,0.0,0.0,0.0,0.0,0.0,0.0,0.3482,-0.1955,-0.5687,-0.7688,-0.599,-0.3944,-0.164,0.2598,0.7056,1.1533,0.0,0.0,0.0,0.0,0.0,0.0,0.0,0.0,0.0,0.0,0.0,0.0,0.0,0.0,0.0,0.0,0.0,0.0,0.0,0.0,0.0,0.0,0.0,0.0,0.0,0.0,0.0,0.0,0.0,0.0,0.0,0.0,0.0,0.0,0.0,0.0,0.0,0.0,0.0,2.5368,2.5032,0.0,0.0,0.0,0.0,0.0,0.0,0.0,0.0,2.5038,0.0,0.0,0.0,0.0,0.0,0.0,0.0,0.0,0.0,0.0,0.0,0.0,0.0,0.0,0.0,0.0,0.0,0.0,0.0,0.0,0.0,0.0,0.0,0.0,0.0,0.0,0.0,0.0,0.0,0.0,0.0,0.0,0.0,0.0,0.0,0.0,0.0,0.0,0.0,0.0,0.0,0.0,0.0,0.0,0.0,0.0,0.0,0.0,0.0,0.0,0.0,0.0,0.0,0.0,0.0,-0.0058,-0.5486,-0.8857,-1.004,-0.8233,-0.5998,-0.3554,0.0327,0.4411,0.0,0.0,0.0,0.0,0.0,0.0,0.0,0.0,0.0,0.0,0.0,0.0,0.0,0.0,0.0,0.0,0.0,0.0,0.0,0.0,0.0,0.0,0.0,0.0,0.0,0.0,0.0,0.0,0.0,0.0,0.0,0.0,0.0,0.0,0.0,0.0,0.0,0.0,0.0,0.0,2.4051,2.3306,2.2855,0.0,0.0,0.0,0.0,0.0,0.0,2.1813,2.1982,0.0,0.0,0.0,0.0,0.0,0.0,0.0,0.0,0.0,0.0,0.0,0.0,0.0,0.0,0.0,0.0,0.0,0.0,0.0,0.0,0.0,0.0,0.0,0.0,0.0,0.0,0.0,0.0,0.0,0.0,0.0,0.0,0.0,0.0,0.0,0.0,0.0,0.0,0.0,0.0,0.0,0.0,0.0,0.0,0.0,0.0,0.0,0.0,0.0,0.0,0.0,0.0,0.0,0.0,0.0,-0.3075,-0.8326,-1.1183,-1.1571,-0.9736,-0.7524,-0.5019,-0.1512,0.2346,0.0,0.0,0.0,0.0,0.0,0.0,0.0,0.0,0.0,0.0,0.0,0.0,0.0,0.0,0.0,0.0,0.0,0.0,0.0,0.0,0.0,0.0,0.0,0.0,0.0,0.0,0.0,0.0,0.0,0.0,0.0,0.0,0.0,0.0,0.0,0.0,0.0,0.0,0.0,0.0,0.0,2.1014,1.9573,1.8913,0.0,0.0,0.0,0.0,1.7379,1.775,0.0,0.0,0.0,0.0,0.0,0.0,0.0,0.0,0.0,0.0,0.0,0.0,0.0,0.0,0.0,0.0,0.0,0.0,0.0,0.0,0.0,0.0,0.0,0.0,0.0,0.0,0.0,0.0,0.0,0.0,0.0,0.0,0.0,0.0,0.0,0.0,0.0,0.0,0.0,0.0,0.0,0.0,0.0,0.0,0.0,0.0,0.0,0.0,0.0,0.0,0.0,0.0,0.0,0.0,0.0,0.0,-0.5601,-1.0212,-1.2413,-1.2143,-1.0375,-0.8458,-0.6461,-0.2975,0.1039,0.0,0.0,0.0,0.0,0.0,0.0,0.0,0.0,0.0,0.0,0.0,0.0,0.0,0.0,0.0,0.0,0.0,0.0,0.0,0.0,0.0,0.0,0.0,0.0,0.0,0.0,0.0,0.0,0.0,0.0,0.0,0.0,0.0,0.0,0.0,0.0,0.0,0.0,0.0,0.0,0.0,1.7924,1.6166,1.4722,1.3498,0.0,0.0,1.2507,1.2645,1.3121,0.0,0.0,0.0,0.0,0.0,0.0,0.0,0.0,0.0,0.0,0.0,0.0,0.0,0.0,0.0,0.0,0.0,0.0,0.0,0.0,0.0,0.0,0.0,0.0,0.0,0.0,0.0,0.0,0.0,0.0,0.0,0.0,0.0,0.0,0.0,0.0,0.0,0.0,0.0,0.0,0.0,0.0,0.0,0.0,0.0,0.0,0.0,0.0,0.0,0.0,0.0,0.0,0.0,0.0,0.0,-0.0362,-0.8271,-1.1164,-1.2413,-1.2074,-1.0431,-0.8522,-0.6588,-0.3982,-0.0651,0.0,0.0,0.0,0.0,0.0,0.0,0.0,0.0,0.0,0.0,0.0,0.0,0.0,0.0,0.0,0.0,0.0,0.0,0.0,0.0,0.0,0.0,0.0,0.0,0.0,0.0,0.0,0.0,0.0,0.0,0.0,0.0,0.0,0.0,0.0,0.0,0.0,0.0,0.0,0.0,0.0,0.0,1.1925,0.942,0.0,0.0,0.0,0.7034,0.7194,0.0,0.0,0.0,0.0,0.0,0.0,0.0,0.0,0.0,0.0,0.0,0.0,0.0,0.0,0.0,0.0,0.0,0.0,0.0,0.0,0.0,0.0,0.0,0.0,0.0,0.0,0.0,0.0,0.0,0.0,0.0,0.0,0.0,0.0,0.0,0.0,0.0,0.0,0.0,0.0,0.0,0.0,0.0,0.0,0.0,0.0,0.0,0.0,0.0,0.0,0.0,0.0,0.0,0.0,0.0,0.0,0.0,-0.9618,-1.1247,-1.1973,-1.1703,-1.0186,-0.8388,-0.6379,-0.4527,0.0,0.0,0.0,0.0,0.0,0.0,0.0,0.0,0.0,0.0,0.0,0.0,0.0,0.0,0.0,0.0,0.0,0.0,0.0,0.0,0.0,0.0,0.0,0.0,0.0,0.0,0.0,2.4257,0.0,0.0,0.0,0.0,0.0,0.0,0.0,0.0,0.0,0.0,0.0,0.0,0.0,0.0,1.2401,0.7355,0.4494,0.2571,0.0,0.0,0.1835,0.192,0.2536,0.3534,0.0,0.0,0.0,0.0,0.0,0.0,0.0,0.0,0.0,0.0,0.0,0.0,0.0,0.0,0.0,0.0,0.0,0.0,0.0,0.0,0.0,0.0,0.0,0.0,0.0,0.0,0.0,0.0,0.0,0.0,0.0,0.0,0.0,0.0,0.0,0.0,0.0,0.0,0.0,0.0,0.0,0.0,0.0,0.0,0.0,0.0,0.0,0.0,0.0,0.0,0.0,0.0,0.0,0.0,0.0,-0.8232,-1.0389,-1.1274,-1.1017,-0.9748,-0.8076,-0.6187,-0.4403,-0.2235,0.0,0.0,0.0,0.0,0.0,0.0,0.0,0.0,0.0,0.0,0.0,0.0,0.0,0.0,0.0,0.0,0.0,0.0,0.0,0.0,0.0,0.0,0.0,0.0,0.0,0.0,0.0,0.0,0.0,0.0,0.0,0.0,0.0,0.0,0.0,0.0,0.0,0.0,0.0,0.0,0.0,0.628,0.2594,0.0406,-0.1333,0.0,0.0,-0.273,-0.2728,-0.2246,-0.1521,-0.0662,0.0,0.0,0.0,0.0,0.0,0.0,0.0,0.0,0.0,0.0,0.0,0.0,0.0,0.0,0.0,0.0,0.0,0.0,0.0,0.0,0.0,0.0,0.0,0.0,0.0,0.0,0.0,0.0,0.0,0.0,0.0,0.0,0.0,0.0,0.0,0.0,0.0,0.0,0.0,0.0,0.0,0.0,0.0,0.0,0.0,0.0,0.0,0.0,0.0,0.0,0.0,0.0,0.0,-0.189,-0.7036,-0.9072,-1.0085,-1.0015,-0.8988,-0.7627,-0.6133,-0.4752,-0.2838,0.0,0.0,0.0,0.0,0.0,0.0,0.0,0.0,0.0,0.0,0.0,0.0,0.0,0.0,0.0,0.0,0.0,0.0,0.0,0.0,0.0,0.0,0.0,0.0,0.0,0.0,0.0,0.0,2.6668,2.6896,2.6882,0.0,0.0,0.0,0.0,0.0,0.0,0.0,0.0,0.0,0.0,0.1947,-0.1528,-0.4524,0.0,0.0,-0.6605,-0.6637,-0.6458,-0.6165,-0.5695,-0.516,-0.3978,0.0,0.0,0.0,0.0,0.0,0.0,0.0,0.0,0.0,0.0,0.0,0.0,0.0,0.0,0.0,0.0,0.0,0.0,0.0,0.0,0.0,0.0,0.0,0.0,0.0,0.0,0.0,0.0,0.0,0.0,0.0,0.0,0.0,0.0,0.0,0.0,0.0,0.0,0.0,0.0,0.0,0.0,0.0,0.0,0.0,0.0,0.0,0.0,0.0,0.0,0.0,0.0,-0.2122,-0.599,-0.7845,-0.8877,-0.9064,-0.8221,-0.7186,-0.5943,-0.4891,-0.3253,0.0,0.0,0.0,0.0,0.0,0.0,0.0,0.0,0.0,0.0,0.0,0.0,0.0,0.0,0.0,0.0,0.0,0.0,0.0,0.0,0.0,0.0,0.0,0.0,0.0,0.0,0.0,0.0,2.6299,2.6085,2.5646,0.0,0.0,0.0,0.0,0.0,0.0,0.0,0.0,0.0,0.0,-0.2435,-0.6218,-0.8638,-0.9893,-0.9665,-0.9812,-0.999,-0.9726,-0.9434,-0.911,-0.8752,0.0,0.0,0.0,0.0,0.0,0.0,0.0,0.0,0.0,0.0,0.0,0.0,0.0,0.0,0.0,0.0,0.0,0.0,0.0,0.0,0.0,0.0,0.0,0.0,0.0,0.0,0.0,0.0,0.0,0.0,1.0698,0.0,0.0,0.0,0.0,0.0,0.0,0.0,0.0,0.0,0.0,0.0,0.0,0.0,0.0,0.0,0.0,0.0,0.0,0.0,0.0,0.0,0.0,-0.235,-0.5164,-0.6777,-0.7712,-0.8027,-0.7521,-0.6671,-0.5683,-0.4752,-0.3413,-0.1605,0.0,0.0,0.0,0.0,0.0,0.0,0.0,0.0,0.0,0.0,0.0,0.0,0.0,0.0,0.0,0.0,0.0,0.0,0.0,0.0,0.0,0.0,0.0,0.0,0.0,0.0,2.5944,2.5661,2.4793,0.0,0.0,0.0,0.0,0.0,0.0,0.0,0.0,0.0,0.0,-0.3072,-0.7073,-1.1588,-1.1703,-1.1572,-1.2161,-1.2413,-1.2595,-1.2357,-1.2089,-1.1736,0.0,0.0,0.0,0.0,0.0,0.0,0.0,0.0,0.0,0.0,0.0,0.0,0.0,0.0,0.0,0.0,0.0,0.0,0.0,0.0,0.0,0.0,0.0,0.0,0.0,0.0,0.0,0.5591,0.5241,0.0,0.0,0.0,0.0,0.0,0.0,0.0,0.0,0.0,0.0,0.0,-0.071,-0.1356,0.0,0.0,0.0,0.0,0.0,0.0,0.0,0.0,0.0,0.0,0.0,0.0,-0.1763,-0.4409,-0.5834,-0.6732,-0.7129,-0.6806,-0.6284,-0.5491,-0.4691,-0.3392,-0.1502,0.0,0.0,0.0,0.0,0.0,0.0,0.0,0.0,0.0,0.0,0.0,0.0,0.0,0.0,0.0,0.0,0.0,0.0,0.0,0.0,0.0,0.0,0.0,0.0,0.0,2.4273,0.0,0.0,0.0,0.0,0.0,0.0,0.0,0.0,0.0,0.0,0.0,-0.106,-0.4768,-0.8042,-1.0977,-1.3571,-1.3818,-1.3877,0.0,0.0,0.0,0.0,0.0,0.0,0.0,0.0,0.0,0.0,0.0,0.0,0.0,0.0,-0.7474,-0.5971,-0.6258,-0.6781,-0.6702,0.0,0.0,0.0,0.0,0.0,0.0,0.0,0.0,0.0,0.0,0.0,0.0,0.0,0.0,0.0,0.0,-0.0165,0.0,0.0,0.0,0.0,0.0,0.0,0.0,0.0,-0.6237,-0.7145,-0.5282,-0.5949,-0.6491,0.0,-0.6757,-0.4872,0.0,0.0,0.0,0.0,0.0,0.0,0.0,0.0,-0.1618,-0.3623,-0.4829,-0.5745,-0.6214,-0.6148,-0.5888,-0.5292,-0.4431,-0.3197,-0.17,0.0194,0.1884,0.0,0.0,0.0,0.0,0.0,0.0,0.0,0.0,0.0,0.0,0.0,0.0,0.0,0.0,0.0,0.0,0.0,0.0,0.0,0.0,0.0,0.0,0.0,2.1981,0.0,0.0,0.0,0.0,0.0,0.0,0.0,0.0,0.0,0.104,-0.2847,-0.6842,-1.0117,-1.2763,-1.4775,-1.5964,0.0,0.0,0.0,0.0,0.0,0.0,0.0,-1.4915,-1.4304,-1.3941,-1.3692,-1.3278,-1.3016,-1.292,-1.3093,0.0,0.0,-0.9804,-0.9917,-1.0405,-1.0329,-1.075,-1.1107,-1.0992,-1.1443,-1.1964,0.0,0.0,0.0,0.0,0.0,0.0,0.0,0.0,-0.5863,-0.5884,0.0,-0.5556,0.0,0.0,0.0,0.0,0.0,-0.4809,0.0,0.0,-0.9942,-1.0918,-0.96,-1.0037,-1.0547,-1.1034,-1.084,-1.063,-1.0182,-0.586,0.0,0.0,0.0,0.0,0.0,0.0,-0.2353,-0.3244,-0.4243,-0.486,-0.5359,-0.555,-0.5418,-0.509,-0.3892,-0.2887,-0.2211,-0.0916,0.0386,0.1663,0.2909,0.0,0.0,0.0,0.0,0.0,0.0,0.0,0.0,0.0,0.0,0.0,0.0,0.0,0.0,0.0,0.0,0.0,0.0,0.0,0.0,1.9472,0.0,0.0,0.0,0.0,0.0,0.0,0.0,0.0,0.0,0.0,-0.4789,-0.8771,-1.2764,-1.5355,0.0,0.0,0.0,0.0,-1.89,-1.8716,-1.8292,-1.7844,-1.7147,-1.673,-1.6291,-1.5775,0.0,0.0,-1.5319,-1.577,-1.6111,-1.6139,-1.6448,-1.5966,-1.3316,-1.3162,-1.3457,-1.3729,-1.3932,-1.3975,-1.3922,-1.4289,-1.4678,-1.4613,0.0,0.0,0.0,0.0,-1.0494,-1.0571,-1.0558,-1.0422,-1.0286,-1.0075,-0.959,0.0,0.0,0.0,0.0,0.0,0.0,-0.7754,-0.9891,-1.3042,-1.3839,-1.2671,-1.345,-1.3933,-1.4168,-1.4341,-1.4285,-1.3812,-1.2323,-1.0112,-0.7399,0.0,0.0,0.0,0.0,-1.3186,-0.8235,-0.8587,-0.7565,-0.468,-0.502,-0.5087,-0.4824,-0.3897,-0.3092,-0.2417,-0.14,-0.0394,0.0579,0.188,0.0,0.0,0.0,0.0,0.0,0.0,0.0,0.0,0.0,0.0,0.0,0.0,0.0,0.0,0.0,0.0,0.0,0.0,0.0,1.6731,1.5381,1.4007,0.0,0.0,0.0,0.0,0.0,0.0,0.0,0.0,0.0,-1.4637,-1.6186,-1.7782,0.0,0.0,-2.2546,-2.2488,-2.1909,-2.1209,-2.0688,0.0,0.0,0.0,-1.7708,-1.7155,-1.666,-1.6615,-1.6799,-1.707,-1.7265,-1.7414,-1.7581,-1.7842,-1.781,-1.7605,-1.6923,-1.6661,-1.683,-1.7087,-1.7294,-1.7408,-1.7664,-1.7946,-1.8958,-1.6638,-1.5658,-1.5036,-1.475,-1.477,-1.4743,-1.4651,-1.4308,-1.3996,-1.372,-1.3268,-1.2634,-1.1921,-1.1422,0.0,0.0,0.0,-1.0439,-1.2953,-1.5624,-1.6272,-1.5351,-1.6028,-1.6501,-1.668,-1.6858,-1.6746,-1.6398,-1.6105,-1.4848,-1.2785,0.0,0.0,-1.4966,-1.5294,-1.3541,-0.9707,-0.81,-0.628,-0.4146,-0.4622,-0.4824,-0.4694,-0.403,-0.3293,-0.2686,-0.1949,-0.1133,-0.0262,0.1106,0.2148,0.0,0.0,0.0,0.0,0.0,0.0,0.0,0.0,0.0,0.0,0.0,1.7375,1.7994,0.0,0.0,0.0,1.6053,1.4475,1.2413,1.0828,0.0,0.0,0.0,0.0,0.0,0.0,0.0,-0.8694,-1.3026,-1.7028,-2.0348,-2.1879,-2.2922,-2.3613,-2.4679,-2.5294,-2.4932,0.0,-2.3183,-2.2456,-2.1486,-2.045,-1.9627,-1.8834,-1.8164,-1.7606,-1.7908,-1.8153,-1.8337,-1.8539,-1.8725,-1.8982,-1.9255,-1.9508,-2.0093,-1.9664,-1.9222,-1.9042,-1.9178,-1.9316,-1.9281,-1.9539,-1.9791,-2.1894,-2.1534,-1.9724,-1.8799,-1.8536,-1.8307,-1.8223,-1.8128,-1.7555,-1.7181,-1.6858,-1.6398,-1.57,-1.4808,-1.4241,0.0,-1.4273,-1.2957,-1.3459,-1.5601,-1.7676,-1.8293,-1.7622,-1.8024,-1.8359,-1.8632,-1.8501,-1.834,-1.8201,-1.7929,-1.7831,-1.7699,-1.4885,-1.383,-1.4307,-0.9767,-0.8034,-0.9649,-0.5111,-0.3043,-0.3892,-0.4359,-0.4625,-0.4691,-0.4092,-0.3558,-0.2956,-0.2488,-0.1816,-0.0806,0.0404,0.1379,0.1918,0.0,0.0,0.0,0.0,0.0,0.0,0.0,0.0,0.0,0.0,0.0,0.0,0.0,0.0,0.0,1.2004,0.0,0.7729,0.5984,0.0,0.0,0.0,-0.217,-0.4557,-0.7207,-1.0214,-1.364,0.0,0.0,-2.2953,0.0,-2.7414,-2.6871,-2.7072,-2.7094,-2.6544,-2.5703,-2.4824,-2.3967,-2.2947,-2.1928,-2.0906,-1.996,-1.9182,-1.859,-1.8971,-1.9355,-1.9215,-1.9569,-1.9994,-2.024,-2.0555,-2.0907,-2.1302,-2.1347,-2.1203,-2.0314,-2.0433,-2.0445,-2.0128,-2.0228,-2.0508,-2.2889,-2.2694,-2.2118,-2.1418,-2.0654,-2.0518,-2.0281,-1.9953,-1.953,-1.902,-1.8531,-1.8209,-1.763,-1.6896,-1.672,-1.6563,-1.6434,-1.5629,-1.5995,-1.7313,-1.9222,-1.9715,-1.9137,-1.9606,-1.9876,-1.9952,-1.9798,-1.9488,-1.9093,-1.891,-1.8815,-1.8655,-1.8348,-1.8795,-1.9894,-1.843,-1.6222,-1.342,-1.0112,-0.7153,-0.4674,-0.4697,-0.4761,-0.4761,-0.4228,-0.3694,-0.3159,-0.2758,-0.2221,-0.1412,-0.0337,0.0596,0.1275,0.207,0.0,0.0,0.0,0.0,0.0,0.0,0.0,0.0,0.0,1.3245,1.3469,0.0,1.1603,0.0,0.7969,0.5227,0.3211,0.1335,0.0,0.0,-0.4655,-0.668,-0.8775,-1.1417,-1.4117,-1.6863,-1.9543,-2.2174,-2.4788,-2.6399,-2.7593,-2.817,-2.8539,-2.8483,-2.7734,-2.6943,-2.6102,-2.4898,-2.3841,-2.2894,-2.1731,-2.0654,-1.9878,-1.9678,-1.9809,-1.9926,-1.9991,-2.0322,-2.0564,-2.0817,-2.1015,-2.1302,-2.1562,-2.1651,-2.1562,-2.1365,-2.1347,-2.1418,-2.1293,-2.1459,-2.1641,-2.3436,-2.329,-2.3246,-2.2785,-2.2109,-2.1874,-2.1527,-2.1188,-2.0809,-2.0383,-1.9914,-1.9594,-1.9218,-1.8773,-1.8667,-1.8573,-1.8293,-1.7771,-1.7866,-1.8625,-2.0193,-2.0694,-2.0295,-2.0673,-2.0822,-2.0772,-2.0523,-2.0118,-1.9656,-1.9344,-1.9133,-1.8987,-1.9291,-1.9837,-2.047,-1.8758,-1.6816,-1.4774,-1.0316,-0.7019,-0.5008,-0.4831,-0.4761,-0.4761,-0.4295,-0.3761,-0.3228,-0.2758,-0.2153,-0.1412,-0.0606,0.0066,0.0577,0.1188,0.2006,0.0,0.0,0.0,0.0,0.0,0.0,0.0,0.0,0.0,0.0,0.0,0.7713,0.5951,0.3397,0.1012,-0.0941,-0.278,-0.4711,-0.655,-0.8504,-1.0556,-1.253,-1.4763,-1.6954,-1.9216,-2.1319,-2.3328,-2.5207,-2.6358,-2.721,-2.7973,-2.8325,-2.8403,-2.8039,-2.743,-2.6552,-2.5441,-2.4371,-2.3298,-2.1991,-2.1209,-2.0679,-2.0566,-2.0642,-2.0663,-2.0645,-2.0736,-2.0907,-2.1105,-2.1293,-2.1482,-2.1642,-2.1731,-2.1731,-2.1731,-2.1731,-2.1731,-2.1731,-2.1811,-2.1989,-2.3739,-2.3595,-2.3595,-2.3407,-2.3097,-2.2661,-2.2324,-2.203,-2.1664,-2.1348,-2.1042,-2.0683,-2.0434,-2.0333,-2.0194,-2.0093,-1.994,-1.9432,-1.9383,-1.9724,-2.0941,-2.1381,-2.118,-2.1361,-2.1375,-2.1229,-2.0822,-2.0396,-1.9991,-1.95,-1.9133,-1.8934,-1.8934,-1.8804,-1.8561,-1.5452,-1.3846,-1.3799,-0.8221,-0.5286,-0.5289,-0.5024,-0.4897,-0.4827,-0.4295,-0.3758,-0.3226,-0.2555,-0.1884,-0.121,-0.0673,-0.0265,-0.0064,0.0514,0.1138,0.0,0.2257,0.0,0.0,0.0,0.0,0.0,0.0,0.0,0.0,0.6418,0.3405,0.0574,-0.1179,-0.2845,-0.4587,-0.6414,-0.8179,-0.9798,-1.1749,-1.3616,-1.547,-1.727,-1.9072,-2.0892,-2.2455,-2.3845,-2.4932,-2.5871,-2.6584,-2.6892,-2.7136,-2.7351,-2.7564,-2.7229,-2.6552,-2.5676,-2.4515,-2.3213,-2.2108,-2.1585,-2.1359,-2.119,-2.1183,-2.1311,-2.1006,-2.1006,-2.1096,-2.1302,-2.1392,-2.1482,-2.1651,-2.1642,-2.1633,-2.1624,-2.1535,-2.1642,-2.1642,-2.1741,-2.182,-2.3839,-2.3595,-2.3538,-2.3378,-2.3082,-2.2918,-2.2632,-2.2324,-2.2123,-2.1841,-2.1458,-2.1313,-2.1104,-2.1019,-2.097,-2.0921,-2.072,-2.0476,-2.0437,-2.0664,-2.1601,-2.1883,-2.1575,-2.1698,-2.165,-2.152,-2.1006,-2.0497,-1.9991,-1.9552,-1.9158,-1.8667,-1.8375,-1.8027,-1.7457,0.0,0.0,0.0,-0.7214,-0.6334,-0.6152,-0.5686,-0.5286,-0.5024,-0.4489,0.0,-0.3226,-0.2557,-0.1951,-0.1344,-0.0808,0.0,0.0,0.0,0.0,0.0,0.0,0.0,0.0,0.0,0.0,0.0,-0.0204,0.0745,0.2925,0.0853,-0.1395,-0.3036,-0.4319,-0.5886,-0.7725,-0.9099,-1.0547,-1.2194,-1.4015,-1.5566,-1.6598,-1.8469,-2.0175,-2.1376,-2.2502,-2.3571,-2.4578,-2.5123,-2.5492,-2.5791,-2.5906,-2.5975,-2.6082,-2.6289,-2.6208,-2.5441,-2.3967,-2.2713,-2.1886,-2.1633,-2.1434,-2.121,-2.1221,-2.1248,-2.1087,-2.1195,-2.1302,-2.1401,-2.1571,-2.1571,-2.1482,-2.1445,-2.1409,-2.1176,-2.1132,-2.1275,-2.1642,-2.1731,-2.1731,-2.3782,0.0,-2.3451,-2.3275,0.0,-2.2949,-2.2723,-2.237,-2.2324,-2.2137,-2.1902,-2.1841,-2.1698,-2.1616,-2.1616,-2.1506,-2.1396,-2.1266,-2.1253,-2.1342,-2.1801,-2.1896,-2.1779,-2.1746,-2.1602,-2.1375,-2.0858,-2.0359,-1.9798,-1.9251,-1.8721,-1.8224,-1.7733,-1.7168,-1.6595,-1.4944,-1.2379,-0.896,-0.7947,-0.7186,-0.6675,-0.6079,-0.5554,-0.5087,0.0,0.0,0.0,0.0,0.0,0.0,0.0,0.0,0.0,0.0,0.0,-0.1687,-0.1925,-0.2127,-0.2177,-0.2455,-0.2759,-0.297,-0.387,-0.36,-0.165,-0.3607,-0.5292,-0.6106,-0.7049,-0.8229,-0.9662,-1.0824,-1.1891,-1.317,-1.471,-1.6065,-1.7202,-1.8611,-2.0063,-2.1286,-2.2062,-2.2883,-2.3868,-2.4107,-2.4288,-2.4671,-2.4779,-2.4791,-2.4802,-2.53,-2.5358,-2.436,-2.3194,-2.2275,-2.1788,-2.1589,-2.1466,-2.1392,-2.1409,-2.1436,-2.1365,-2.1463,-2.1482,-2.1491,-2.1482,-2.1472,-2.1284,-2.1186,-2.1177,-2.1016,-2.0873,-2.0819,-2.1056,-2.1246,-2.1365,-2.3696,-2.3508,-2.3319,-2.3083,-2.2904,-2.2814,-2.2632,-2.2324,0.0,0.0,0.0,-2.217,-2.2137,-2.2044,-2.203,-2.1949,-2.1855,-2.1855,-2.1868,-2.1882,-2.1732,-2.1657,-2.1657,-2.1541,-2.1361,-2.1068,-2.056,-2.0016,-1.9448,-1.8815,-1.8236,-1.7733,-1.7022,-1.6285,-1.5507,-1.3606,-1.1896,-1.0458,-0.9,-0.7907,-0.706,-0.6342,-0.5686,-0.5219,-0.4824,-0.4228,-0.3563,-0.3025,-0.2487,-0.1951,-0.1681,-0.1618,-0.1693,-0.2101,-0.2684,-0.348,-0.397,-0.4346,-0.4571,-0.4867,-0.5168,-0.5397,-0.6485,-0.6637,-0.5405,-0.7021,-0.825,-0.8483,-0.9198,-0.999,-1.1019,-1.1864,-1.2729,-1.3499,-1.4776,-1.6031,-1.7259,-1.8328,-1.9534,-2.0876,-2.1324,-2.1945,-2.2763,-2.3025,-2.3123,-2.3457,-2.3559,-2.3559,-2.3706,-2.4143,-2.4215,-2.3128,-2.2307,-2.1795,-2.1431,-2.1258,-2.1267,-2.1264,-2.1444,-2.1553,-2.1651,-2.1642,-2.1463,-2.1293,-2.1293,-2.1195,-2.0997,-2.0836,-2.0863,-2.0782,-2.0483,-2.0259,-2.0269,-2.0524,-2.0687,-2.361,-2.3319,-2.3068,-2.2888,-2.2795,-2.2569,-2.231,-2.2077,-2.217,-2.2217,-2.217,-2.217,-2.2184,-2.2184,-2.217,-2.2091,-2.1996,-2.2099,-2.2155,0.0,-2.1431,-2.1117,-2.1131,-2.1099,-2.0934,-2.066,-2.0156,-1.9604,-1.9093,-1.8483,-1.782,-1.7123,-1.6503,-1.5332,-1.3666,-1.2458,-1.1421,-1.0358,-0.9186,-0.8291,-0.7596,-0.6675,-0.5947,-0.555,-0.4891,-0.4359,-0.3758,-0.3224,-0.2757,-0.2356,-0.2154,-0.2109,-0.2228,-0.2578,-0.2959,-0.3323,-0.3837,-0.4421,-0.4937,-0.544,-0.6219,-0.7388,-0.8089,-0.8129,-0.7525,-0.8332,-0.9138,-0.9683,-1.01,-1.0829,-1.1921,-1.2222,-1.2696,-1.3768,-1.4988,-1.5914,-1.6457,-1.7847,-1.8981,-1.9556,-2.027,-2.0903,-2.147,-2.1824,-2.2095,-2.2283,-2.2381,-2.2392,-2.2467,-2.2841,-2.299,-2.2381,-2.1686,-2.1202,-2.0817,-2.0517,-2.0576,-2.0851,-2.0925,-2.1069,-2.1284,-2.1185,-2.1087,-2.1069,-2.1007,-2.0854,-2.0674,-2.0465,-2.0121,-1.9911,-1.9641,-1.9358,-1.9386,-1.9424,-1.9563,-2.3363,-2.3083,-2.2814,-2.2646,-2.2445,-2.2184,-2.1996,-2.1902,-2.1935,-2.1983,-2.1955,-2.1983,-2.1969,-2.1955,-2.1983,-2.1902,-2.1793,-2.1746,-2.1828,-2.1918,-2.1135,-2.0607,-2.0371,-2.0419,-2.0308,-2.0016,-1.9512,-1.8975,-1.8483,-1.7886,-1.7224,-1.6503,-1.5391,-1.4085,-1.2712,-1.1794,-1.0919,-1.004,-0.9262,-0.8495,-0.7731,-0.6806,-0.6083,-0.5491,-0.4957,-0.4428,-0.3825,-0.3426,-0.3115,-0.2818,-0.2751,-0.2715,-0.286,-0.3293,-0.3689,-0.3999,-0.4672,-0.5297,-0.5816,-0.6645,-0.7422,-0.8253,-0.8727,-0.8974,-0.8796,-0.91,-0.9637,-1.0406,-1.0661,-1.1088,-1.1926,-1.2254,-1.262,-1.3259,-1.4352,-1.5153,-1.5752,-1.6679,-1.7664,-1.827,-1.8857,-1.9558,-2.0302,-2.0658,-2.0946,-2.1185,-2.1262,-2.1262,-2.1262,-2.1405,-2.1558,-2.1395,-2.0998,-2.0584,-2.0148,-2.0106,-2.0074,-2.0132,-2.0273,-2.0419,-2.056,-2.0472,-2.0376,-2.0193,-2.0114,-1.9939,-1.9701,-1.9417,-1.9183,-1.9079,-1.8816,-1.8574,-1.8538,-1.8422,-1.8571,-2.3127,-2.283,-2.2586,-2.231,-2.2044,-2.1793,-2.1698,-2.165,-2.1602,-2.1636,-2.1657,-2.1732,-2.1779,-2.1766,-2.1746,-2.165,-2.1458,-2.1355,-2.1415,-2.1507,-2.0733,-2.0077,-1.9649,-1.9736,-1.9643,-1.9356,-1.8839,-1.8344,-1.7886,-1.7279,-1.6549,-1.5575,-1.4094,-1.2964,-1.2058,-1.124,-1.0408,-0.9646,-0.9081,-0.8376,-0.7596,-0.6745,-0.602,-0.5428,-0.496,-0.4498,-0.3959,-0.3696,-0.3531,-0.3255,-0.3259,-0.3381,-0.3557,-0.4005,-0.4502,-0.4852,-0.5472,-0.6204,-0.6777,-0.7642,-0.825,-0.8703,-0.9013,-0.9322,-0.9549,-0.962,-0.9942,-1.0706,-1.0795,-1.1111,-1.1682,-1.1999,-1.2339,-1.2774,-1.355,-1.4281,-1.4911,-1.563,-1.6298,-1.7106,-1.7599,-1.8235,-1.8982,-1.9505,-1.9863,-2.0255,-2.0333,-2.0323,-2.0245,-2.0098,-2.0186,-2.0323,-2.0216,-1.9963,-1.9529,-1.9566,-1.9567,-1.9495,-1.96,-1.9711,-1.9724,-1.9701,-1.9589,-1.9385,-1.9204,-1.9066,-1.8765,-1.8579,-1.8468,-1.839,-1.8143,-1.7888,-1.791,-1.7719,-1.7721,-2.3083,-2.2694,-2.2356,-2.1996,-2.165,-2.152,-2.1361,-2.1229,-2.1144,-2.1055,-2.1148,-2.1575,-2.1712,-2.1602,-2.1616,-2.141,-2.1082,-2.0957,-2.1,-2.0946,-2.0042,-1.9394,-1.9037,-1.9089,-1.8999,-1.8798,-1.8236,-1.7733,-1.7234,-1.6662,-1.5603,-1.4204,-1.3017,-1.212,-1.1365,-1.0555,-0.9722,-0.9081,-0.8436,-0.7787,-0.7204,-0.6416,-0.576,-0.5428,-0.4894,-0.4495,-0.4231,-0.403,-0.3899,-0.377,-0.3713,-0.3934,-0.426,-0.4506,-0.4905,-0.5434,-0.6002,-0.663,-0.7326,-0.7795,-0.8255,-0.8627,-0.8941,-0.9175,-0.9544,-0.9609,-0.9921,-1.0479,-1.0766,-1.0977,-1.1473,-1.1538,-1.1764,-1.2325,-1.2893,-1.3557,-1.4129,-1.484,-1.5505,-1.5867,-1.6571,-1.7193,-1.7551,-1.8299,-1.8939,-1.9316,-1.9441,-1.946,-1.9381,-1.9311,-1.9152,-1.9231,-1.9301,-1.9292,-1.9063,-1.8921,-1.8941,-1.9153,-1.9099,-1.9068,-1.9048,-1.8982,-1.881,-1.8599,-1.8554,-1.8452,-1.841,-1.825,-1.8,-1.7778,-1.7611,-1.7401,-1.7482,-1.7368,-1.7491,-2.2692,-2.2342,-2.1983,-2.165,-2.1375,-2.1229,-2.1068,-2.097,-2.0908,-2.0858,-2.0782,-2.0993,-2.1131,-2.1269,-2.1166,-2.0957,-2.0636,-2.0446,-2.0398,-2.0412,-1.9617,-1.8794,-1.8007,-1.8216,-1.8182,-1.7854,-1.7412,-1.7032,-1.6436,-1.5497,-1.4373,-1.3304,-1.229,-1.1483,-1.08,-0.9977,-0.921,-0.856,-0.7787,-0.7073,-0.6482,-0.6086,-0.569,-0.5226,-0.4697,-0.4295,-0.4028,-0.3894,-0.3854,-0.3705,-0.392,-0.4199,-0.4496,-0.4938,-0.5324,-0.5661,-0.628,-0.6868,-0.748,-0.7795,-0.8102,-0.8475,-0.8708,-0.8937,-0.9246,-0.9316,-0.9585,-0.9948,-1.0268,-1.057,-1.0883,-1.1103,-1.1409,-1.1787,-1.2378,-1.2966,-1.3331,-1.4057,-1.4625,-1.484,-1.5443,-1.6093,-1.6508,-1.7353,-1.7961,-1.8285,-1.8426,-1.8505,-1.8514,-1.8434,-1.8353,-1.8264,-1.8336,-1.8425,-1.8514,-1.8416,-1.8325,-1.8348,-1.8194,-1.8059,-1.8086,-1.8096,-1.7913,-1.7862,-1.7803,-1.7627,-1.7371,-1.7247,-1.7068,-1.6964,-1.6873,-1.659,-1.6621,-1.6605,-1.6664,-2.2324,-2.1996,-2.1554,-2.1215,-2.097,-2.0885,-2.0772,-2.0646,-2.066,-2.056,-2.051,-2.051,-2.0599,-2.0725,-2.0673,-2.0536,-2.0271,-1.9965,-1.9885,-1.998,-1.9095,-1.8043,-1.7104,-1.7357,-1.7346,-1.6955,-1.6637,-1.6171,-1.5459,-1.4323,-1.3304,-1.2528,-1.1732,-1.0989,-1.0295,-0.9594,-0.8823,-0.8037,-0.7265,-0.6482,-0.5826,-0.5624,-0.5355,-0.4891,-0.4428,-0.403,-0.3825,-0.3828,-0.3792,-0.3728,-0.4015,-0.4343,-0.4665,-0.5125,-0.5497,-0.5874,-0.6471,-0.7019,-0.7407,-0.7646,-0.7876,-0.8174,-0.8479,-0.8708,-0.8865,-0.9094,-0.9322,-0.9554,-0.9771,-1.0073,-1.0443,-1.0738,-1.1037,-1.1267,-1.1855,-1.2378,-1.2599,-1.3251,-1.3768,-1.384,-1.441,-1.5008,-1.5503,-1.6236,-1.6871,-1.7013,-1.7313,-1.7538,-1.7546,-1.7627,-1.7546,-1.7456,-1.7456,-1.7619,-1.8031,-1.7959,-1.7789,-1.7635,-1.7506,-1.736,-1.7229,-1.7155,-1.7074,-1.702,-1.695,-1.6836,-1.67,-1.6464,-1.6147,-1.6026,-1.5876,-1.5854,-1.5884,-1.5771,-1.5748,-2.1983,-2.1554,-2.1068,-2.0646,-2.0409,-2.0422,-2.0372,-2.022,-2.022,-2.022,-2.0169,-2.0182,-2.0131,-2.0042,-2.0131,-2.0195,-2.0026,-1.9497,-1.9356,-1.9516,-1.8363,-1.7236,-1.6374,-1.6553,-1.656,-1.6312,-1.5874,-1.5167,-1.4145,-1.3243,-1.2528,-1.1802,-1.1115,-1.0491,-0.9862,-0.9274,-0.8554,-0.7707,-0.6999,-0.628,-0.5428,-0.4894,-0.4561,-0.4367,-0.4028,-0.3825,-0.3825,-0.3894,-0.3966,-0.3969,-0.4182,-0.4436,-0.4746,-0.4981,-0.5461,-0.6145,-0.6551,-0.6872,-0.7184,-0.7407,-0.7642,-0.7799,-0.8178,-0.8479,-0.8632,-0.8865,-0.9099,-0.9327,-0.9322,-0.962,-1.0067,-1.0368,-1.0594,-1.0812,-1.118,-1.1558,-1.1774,-1.2445,-1.29,-1.3039,-1.3455,-1.4023,-1.4548,-1.4971,-1.5389,-1.5692,-1.6137,-1.6437,-1.6421,-1.6617,-1.6648,-1.673,-1.673,-1.6894,-1.731,-1.74,-1.74,-1.7245,-1.709,-1.7032,-1.6754,-1.6566,-1.6409,-1.6245,-1.6245,-1.6245,-1.6079,-1.5899,-1.5621,-1.5372,-1.5173,-1.5132,-1.4993,-1.486,-1.4831,-2.1313,-2.0723,-2.0523,-2.0258,-2.0003,-2.0003,-1.9965,-1.9811,-1.9823,-1.9772,-1.9668,-1.9668,-1.9617,-1.95,-1.946,-1.9534,-1.9698,-1.8928,-1.8391,-1.8068,-1.7334,-1.6553,-1.5837,-1.5891,-1.5768,-1.5478,-1.5177,-1.4392,-1.3243,-1.2528,-1.1794,-1.1178,-1.0491,-0.9856,-0.928,-0.8694,-0.7977,-0.7195,-0.6544,-0.5818,-0.5027,-0.4428,-0.3961,-0.3763,-0.3696,-0.3627,-0.3629,-0.3632,-0.3763,-0.3828,-0.403,-0.4247,-0.4639,-0.5136,-0.5522,-0.5932,-0.6395,-0.6718,-0.6795,-0.7103,-0.7411,-0.7565,-0.7876,-0.8102,-0.8327,-0.8479,-0.8708,-0.8861,-0.9018,-0.9322,-0.9549,-0.9922,-1.0212,-1.0438,-1.0738,-1.1037,-1.118,-1.17,-1.215,-1.2224,-1.2666,-1.3141,-1.3431,-1.3773,-1.4074,-1.4227,-1.4735,-1.5028,-1.5116,-1.5248,-1.547,-1.5575,-1.5575,-1.5567,-1.5824,-1.6484,-1.6738,-1.6582,-1.6507,-1.6433,-1.6252,-1.6162,-1.6004,-1.5741,-1.5748,-1.5575,-1.5401,-1.4949,-1.4754,-1.44,-1.4212,-1.3995,-1.4031,-1.373,-1.3723,-2.056,-1.9978,-1.9926,-1.9811,-1.9552,-1.9552,-1.95,-1.9408,-1.9396,-1.9356,-1.9263,-1.9263,-1.9198,-1.904,-1.8869,-1.8976,-1.9162,-1.836,-1.7379,-1.6392,-1.6337,-1.5958,-1.5342,-1.5332,-1.5137,-1.4675,-1.4181,-1.3442,-1.2405,-1.1677,-1.1052,-1.0491,-0.9862,-0.928,-0.8759,-0.8112,-0.7461,-0.6675,-0.5951,-0.5292,-0.4561,-0.3959,-0.356,-0.3429,-0.3362,-0.3362,-0.3364,-0.3431,-0.3563,-0.3758,-0.3961,-0.4159,-0.4584,-0.5084,-0.5488,-0.5738,-0.6222,-0.6563,-0.6641,-0.6872,-0.718,-0.7407,-0.7565,-0.7795,-0.7953,-0.8174,-0.8399,-0.8551,-0.8703,-0.8941,-0.917,-0.9473,-0.97,-0.9922,-1.0293,-1.0513,-1.0519,-1.1037,-1.1397,-1.1539,-1.1842,-1.2109,-1.2337,-1.2599,-1.2795,-1.2802,-1.3317,-1.3615,-1.3777,-1.4015,-1.4219,-1.4468,-1.4398,-1.4398,-1.4566,-1.4985,-1.565,-1.5658,-1.5575,-1.5582,-1.5658,-1.5575,-1.547,-1.5311,-1.5054,-1.4887,-1.4615,-1.4072,-1.3708,-1.3315,-1.2902,-1.256,-1.2569,-1.251,-1.248,-1.9875,-1.942,-1.9368,-1.9198,-1.8987,-1.8987,-1.8987,-1.8987,-1.8987,-1.8934,-1.8934,-1.8987,-1.8893,-1.8732,-1.8452,-1.8394,-1.8423,-1.7889,-1.6616,-1.5019,-1.5561,-1.5594,-1.502,-1.4775,-1.4488,-1.4036,-1.3042,-1.2228,-1.1483,-1.0863,-1.0301,-0.9798,-0.928,-0.8689,-0.8236,-0.7717,-0.6999,-0.6207,-0.5484,-0.4758,-0.4028,-0.3493,-0.3228,-0.3228,-0.3092,-0.3092,-0.3228,-0.3362,-0.3563,-0.3761,-0.3894,-0.4159,-0.4526,-0.4868,-0.5165,-0.5501,-0.6019,-0.6321,-0.6563,-0.6644,-0.6876,-0.7103,-0.733,-0.7565,-0.7718,-0.794,-0.8165,-0.8322,-0.8394,-0.8542,-0.8865,-0.9022,-0.9094,-0.9327,-0.9695,-0.9916,-0.9992,-1.0443,-1.0875,-1.0995,-1.1087,-1.1123,-1.1202,-1.1405,-1.1597,-1.1652,-1.2023,-1.2363,-1.2563,-1.277,-1.3099,-1.3283,-1.3281,-1.3209,-1.33,-1.3476,-1.4153,-1.4573,-1.4573,-1.4566,-1.4622,-1.4608,-1.4358,-1.4164,-1.3877,-1.3705,-1.331,-1.2831,-1.2425,-1.2047,-1.1601,-1.1266,-1.1218,-1.1176,-1.0996,-1.9239,-1.8839,-1.8709,-1.8548,-1.841,-1.8398,-1.8398,-1.8398,-1.841,-1.841,-1.8356,-1.841,-1.829,-1.8182,-1.7963,-1.7889,-1.7913,-1.7132,-1.6105,-1.5262,-1.5226,-1.5156,-1.4812,-1.4309,-1.37,-1.2981,-1.2236,-1.1483,-1.0793,-1.0161,-0.9588,-0.921,-0.863,-0.8112,-0.7717,-0.7064,-0.6412,-0.5749,-0.5087,-0.4492,-0.3961,-0.3357,-0.3092,-0.3159,-0.2956,-0.2889,-0.3159,-0.3295,-0.3493,-0.3758,-0.3828,-0.4028,-0.4397,-0.4758,-0.503,-0.5183,-0.5566,-0.587,-0.6096,-0.6331,-0.649,-0.6795,-0.6945,-0.7176,-0.7334,-0.7561,-0.7787,-0.7949,-0.8089,-0.8237,-0.8408,-0.8484,-0.8789,-0.9251,-0.9397,-0.9468,-0.9544,-0.9771,-1.0056,-1.0254,-1.026,-1.0293,-1.0332,-1.0422,-1.0503,-1.052,-1.0778,-1.0982,-1.1073,-1.1444,-1.1721,-1.1925,-1.1951,-1.2095,-1.2186,-1.2186,-1.2528,-1.3118,-1.3294,-1.3548,-1.3607,-1.349,-1.3252,-1.2972,-1.27,-1.2398,-1.1922,-1.1565,-1.1186,-1.0811,-1.0471,-1.0226,-0.9987,-0.9832,-0.9757,-1.8709,-1.8344,-1.8127,-1.8018,-1.7865,-1.781,-1.7744,-1.7755,-1.7755,-1.7755,-1.781,-1.7755,-1.77,-1.7634,-1.7423,-1.7456,-1.7442,-1.6452,-1.5505,-1.4868,-1.4904,-1.4743,-1.4414,-1.358,-1.2903,-1.2359,-1.167,-1.0989,-1.0295,-0.9652,-0.9075,-0.8624,-0.8107,-0.7587,-0.7199,-0.6544,-0.5954,-0.5286,-0.4691,-0.4228,-0.3761,-0.3226,-0.2956,-0.3092,-0.2755,-0.2757,-0.3025,-0.3092,-0.3293,-0.3627,-0.3828,-0.403,-0.4314,-0.4663,-0.4935,-0.505,-0.5318,-0.5556,-0.5786,-0.5948,-0.6103,-0.6328,-0.656,-0.6795,-0.6949,-0.7173,-0.7399,-0.7638,-0.7787,-0.7936,-0.8097,-0.8178,-0.8479,-0.8789,-0.9094,-0.917,-0.9322,-0.9397,-0.9539,-0.9669,-0.9664,-0.969,-0.964,-0.9716,-0.97,-0.9727,-0.974,-0.9891,-0.999,-1.0201,-1.046,-1.0731,-1.0851,-1.094,-1.1063,-1.0982,-1.0895,-1.1413,-1.1929,-1.2357,-1.2601,-1.2314,-1.21,-1.1694,-1.1415,-1.1179,-1.0773,-1.0256,-0.9861,-0.9553,-0.9306,-0.8949,-0.8705,-0.8663,-0.8598,-1.8278,-1.7854,-1.77,-1.759,-1.7412,-1.7245,-1.72,-1.7134,-1.7134,-1.72,-1.7211,-1.72,-1.7134,-1.7078,-1.6853,-1.6903,-1.6999,-1.5944,-1.4681,-1.4037,-1.4109,-1.4267,-1.3752,-1.2712,-1.2143,-1.1926,-1.131,-1.0618,-0.9856,-0.921,-0.8689,-0.8107,-0.7652,-0.7129,-0.6609,-0.6083,-0.5425,-0.4831,-0.4228,-0.3763,-0.3498,-0.2958,-0.2753,-0.2956,-0.2624,-0.2557,-0.2755,-0.2902,-0.3171,-0.3498,-0.383,-0.4036,-0.4271,-0.4533,-0.4734,-0.4899,-0.5115,-0.5297,-0.5482,-0.5482,-0.5634,-0.5783,-0.6022,-0.6335,-0.6483,-0.6703,-0.7007,-0.7326,-0.7403,-0.7638,-0.7872,-0.8025,-0.8097,-0.8183,-0.8641,-0.8946,-0.9175,-0.917,-0.9165,-0.916,-0.9226,-0.9231,-0.9185,-0.9175,-0.917,-0.9175,-0.9032,-0.9125,-0.9262,-0.9317,-0.9379,-0.9568,-0.9823,-0.9875,-0.999,-1.0028,-0.9941,-1.0111,-1.0631,-1.1063,-1.1428,-1.1231,-1.0751,-1.0374,-1.022,-0.9922,-0.9612,-0.9118,-0.8723,-0.8494,-0.8181,-0.7727,-0.7667,-0.7729,-0.7758,-1.7755,-1.7434,-1.7155,-1.6976,-1.6853,-1.6807,-1.6684,-1.6524,-1.6513,-1.6524,-1.6524,-1.6524,-1.6457,-1.6343,-1.6218,-1.6321,-1.6171,-1.5312,-1.4168,-1.3262,-1.3287,-1.3285,-1.2875,-1.2158,-1.1593,-1.1303,-1.0681,-0.9913,-0.928,-0.863,-0.7982,-0.7461,-0.6937,-0.6412,-0.5885,-0.5355,-0.4894,-0.4364,-0.3761,-0.336,-0.3226,-0.2758,-0.2555,-0.2753,-0.2557,-0.249,-0.2693,-0.2811,-0.3086,-0.3435,-0.3694,-0.3864,-0.4013,-0.4133,-0.4317,-0.441,-0.453,-0.4698,-0.4935,-0.4935,-0.501,-0.5237,-0.5398,-0.5631,-0.5857,-0.6247,-0.6556,-0.6791,-0.6942,-0.7173,-0.7407,-0.7561,-0.7791,-0.8025,-0.8255,-0.8331,-0.8408,-0.8408,-0.8399,-0.8456,-0.8452,-0.8461,-0.8479,-0.8489,-0.8484,-0.8484,-0.8412,-0.8345,-0.8544,-0.8528,-0.8657,-0.8652,-0.8813,-0.8901,-0.9013,-0.8965,-0.8982,-0.8982,-0.924,-0.9584,-0.9981,-1.0045,-0.9437,-0.889,-0.8978,-0.8783,-0.8334,-0.7794,-0.7662,-0.7662,-0.7419,-0.7176,-0.7096,-0.713,-0.7138,-1.7245,-1.6987,-1.6637,-1.641,-1.6285,-1.6239,-1.6114,-1.5941,-1.5951,-1.5941,-1.5884,-1.5874,-1.5816,-1.57,-1.5459,-1.54,-1.537,-1.4455,-1.3459,-1.27,-1.2605,-1.2522,-1.2251,-1.1593,-1.1024,-1.08,-1.0104,-0.9466,-0.8823,-0.8112,-0.7466,-0.6872,-0.6346,-0.5818,-0.5289,-0.4761,-0.4295,-0.3959,-0.3424,-0.3092,-0.2956,-0.2624,-0.2491,-0.2488,-0.2424,-0.2364,-0.2463,-0.2432,-0.2709,-0.3219,-0.3459,-0.3551,-0.3622,-0.376,-0.3918,-0.3944,-0.4097,-0.4229,-0.4309,-0.4309,-0.4387,-0.446,-0.4696,-0.4849,-0.5082,-0.5473,-0.5702,-0.6167,-0.6328,-0.656,-0.6872,-0.7099,-0.733,-0.7484,-0.7638,-0.7718,-0.8025,-0.8102,-0.8097,-0.8084,-0.808,-0.8084,-0.8111,-0.8111,-0.8111,-0.8106,-0.8021,-0.7949,-0.7906,-0.7886,-0.7856,-0.7931,-0.8022,-0.8195,-0.8225,-0.8273,-0.8214,-0.8222,-0.8146,-0.8503,-0.87,-0.8946,-0.8513,-0.7994,-0.7802,-0.7642,-0.7334,-0.7099,-0.7103,-0.7026,-0.6868,-0.6714,-0.6714,-0.6633,-0.6633,-1.6786,-1.6503,-1.6171,-1.5941,-1.5826,-1.5662,-1.5546,-1.5352,-1.5294,-1.5294,-1.5235,-1.5177,-1.5059,-1.4991,-1.4579,-1.4369,-1.4267,-1.3528,-1.2765,-1.2212,-1.2026,-1.2002,-1.1622,-1.0885,-1.0451,-1.0218,-0.9709,-0.9005,-0.8366,-0.7652,-0.7003,-0.635,-0.5749,-0.5223,-0.4691,-0.4159,-0.3825,-0.3489,-0.309,-0.2836,-0.2705,-0.2501,-0.2363,-0.2312,-0.2174,-0.2134,-0.2101,-0.2054,-0.2339,-0.3041,-0.3033,-0.3087,-0.3218,-0.337,-0.3484,-0.3446,-0.3565,-0.3606,-0.3684,-0.3606,-0.3606,-0.3684,-0.3837,-0.407,-0.4226,-0.4535,-0.4924,-0.5392,-0.5476,-0.5864,-0.6328,-0.671,-0.6865,-0.6942,-0.6942,-0.7249,-0.7791,-0.7949,-0.7949,-0.8021,-0.7944,-0.7957,-0.7966,-0.797,-0.7966,-0.7642,-0.7561,-0.7484,-0.7419,-0.7422,-0.7371,-0.7232,-0.7327,-0.7429,-0.7517,-0.7587,-0.7523,-0.7537,-0.7382,-0.7451,-0.7665,-0.7764,-0.7605,-0.7354,-0.7025,-0.6872,-0.6714,-0.6637,-0.6637,-0.6556,-0.6325,-0.6254,-0.6257,-0.6251,-0.617,-1.6513,-1.6171,-1.5904,-1.5546,-1.5205,-1.5147,-1.4961,-1.4725,-1.4725,-1.4653,-1.4488,-1.4428,-1.424,-1.3863,-1.3752,-1.345,-1.2981,-1.2605,-1.2189,-1.1729,-1.1696,-1.1248,-1.0688,-0.9933,-0.9742,-0.957,-0.9005,-0.8361,-0.7717,-0.7003,-0.628,-0.5624,-0.516,-0.4628,-0.4095,-0.3758,-0.3422,-0.309,-0.2758,-0.2591,-0.2479,-0.232,-0.2185,-0.2081,-0.1947,-0.1762,-0.1806,-0.1918,-0.2161,-0.2377,-0.2507,-0.2501,-0.2403,-0.2546,-0.2653,-0.2728,-0.2809,-0.2824,-0.2824,-0.2824,-0.2823,-0.2824,-0.2979,-0.3134,-0.3366,-0.3759,-0.4148,-0.4618,-0.4774,-0.5162,-0.5702,-0.6167,-0.6402,-0.656,-0.6641,-0.6791,-0.7096,-0.7173,-0.7246,-0.7242,-0.7246,-0.7173,-0.718,-0.7265,-0.7261,-0.7176,-0.7096,-0.7019,-0.6964,-0.6913,-0.682,-0.6665,-0.6778,-0.6854,-0.684,-0.6915,-0.6878,-0.6861,-0.6701,-0.6544,-0.6766,-0.6788,-0.6658,-0.6513,-0.621,-0.6099,-0.6096,-0.6022,-0.5944,-0.5864,-0.586,-0.5786,-0.5786,-0.5783,-0.5783,-1.6114,-1.5768,-1.5371,-1.5079,-1.4821,-1.475,-1.465,-1.4443,-1.448,-1.432,-1.4057,-1.3969,-1.3559,-1.3033,-1.2911,-1.2544,-1.2042,-1.1615,-1.1324,-1.1108,-1.0925,-1.0467,-0.9658,-0.9035,-0.8698,-0.8865,-0.8361,-0.7652,-0.6937,-0.6284,-0.5624,-0.5027,-0.4495,-0.3959,-0.3493,-0.3159,-0.2891,-0.2701,-0.2456,-0.2284,-0.2232,-0.2175,-0.2038,-0.1924,-0.1716,-0.1518,-0.126,-0.1051,-0.1066,-0.115,-0.1303,-0.1379,-0.1386,-0.1636,-0.196,-0.2198,-0.2199,-0.2199,-0.2199,-0.2199,-0.2199,-0.2199,-0.2356,-0.2353,-0.2508,-0.2821,-0.3212,-0.368,-0.3915,-0.4226,-0.4927,-0.547,-0.586,-0.5941,-0.6099,-0.6173,-0.6402,-0.671,-0.6865,-0.6861,-0.6945,-0.6949,-0.6876,-0.6799,-0.6872,-0.6942,-0.6718,-0.6641,-0.6486,-0.643,-0.621,-0.6116,-0.6192,-0.6199,-0.6263,-0.6249,-0.6238,-0.6194,-0.6135,-0.5894,-0.5852,-0.5912,-0.5891,-0.5772,-0.5743,-0.5712,-0.5631,-0.5479,-0.5404,-0.5398,-0.5318,-0.5318,-0.5321,-0.5321,-0.5321,-1.5642,-1.5294,-1.4824,-1.4565,-1.4436,-1.4374,-1.429,-1.4221,-1.4317,-1.4022,-1.3702,-1.3525,-1.2965,-1.2391,-1.2094,-1.1744,-1.1178,-1.0737,-1.0511,-1.0531,-1.0289,-0.9753,-0.9005,-0.8125,-0.7603,-0.8096,-0.7587,-0.6937,-0.6218,-0.5557,-0.4957,-0.4425,-0.3754,-0.3288,-0.2958,-0.2624,-0.2356,-0.2227,-0.2138,-0.2038,-0.1912,-0.1942,-0.1889,-0.1833,-0.1541,-0.104,-0.0454,-0.0153,-0.0,0.0157,0.0157,0.0236,-0.0,-0.055,-0.1179,-0.1571,-0.1492,-0.1492,-0.1571,-0.1572,-0.165,-0.173,-0.1729,-0.1649,-0.1648,-0.1882,-0.2352,-0.2741,-0.3132,-0.3522,-0.4148,-0.4696,-0.5085,-0.5165,-0.5323,-0.5556,-0.586,-0.6321,-0.6483,-0.6799,-0.6721,-0.6644,-0.6644,-0.6563,-0.6637,-0.6633,-0.6335,-0.6183,-0.6028,-0.5951,-0.5808,-0.5733,-0.572,-0.5507,-0.5476,-0.5422,-0.549,-0.5485,-0.5479,-0.5319,-0.5156,-0.5068,-0.514,-0.545,-0.5463,-0.5268,-0.5087,-0.4935,-0.4854,-0.4851,-0.4771,-0.4693,-0.4696,-0.4779,-0.4779,-1.5303,-1.5029,-1.4488,-1.4187,-1.4018,-1.3798,-1.3752,-1.3802,-1.3584,-1.3294,-1.3122,-1.2758,-1.2314,-1.1754,-1.143,-1.0975,-1.041,-0.9989,-0.9945,-1.0034,-0.9918,-0.952,-0.8431,-0.7251,-0.6724,-0.6666,-0.6568,-0.6191,-0.5557,-0.4824,-0.4289,-0.3689,-0.3153,-0.2755,-0.2421,-0.2085,-0.1951,-0.1893,-0.1803,-0.1774,-0.173,-0.1755,-0.1631,-0.1578,-0.128,-0.0457,0.0387,0.039,0.0313,0.1021,0.11,0.1022,0.0864,0.0393,-0.0,-0.0236,-0.0393,-0.0471,-0.0629,-0.0707,-0.0707,-0.0786,-0.0864,-0.0864,-0.0942,-0.1178,-0.1648,-0.2038,-0.2663,-0.313,-0.3288,-0.3917,-0.4309,-0.4543,-0.4698,-0.501,-0.5318,-0.555,-0.5864,-0.618,-0.6335,-0.6335,-0.6254,-0.6177,-0.6096,-0.6018,-0.5789,-0.5637,-0.5637,-0.5559,-0.5562,-0.5407,-0.5332,-0.5026,-0.4646,-0.4658,-0.4686,-0.4706,-0.4673,-0.4673,-0.4511,-0.4339,-0.4408,-0.4658,-0.4737,-0.4553,-0.4465,-0.4389,-0.4153,-0.407,-0.399,-0.399,-0.3995,-0.4001,-0.3999,-1.502,-1.4656,-1.4061,-1.3735,-1.365,-1.3582,-1.3499,-1.3357,-1.334,-1.306,-1.2666,-1.2262,-1.1758,-1.1162,-1.077,-1.0242,-0.9725,-0.935,-0.9367,-0.945,-0.9409,-0.8944,-0.7892,-0.6597,-0.6112,-0.5827,-0.5603,-0.5277,-0.4834,-0.422,-0.3623,-0.3153,-0.2619,-0.2287,-0.2085,-0.1883,-0.1681,-0.1627,-0.1609,-0.1583,-0.1538,-0.1491,-0.1298,-0.0922,-0.0617,0.0078,0.0939,0.1179,0.1021,0.1258,0.1415,0.1415,0.1258,0.11,0.0786,0.0707,0.0629,0.0629,0.0393,0.0314,0.0079,-0.0,-0.0157,-0.0314,-0.0393,-0.0707,-0.1099,-0.1491,-0.1959,-0.2507,-0.2585,-0.3057,-0.337,-0.368,-0.3917,-0.4307,-0.4618,-0.4774,-0.5165,-0.5553,-0.5709,-0.5709,-0.5712,-0.5553,-0.5476,-0.5323,-0.5246,-0.5168,-0.509,-0.509,-0.509,-0.4932,-0.4774,-0.4543,-0.4153,-0.4073,-0.3995,-0.3995,-0.3995,-0.3995,-0.3997,-0.3843,-0.3763,-0.3767,-0.3759,-0.3839,-0.3759,-0.3602,-0.3446,-0.3212,-0.3212,-0.3136,-0.3139,-0.3141,-0.3141,-1.4725,-1.435,-1.3692,-1.331,-1.3232,-1.3243,-1.3117,-1.2983,-1.2998,-1.2741,-1.2257,-1.1716,-1.1217,-1.0647,-1.0073,-0.9544,-0.9156,-0.8814,-0.8738,-0.875,-0.8783,-0.824,-0.7163,-0.6131,-0.5316,-0.4996,-0.4708,-0.4323,-0.4102,-0.3594,-0.304,-0.2622,-0.222,-0.1951,-0.1748,-0.1547,-0.1479,-0.1504,-0.1418,-0.1386,-0.1344,-0.1153,-0.0707,-0.0079,0.0079,0.0549,0.1336,0.1573,0.1573,0.1573,0.1573,0.1573,0.1415,0.1415,0.1336,0.1336,0.1336,0.1336,0.1179,0.0943,0.0707,0.0629,0.0471,0.0236,-0.0,-0.0236,-0.0629,-0.1021,-0.1412,-0.1647,-0.1803,-0.2196,-0.2508,-0.2741,-0.3056,-0.3448,-0.3839,-0.407,-0.4224,-0.4613,-0.5002,-0.5082,-0.5007,-0.501,-0.4929,-0.4696,-0.4543,-0.4543,-0.4543,-0.4465,-0.4387,-0.4229,-0.407,-0.3995,-0.3763,-0.3528,-0.345,-0.337,-0.337,-0.337,-0.337,-0.3292,-0.3212,-0.3134,-0.3136,-0.3137,-0.2978,-0.2898,-0.2821,-0.2666,-0.2511,-0.2434,-0.2592,-0.2515,-0.2514,-1.4359,-1.4001,-1.3346,-1.2975,-1.2789,-1.239,-1.2364,-1.2473,-1.2077,-1.184,-1.1659,-1.1027,-1.051,-1.0027,-0.9347,-0.8877,-0.8642,-0.8342,-0.8144,-0.8203,-0.816,-0.7601,-0.6538,-0.5303,-0.4572,-0.4229,-0.3909,-0.379,-0.3554,-0.298,-0.2537,-0.2162,-0.1748,-0.1412,-0.1412,-0.1278,-0.1143,-0.1154,-0.1136,-0.1116,-0.1078,-0.0547,-0.0157,0.0157,0.0471,0.0943,0.1572,0.1886,0.1964,0.1808,0.1807,0.1887,0.1808,0.1651,0.1573,0.1493,0.1415,0.1336,0.1258,0.1179,0.11,0.11,0.11,0.0943,0.0629,0.0236,-0.0,-0.0157,-0.055,-0.0785,-0.0942,-0.1491,-0.1803,-0.2038,-0.2352,-0.2666,-0.2979,-0.329,-0.3444,-0.3756,-0.4146,-0.4304,-0.4304,-0.4384,-0.4384,-0.4151,-0.3917,-0.3919,-0.3841,-0.3763,-0.3684,-0.3604,-0.3446,-0.3292,-0.3294,-0.3061,-0.2904,-0.2746,-0.2746,-0.2746,-0.2746,-0.2746,-0.2588,-0.251,-0.2512,-0.2356,-0.2117,-0.2038,-0.2196,-0.2119,-0.1963,-0.1964,-0.2124,-0.2044,-0.1807,-1.4001,-1.364,-1.3103,-1.2709,-1.2357,-1.202,-1.1727,-1.1438,-1.1209,-1.101,-1.0785,-1.0234,-0.9805,-0.943,-0.8893,-0.8629,-0.8374,-0.7893,-0.7715,-0.767,-0.7665,-0.7173,-0.6235,-0.5095,-0.4113,-0.352,-0.335,-0.327,-0.2985,-0.2725,-0.2351,-0.1755,-0.1547,-0.1345,-0.1212,-0.1145,-0.1144,-0.0957,-0.0709,-0.0519,-0.0459,-0.0156,0.0314,0.0864,0.1179,0.1493,0.1807,0.2042,0.2042,0.1964,0.1963,0.2042,0.1965,0.1808,0.1808,0.1808,0.173,0.1573,0.1336,0.1336,0.1336,0.1336,0.1336,0.1179,0.0943,0.0786,0.055,0.0314,0.0157,0.0079,-0.0079,-0.0549,-0.0863,-0.1176,-0.1569,-0.1883,-0.2118,-0.2353,-0.2586,-0.2899,-0.3214,-0.329,-0.329,-0.3292,-0.337,-0.3292,-0.3136,-0.3136,-0.3057,-0.2979,-0.2979,-0.2902,-0.2823,-0.2744,-0.2668,-0.2591,-0.2357,-0.2199,-0.2199,-0.2199,-0.2199,-0.212,-0.1962,-0.1884,-0.1885,-0.1649,-0.1256,-0.1413,-0.1728,-0.1571,-0.1415,-0.1415,-0.1336,-0.0943,-0.0707,-1.3709,-1.3277,-1.292,-1.2436,-1.1887,-1.1625,-1.1125,-1.0565,-1.0418,-1.0242,-0.9933,-0.9486,-0.9047,-0.8722,-0.8437,-0.8146,-0.792,-0.7399,-0.728,-0.725,-0.7146,-0.6614,-0.5544,-0.4464,-0.3524,-0.2891,-0.2924,-0.2691,-0.2487,-0.2238,-0.1866,-0.1347,-0.1211,-0.1144,-0.1011,-0.0945,-0.0878,-0.0686,-0.0214,0.0148,0.0455,0.0466,0.1019,0.1493,0.1807,0.1885,0.1964,0.2276,0.2276,0.2277,0.2354,0.2434,0.2358,0.2201,0.22,0.2121,0.2043,0.1885,0.1649,0.1492,0.1415,0.1336,0.1336,0.1258,0.1258,0.1258,0.1179,0.0786,0.0786,0.0707,0.0629,0.0393,0.0079,-0.0314,-0.0707,-0.1021,-0.1334,-0.1412,-0.149,-0.1725,-0.196,-0.2118,-0.2198,-0.2199,-0.2277,-0.2354,-0.2354,-0.2354,-0.2276,-0.2276,-0.2354,-0.2356,-0.2277,-0.2198,-0.2199,-0.2043,-0.1808,-0.1493,-0.1493,-0.1415,-0.1257,-0.1257,-0.1178,-0.1178,-0.11,-0.0629,-0.0078,-0.0707,-0.1258,-0.0943,-0.0629,-0.0629,-0.0471,-0.0,0.0393,-1.3407,-1.2797,-1.2605,-1.205,-1.1365,-1.101,-1.0548,-0.9892,-0.9667,-0.9428,-0.9222,-0.8765,-0.8284,-0.7952,-0.7794,-0.7489,-0.7134,-0.6459,-0.6499,-0.6587,-0.6521,-0.5657,-0.4572,-0.3524,-0.2743,-0.2518,-0.2474,-0.2225,-0.176,-0.1671,-0.1374,-0.108,-0.0741,-0.0606,-0.0472,-0.0337,-0.0272,-0.0069,0.0214,0.0808,0.1357,0.1544,0.1724,0.1964,0.2119,0.2196,0.2196,0.2511,0.2746,0.2669,0.2824,0.2981,0.2906,0.2826,0.2747,0.2746,0.2511,0.2275,0.2118,0.1806,0.1493,0.1415,0.1336,0.1336,0.1336,0.1336,0.1258,0.1179,0.11,0.1179,0.1179,0.1179,0.0707,0.0471,0.0157,-0.0,-0.0236,-0.0314,-0.0392,-0.0549,-0.0706,-0.0863,-0.1021,-0.1021,-0.1414,-0.157,-0.1727,-0.1728,-0.1649,-0.1649,-0.1729,-0.1807,-0.1807,-0.1807,-0.1729,-0.1493,-0.0943,-0.0471,-0.0314,-0.0236,-0.0079,-0.0157,-0.0157,-0.0079,0.0079,0.055,0.0864,0.0471,0.0157,0.0079,0.0079,0.0314,0.055,0.0942,0.1335,-1.3407,-1.2744,-1.2305,-1.174,-1.1129,-1.0548,-0.9912,-0.9349,-0.8974,-0.8642,-0.8388,-0.8028,-0.7815,-0.7633,-0.7328,-0.7057,-0.6764,-0.608,-0.587,-0.5734,-0.553,-0.4868,-0.3688,-0.2759,-0.2112,-0.217,-0.2182,-0.2177,-0.1986,-0.1372,-0.0477,-0.0067,-0.0067,0.0135,0.027,0.0404,0.0543,0.0686,0.0913,0.1442,0.1924,0.2047,0.2164,0.2511,0.2512,0.2668,0.2746,0.2904,0.3059,0.3215,0.3294,0.345,0.3528,0.345,0.3448,0.3368,0.3054,0.2899,0.2665,0.2198,0.173,0.1493,0.1493,0.1415,0.1336,0.1336,0.1336,0.1336,0.1336,0.1336,0.1336,0.1258,0.11,0.1022,0.0943,0.0864,0.0707,0.055,0.0471,0.0314,0.0393,0.0393,0.0236,0.0079,-0.0471,-0.0864,-0.1021,-0.1022,-0.0943,-0.0786,-0.0864,-0.0864,-0.0864,-0.0786,-0.0786,-0.0314,0.0079,0.0393,0.0707,0.0786,0.0864,0.1179,0.1179,0.1179,0.11,0.1413,0.1649,0.1649,0.1492,0.1178,0.1178,0.1414,0.1649,0.1884,0.2119,-1.3346,-1.2752,-1.1996,-1.1365,-1.087,-1.0168,-0.9466,-0.8829,-0.8452,-0.8002,-0.7562,-0.744,-0.7359,-0.7146,-0.6921,-0.6483,-0.611,-0.562,-0.5081,-0.4917,-0.4729,-0.4087,-0.304,-0.2207,-0.1785,-0.1694,-0.1569,-0.1504,-0.1284,-0.1012,-0.027,0.0405,0.0674,0.0809,0.0741,0.1146,0.1279,0.1354,0.159,0.1905,0.2386,0.2384,0.2433,0.2794,0.2885,0.3057,0.3215,0.3372,0.3528,0.3682,0.3839,0.3995,0.4073,0.4151,0.4148,0.4068,0.391,0.36,0.329,0.2668,0.2043,0.1806,0.1806,0.1649,0.1571,0.1493,0.1573,0.1493,0.1493,0.1493,0.1493,0.1493,0.1493,0.1336,0.1336,0.1258,0.1179,0.1022,0.11,0.11,0.11,0.1022,0.0943,0.0707,0.0393,-0.0079,-0.0157,-0.0236,-0.0079,0.0079,0.0314,0.0314,0.0314,0.0314,0.0393,0.055,0.0707,0.0943,0.1258,0.1492,0.1649,0.1964,0.2043,0.1885,0.1962,0.2276,0.2353,0.2352,0.2276,0.2121,0.2121,0.2119,0.2353,0.2586,0.2743,-1.3233,-1.2792,-1.1755,-1.0989,-1.0421,-0.9779,-0.9139,-0.8447,-0.7922,-0.7414,-0.6981,-0.688,-0.6743,-0.6477,-0.6175,-0.5776,-0.5299,-0.502,-0.4546,-0.4009,-0.4089,-0.3448,-0.2636,-0.196,-0.088,-0.0269,-0.0338,-0.0406,-0.0135,-0.0,0.0404,0.0741,0.1144,0.1145,0.0674,0.1279,0.1614,0.1756,0.2005,0.2234,0.2558,0.2643,0.2842,0.313,0.3322,0.3501,0.368,0.3841,0.4153,0.4384,0.454,0.4693,0.4924,0.4924,0.5002,0.4921,0.4616,0.4384,0.4229,0.3136,0.2666,0.2353,0.2275,0.2118,0.1963,0.1886,0.1887,0.1886,0.1886,0.1886,0.1887,0.1887,0.1729,0.165,0.165,0.1573,0.1493,0.1415,0.1493,0.1493,0.1415,0.1258,0.1336,0.1258,0.1022,0.0786,0.0629,0.0629,0.0629,0.0786,0.1022,0.1022,0.1022,0.11,0.11,0.1179,0.1336,0.1573,0.1729,0.1962,0.2118,0.2275,0.2433,0.2511,0.2668,0.2824,0.2978,0.3132,0.3136,0.3059,0.2746,0.2666,0.2976,0.321,0.3368,-1.3094,-1.2444,-1.1498,-1.0667,-1.0028,-0.9396,-0.8759,-0.8117,-0.74,-0.6868,-0.6539,-0.635,-0.6086,-0.5818,-0.5422,-0.5024,-0.4622,-0.43,-0.3832,-0.3426,-0.3433,-0.337,-0.2491,-0.0873,0.0403,0.0941,0.0873,0.0672,0.1077,0.1009,0.1144,0.1481,0.1681,0.1615,0.1549,0.1817,0.2018,0.2088,0.2246,0.2545,0.301,0.3143,0.3364,0.3689,0.3884,0.4011,0.4215,0.4455,0.4776,0.516,0.5318,0.547,0.5699,0.5777,0.5777,0.5699,0.5389,0.5082,0.4849,0.4224,0.3756,0.321,0.2821,0.2665,0.2354,0.2354,0.2277,0.2277,0.2356,0.2356,0.2276,0.2198,0.2041,0.2041,0.1963,0.1807,0.173,0.173,0.173,0.173,0.173,0.1729,0.1729,0.1729,0.1571,0.1414,0.1256,0.11,0.11,0.1258,0.1493,0.1493,0.1493,0.1651,0.173,0.1729,0.1805,0.2041,0.2196,0.2273,0.2508,0.2821,0.3056,0.3292,0.3372,0.345,0.3682,0.3917,0.4151,0.4073,0.368,0.3524,0.3682,0.3915,0.4073,-1.2964,-1.2174,-1.1233,-1.0275,-0.9436,-0.9011,-0.8376,-0.7596,-0.6872,-0.6478,-0.6214,-0.5888,-0.5557,-0.5223,-0.4761,-0.4431,-0.4161,-0.3835,-0.3027,-0.2554,-0.2153,-0.2085,-0.1344,0.0269,0.1681,0.2153,0.1816,0.1547,0.1814,0.1882,0.2016,0.2151,0.2285,0.242,0.2353,0.242,0.2287,0.2423,0.2637,0.292,0.3309,0.3502,0.3777,0.4101,0.4338,0.4568,0.486,0.5134,0.5395,0.5854,0.6086,0.624,0.6472,0.6626,0.6626,0.6475,0.6167,0.578,0.5544,0.5389,0.4844,0.4222,0.3756,0.3366,0.3136,0.3057,0.2981,0.2981,0.2902,0.2901,0.2899,0.2665,0.2586,0.251,0.2354,0.2278,0.2121,0.2121,0.2121,0.2121,0.2123,0.2123,0.212,0.2121,0.2042,0.1963,0.1884,0.1728,0.1572,0.1729,0.1886,0.1963,0.1964,0.212,0.212,0.212,0.2275,0.243,0.2663,0.2818,0.3212,0.3526,0.3839,0.3995,0.4151,0.4307,0.4465,0.4701,0.4932,0.4929,0.4691,0.4616,0.4545,0.4621,0.4696,-1.2842,-1.2042,-1.0982,-0.9882,-0.8901,-0.849,-0.7792,-0.6881,-0.6482,-0.6156,-0.5822,-0.5495,-0.5093,-0.4697,-0.4161,-0.3897,-0.3701,-0.3301,-0.2356,-0.1277,-0.0672,-0.0739,0.0067,0.1681,0.2693,0.2762,0.2557,0.2418,0.2484,0.2549,0.2751,0.3021,0.3224,0.3355,0.3286,0.3153,0.2889,0.3023,0.3159,0.3437,0.3738,0.3856,0.4119,0.4427,0.467,0.5078,0.5463,0.5765,0.6287,0.6619,0.6938,0.7173,0.7326,0.748,0.7411,0.718,0.6791,0.6556,0.6321,0.624,0.6086,0.5544,0.5004,0.4538,0.4068,0.3915,0.3839,0.3839,0.3839,0.3682,0.3602,0.3446,0.329,0.3136,0.2904,0.2747,0.2668,0.2589,0.2589,0.2669,0.2672,0.2671,0.2666,0.2666,0.2746,0.2668,0.2589,0.2511,0.2354,0.2119,0.2276,0.2353,0.2431,0.2589,0.2589,0.2666,0.2901,0.321,0.3285,0.3441,0.3912,0.4307,0.454,0.4771,0.4927,0.5082,0.5321,0.5479,0.5634,0.5553,0.5547,0.5315,0.5162,0.5165,0.5318,-1.2528,-1.1608,-1.0737,-0.9716,-0.8683,-0.7526,-0.6815,-0.6486,-0.6083,-0.5617,-0.5286,-0.4821,-0.4361,-0.3832,-0.3291,-0.3027,-0.2894,-0.2424,-0.1546,-0.0538,0.0537,0.0873,0.168,0.2757,0.3569,0.3703,0.3632,0.3422,0.3487,0.3485,0.3751,0.4092,0.4159,0.4287,0.4284,0.4217,0.3954,0.3823,0.3956,0.4025,0.4225,0.4336,0.4597,0.4896,0.5173,0.5597,0.612,0.6417,0.6949,0.7367,0.754,0.7706,0.7868,0.7944,0.7795,0.7633,0.748,0.7403,0.7169,0.7092,0.7015,0.6861,0.6479,0.5705,0.516,0.4768,0.4771,0.4771,0.4771,0.4691,0.4535,0.4382,0.4148,0.3992,0.3761,0.3604,0.3526,0.3448,0.3448,0.3372,0.3376,0.3372,0.3446,0.3446,0.3526,0.345,0.345,0.337,0.3214,0.2978,0.2821,0.2899,0.3132,0.3368,0.3446,0.3524,0.3759,0.3915,0.4064,0.4217,0.4768,0.5162,0.5315,0.547,0.5625,0.5938,0.6173,0.6254,0.6177,0.6409,0.6402,0.6093,0.578,0.5783,0.5783,-1.2212,-1.1226,-1.0168,-0.9081,-0.7787,-0.6548,-0.5888,-0.5686,-0.5352,-0.5024,-0.4755,-0.4087,-0.3625,-0.3293,-0.2621,-0.2354,-0.2829,-0.1951,-0.0672,0.1142,0.141,0.1677,0.2482,0.3828,0.4773,0.4906,0.4697,0.4486,0.4553,0.4686,0.4954,0.509,0.5156,0.5219,0.5282,0.5348,0.5286,0.502,0.4821,0.4755,0.4821,0.4954,0.5218,0.5552,0.5798,0.625,0.6769,0.7049,0.7569,0.8019,0.8125,0.833,0.8443,0.8479,0.8475,0.8318,0.8165,0.8093,0.8012,0.7936,0.794,0.7868,0.7791,0.7169,0.6549,0.6083,0.5931,0.5857,0.5777,0.5699,0.5467,0.5237,0.5082,0.4849,0.4693,0.4538,0.4462,0.4384,0.4309,0.4309,0.4229,0.4304,0.4304,0.4307,0.4307,0.4384,0.4462,0.446,0.4226,0.3915,0.3759,0.3679,0.3912,0.4226,0.4304,0.446,0.4616,0.4846,0.4996,0.5229,0.5702,0.5938,0.6167,0.6321,0.6402,0.6637,0.6714,0.6714,0.6714,0.6945,0.7022,0.663,0.6395,0.6321,0.6321,-1.1834,-1.073,-0.939,-0.7847,-0.635,-0.5557,-0.5027,-0.4492,-0.4356,-0.4289,-0.4087,-0.3288,-0.2887,-0.2485,-0.1679,-0.1546,-0.1479,-0.0806,0.0872,0.3165,0.2678,0.2673,0.334,0.4752,0.6039,0.6172,0.5962,0.5613,0.5745,0.5881,0.6013,0.602,0.621,0.6338,0.6404,0.6474,0.6478,0.6346,0.5947,0.5613,0.5481,0.555,0.5822,0.6117,0.6479,0.6877,0.728,0.7687,0.8079,0.851,0.8763,0.8916,0.8986,0.91,0.902,0.8983,0.8827,0.8851,0.8775,0.8775,0.8703,0.8627,0.8479,0.8394,0.7927,0.7238,0.6934,0.6865,0.6788,0.6703,0.6546,0.6318,0.6089,0.5935,0.578,0.5547,0.547,0.5473,0.5401,0.5323,0.5318,0.5315,0.5306,0.5386,0.5392,0.5395,0.5473,0.5547,0.5389,0.5079,0.4846,0.4691,0.4846,0.5079,0.5312,0.547,0.5628,0.578,0.5928,0.616,0.6553,0.6865,0.7022,0.7099,0.7176,0.7096,0.7099,0.7176,0.7176,0.7257,0.7253,0.7088,0.7011,0.7011,0.6861,-1.1212,-0.9894,-0.7892,-0.6465,-0.5477,-0.4556,-0.4161,-0.3969,-0.2755,-0.282,-0.336,-0.2485,-0.168,-0.1209,-0.047,-0.0134,0.0537,0.1005,0.2613,0.3816,0.3939,0.3857,0.4323,0.6268,0.7372,0.7377,0.7091,0.6798,0.6929,0.7064,0.7199,0.7269,0.7396,0.7521,0.7521,0.7591,0.7591,0.7591,0.7391,0.6859,0.6597,0.647,0.6613,0.7012,0.7409,0.7764,0.811,0.8419,0.8662,0.8957,0.8993,0.904,0.9148,0.9332,0.9422,0.9385,0.959,0.9643,0.9685,0.9685,0.9614,0.9614,0.9539,0.9539,0.915,0.8313,0.7859,0.7868,0.7795,0.7783,0.7625,0.7399,0.7173,0.6942,0.6784,0.6633,0.6556,0.6486,0.6493,0.649,0.6409,0.6398,0.6388,0.6388,0.6475,0.6475,0.6553,0.6553,0.6707,0.6549,0.6314,0.616,0.5851,0.6009,0.6321,0.6553,0.6633,0.6788,0.6861,0.7169,0.748,0.7638,0.7868,0.7872,0.7795,0.7718,0.7714,0.7795,0.7795,0.7718,0.7714,0.7706,0.7706,0.7706,0.748,-1.0508,-0.9,-0.7064,-0.5481,-0.4209,-0.3282,-0.275,-0.2214,-0.1141,-0.094,-0.1343,-0.0873,-0.0403,0.0134,0.0806,0.1879,0.2684,0.3213,0.4281,0.5147,0.5592,0.5501,0.6433,0.7707,0.8668,0.8944,0.8517,0.8231,0.8226,0.8296,0.8431,0.8495,0.8624,0.8689,0.8689,0.8689,0.8689,0.8694,0.8689,0.8425,0.7902,0.7777,0.7647,0.7972,0.8262,0.8603,0.875,0.9041,0.9304,0.9565,0.976,0.9829,0.9956,0.9978,1.0099,1.0286,1.0419,1.0547,1.0622,1.0663,1.0669,1.0663,1.0663,1.0657,1.0513,0.9825,0.9387,0.9322,0.9013,0.8927,0.8618,0.8394,0.8165,0.794,0.7859,0.7706,0.7553,0.7476,0.7411,0.7346,0.7334,0.7387,0.7302,0.7306,0.7391,0.7557,0.7557,0.7706,0.7783,0.7931,0.7778,0.7625,0.7387,0.7242,0.7399,0.7557,0.7633,0.7714,0.7868,0.8016,0.8318,0.8479,0.8637,0.856,0.8408,0.8336,0.8336,0.8408,0.8408,0.825,0.8327,0.8322,0.8399,0.8399,0.8246,-0.9539,-0.7762,-0.6152,-0.4353,-0.2609,-0.1741,-0.0937,-0.0067,0.0602,0.1339,0.181,0.134,0.1275,0.1612,0.2213,0.3556,0.4492,0.4875,0.5877,0.6666,0.7177,0.7062,0.7708,0.9058,1.0015,1.0283,0.9849,0.9709,0.957,0.9703,0.9697,0.9703,0.9703,0.9703,0.9709,0.9709,0.9716,0.9709,0.9709,0.9767,0.9512,0.9198,0.8871,0.8877,0.9139,0.9466,0.953,0.9695,0.9941,1.0143,1.0434,1.0545,1.077,1.0834,1.1114,1.1269,1.1513,1.1741,1.1864,1.1922,1.1848,1.1848,1.1855,1.1781,1.1632,1.1347,1.0911,1.0617,1.038,0.9986,0.9679,0.9458,0.9231,0.9084,0.8927,0.8851,0.8694,0.8542,0.8484,0.8426,0.8412,0.8456,0.8443,0.8447,0.8461,0.8627,0.8708,0.878,0.8927,0.915,0.915,0.9069,0.8912,0.8846,0.8703,0.8627,0.8627,0.8703,0.878,0.8927,0.9079,0.9311,0.9311,0.916,0.9008,0.8937,0.8941,0.9018,0.8937,0.8856,0.8932,0.9008,0.8998,0.8998,0.9003,-0.7574,-0.4524,-0.3203,-0.1871,-0.0534,0.0401,0.1202,0.2,0.2671,0.3744,0.461,0.4604,0.4276,0.3964,0.4151,0.4948,0.5606,0.6256,0.7102,0.7887,0.8094,0.8249,0.9093,1.0717,1.1339,1.1324,1.1031,1.0773,1.0892,1.0954,1.0892,1.0829,1.0975,1.0912,1.0724,1.0787,1.0787,1.0787,1.0787,1.078,1.0591,1.0218,0.997,0.997,1.0231,1.0421,1.0604,1.0667,1.0764,1.0832,1.0992,1.1111,1.1416,1.173,1.1992,1.2282,1.2551,1.2841,1.2976,1.2945,1.2945,1.2872,1.2879,1.2739,1.2606,1.2553,1.2271,1.2136,1.1738,1.1093,1.0783,1.0576,1.0363,1.0288,1.0207,1.0056,0.9981,0.9911,0.9927,0.9873,0.9884,0.9906,0.9932,0.9873,0.9906,0.9992,0.9986,1.0062,1.0056,1.0212,1.0438,1.0438,1.0357,1.0062,0.9771,0.9614,0.9614,0.969,0.9685,0.976,0.9911,1.0062,1.0062,0.976,0.9685,0.962,0.962,0.9544,0.9609,0.9604,0.969,0.969,0.9679,0.9599,0.9604]},{"header":{"parameterUnit":"m.s-1","parameterCategory":1,"la1":31.0,"la2":29.5877,"lo1":-88.7671,"lo2":-86.6584,"dy":0.0162,"dx":0.0185,"nx":115,"ny":88,"refTime":"2024-05-18T18:00:00:Z","depth":0,"parameterNumber":3,"parameterNumberName":"V-component_of_WINDS"},"data":[0.0,0.0,0.0,0.0,0.0,0.0,0.0,0.0,0.0,0.0,0.0,0.0,0.0,0.0,0.0,0.0,0.0,0.0,0.0,0.0,0.0,0.0,0.0,0.0,0.0,0.0,0.0,0.0,0.0,0.0,0.0,0.0,0.0,0.0,0.0,0.0,0.0,0.0,0.0,0.0,0.0,0.0,0.0,0.0,0.0,0.0,0.0,0.0,0.0,0.0,0.0,0.0,0.0,0.0,0.0,0.0,0.0,0.0,0.0,0.0,0.0,0.0,0.0,0.0,0.0,0.0,0.0,0.0,0.0,0.0,0.0,0.0,0.0,0.0,0.0,0.0,0.0,0.0,0.0,0.0,0.0,0.0,0.0,0.0,0.0,0.0,0.0,0.0,0.0,0.0,0.0,0.0,0.0,0.0,0.0,0.0,0.0,0.0,0.0,0.0,0.0,0.0,0.0,0.0,0.0,0.0,0.0,0.0,0.0,0.0,0.0,0.0,0.0,0.0,0.0,0.0,0.0,0.0,0.0,0.0,0.0,0.0,0.0,0.0,0.0,0.0,0.0,0.0,0.0,0.0,0.0,0.0,0.0,0.0,0.0,0.0,0.0,0.0,0.0,0.0,0.0,0.0,0.0,0.0,0.0,0.0,0.0,0.0,0.0,0.0,0.0,0.0,0.0,0.0,0.0,0.0,0.0,0.0,0.0,0.0,0.0,0.0,0.0,0.0,0.0,0.0,0.0,0.0,0.0,0.0,0.0,0.0,0.0,0.0,0.0,0.0,0.0,0.0,0.0,0.0,0.0,0.0,0.0,0.0,0.0,0.0,0.0,0.0,0.0,0.0,0.0,0.0,0.0,0.0,0.0,0.0,0.0,0.0,0.0,0.0,0.0,0.0,0.0,0.0,0.0,0.0,0.0,0.0,0.0,0.0,0.0,0.0,0.0,0.0,0.0,0.0,0.0,0.0,0.0,0.0,0.0,0.0,0.0,0.0,0.0,0.0,0.0,0.0,0.0,0.0,0.0,0.0,0.0,0.0,0.0,0.0,0.0,0.0,0.0,0.0,0.0,0.0,0.0,0.0,0.0,0.0,0.0,0.0,0.0,0.0,0.0,0.0,0.0,0.0,0.0,0.0,0.0,0.0,0.0,0.0,0.0,0.0,0.0,0.0,0.0,0.0,0.0,0.0,0.0,0.0,0.0,0.0,0.0,0.0,0.0,0.0,0.0,0.0,0.0,0.0,0.0,0.0,0.0,0.0,0.0,0.0,0.0,0.0,0.0,0.0,0.0,0.0,0.0,0.0,0.0,0.0,0.0,0.0,0.0,0.0,0.0,0.0,0.0,0.0,0.0,0.0,0.0,0.0,0.0,0.0,0.0,0.0,0.0,0.0,0.0,0.0,0.0,0.0,0.0,0.0,0.0,0.0,0.0,0.0,0.0,0.0,0.0,0.0,0.0,0.0,0.0,0.0,0.0,0.0,0.0,0.0,0.0,0.0,0.0,0.0,0.0,0.0,0.0,0.0,0.0,0.0,0.0,0.0,0.0,0.0,0.0,0.0,0.0,0.0,0.0,0.0,0.0,0.0,0.0,0.0,0.0,0.0,0.0,0.0,0.0,0.0,0.0,0.0,0.0,0.0,0.0,0.0,0.0,0.0,0.0,0.0,0.0,0.0,0.0,0.0,0.0,0.0,0.0,0.0,0.0,0.0,0.0,0.0,0.0,0.0,0.0,0.0,0.0,0.0,0.0,0.0,0.0,0.0,0.0,0.0,0.0,0.0,0.0,0.0,0.0,0.0,0.0,0.0,0.0,0.0,0.0,0.0,0.0,0.0,0.0,0.0,0.0,0.0,0.0,0.0,0.0,0.0,0.0,0.0,0.0,0.0,0.0,0.0,0.0,0.0,0.0,0.0,0.0,0.0,0.0,0.0,0.0,0.0,0.0,0.0,0.0,0.0,0.0,0.0,0.0,0.0,0.0,0.0,0.0,0.0,0.0,0.0,0.0,0.0,0.0,0.0,0.0,0.0,0.0,0.0,0.0,0.0,0.0,0.0,0.0,0.0,0.0,0.0,0.0,0.0,0.0,0.0,0.0,0.0,0.0,0.0,0.0,0.0,0.0,0.0,0.0,0.0,0.0,0.0,0.0,0.0,0.0,0.0,0.0,0.0,0.0,0.0,0.0,0.0,0.0,0.0,0.0,0.0,0.0,0.0,0.0,0.0,0.0,0.0,0.0,0.0,0.0,0.0,0.0,0.0,0.0,0.0,0.0,0.0,0.0,0.0,0.0,0.0,0.0,0.0,0.0,0.0,0.0,0.0,0.0,0.0,0.0,0.0,0.0,0.0,0.0,0.0,0.0,0.0,0.0,0.0,0.0,0.0,0.0,0.0,0.0,0.0,0.0,0.0,0.0,0.0,0.0,0.0,0.0,0.0,0.0,0.0,0.0,0.0,0.0,0.0,0.0,0.0,0.0,0.0,0.0,0.0,0.0,0.0,0.0,0.0,0.0,0.0,0.0,0.0,0.0,0.0,0.0,0.0,0.0,0.0,0.0,0.0,0.0,0.0,0.0,0.0,0.0,0.0,0.0,0.0,0.0,0.0,0.0,0.0,0.0,0.0,0.0,0.0,0.0,0.0,0.0,0.0,0.0,0.0,0.0,0.0,0.0,0.0,0.0,0.0,0.0,0.0,0.0,0.0,0.0,0.0,0.0,0.0,0.0,0.0,0.0,0.0,0.0,0.0,0.0,0.0,0.0,0.0,0.0,0.0,0.0,0.0,0.0,0.0,0.0,0.0,0.0,0.0,0.0,0.0,0.0,0.0,0.0,0.0,0.0,0.0,0.0,0.0,0.0,0.0,0.0,0.0,0.0,0.0,0.0,0.0,0.0,0.0,0.0,0.0,0.0,0.0,0.0,0.0,0.0,0.0,0.0,0.0,0.0,0.0,0.0,0.0,0.0,0.0,0.0,0.0,0.0,0.0,0.0,0.0,0.0,0.0,0.0,0.0,0.0,0.0,0.0,0.0,0.0,0.0,0.0,0.0,0.0,0.0,0.0,0.0,0.0,0.0,0.0,0.0,0.0,0.0,0.0,0.0,0.0,0.0,0.0,0.0,0.0,0.0,0.0,0.0,0.0,0.0,0.0,0.0,0.0,0.0,0.0,0.0,0.0,0.0,0.0,0.0,0.0,0.0,0.0,0.0,0.0,0.0,0.0,0.0,0.0,0.0,0.0,0.0,0.0,0.0,0.0,0.0,0.0,0.0,0.0,0.0,0.0,0.0,0.0,0.0,0.0,0.0,0.0,0.0,0.0,0.0,0.0,0.0,0.0,0.0,0.0,0.0,0.0,0.0,0.0,0.0,0.0,0.0,0.0,0.0,0.0,0.0,0.0,0.0,0.0,0.0,0.0,0.0,0.0,0.0,0.0,0.0,0.0,0.0,0.0,0.0,0.0,0.0,0.0,0.0,0.0,0.0,0.0,0.0,0.0,0.0,0.0,0.0,0.0,0.0,0.0,0.0,0.0,0.0,0.0,0.0,0.0,0.0,0.0,0.0,0.0,0.0,0.0,0.0,0.0,0.0,0.0,0.0,0.0,0.0,0.0,0.0,0.0,0.0,0.0,0.0,0.0,0.0,0.0,0.0,0.0,0.0,0.0,0.0,0.0,0.0,0.0,0.0,0.0,0.0,0.0,0.0,0.0,0.0,0.0,0.0,0.0,0.0,0.0,0.0,0.0,0.0,0.0,0.0,0.0,0.0,0.0,0.0,0.0,0.0,0.0,0.0,0.0,0.0,0.0,0.0,0.0,0.0,0.0,0.0,0.0,0.0,0.0,0.0,0.0,0.0,0.0,0.0,0.0,0.0,0.0,0.0,0.0,0.0,0.0,0.0,0.0,0.0,0.0,0.0,0.0,0.0,0.0,0.0,0.0,0.0,0.0,0.0,0.0,0.0,0.0,0.0,0.0,0.0,0.0,0.0,0.0,0.0,0.0,0.0,0.0,0.0,0.0,0.0,0.0,0.0,0.0,0.0,0.0,0.0,0.0,0.0,0.0,0.0,0.0,0.0,0.0,0.0,0.0,0.0,0.0,0.0,0.0,0.0,0.0,0.0,0.0,0.0,0.0,0.0,0.0,0.0,0.0,0.0,0.0,0.0,0.0,0.0,0.0,0.0,0.0,0.0,0.0,0.0,0.0,0.0,0.0,0.0,0.0,0.0,0.0,0.0,0.0,0.0,0.0,0.0,0.0,0.0,0.0,0.0,0.0,0.0,-0.4746,0.0,0.0,0.0,0.0,0.0,0.0,0.0,0.0,0.0,0.0,0.0,0.0,0.0,0.0,0.0,0.0,0.0,0.0,0.0,0.0,0.0,0.0,0.0,0.0,0.0,0.0,0.0,0.0,0.0,0.0,0.0,0.0,0.0,0.0,0.0,0.0,0.0,0.0,0.0,0.0,0.0,0.0,0.0,0.0,0.0,0.0,0.0,0.0,0.0,0.0,0.0,0.0,0.0,0.0,0.0,0.0,0.0,0.0,0.0,0.0,0.0,0.0,0.0,0.0,0.0,0.0,0.0,0.0,0.0,0.0,0.0,0.0,0.0,0.0,0.0,0.0,0.0,0.0,0.0,0.0,0.0,0.0,0.0,0.0,0.0,0.0,0.0,0.0,0.0,0.0,0.0,0.0,0.0,0.0,0.0,0.0,0.0,0.0,0.0,0.0,0.0,0.0,0.0,0.0,0.0,0.0,0.0,0.0,0.0,0.0,-0.3585,-0.3585,-0.3869,-0.42,-0.4688,0.0,0.0,0.0,0.0,0.0,0.0,0.0,0.0,0.0,0.0,0.0,0.0,0.0,0.0,0.0,0.0,0.0,0.0,0.0,0.0,0.0,0.0,0.0,0.0,0.0,0.0,0.0,0.0,0.0,0.0,0.0,0.0,0.0,0.0,0.0,0.0,0.0,0.0,0.0,0.0,0.0,0.0,0.0,0.0,0.0,0.0,0.0,0.0,0.0,0.0,0.0,0.0,0.0,0.0,0.0,0.0,0.0,0.0,0.0,0.0,0.0,0.0,0.0,0.0,0.0,0.0,0.0,0.0,0.0,0.0,0.0,0.0,0.0,0.0,0.0,0.0,0.0,0.0,0.0,0.0,0.0,0.0,0.0,0.0,0.0,0.0,0.0,0.0,0.0,0.0,0.0,0.0,0.0,0.0,0.0,0.0,0.0,0.0,0.0,0.0,0.0,0.0,0.0,0.0,0.0,0.0,0.0,0.0,0.0,0.0,0.0,0.0,-0.3978,-0.4366,-0.4904,0.0,0.0,0.0,0.0,0.0,0.0,0.0,0.0,0.0,0.0,0.0,0.0,0.0,0.0,0.0,0.0,0.0,0.0,0.0,0.0,0.0,0.0,0.0,0.0,0.0,0.0,0.0,0.0,0.0,0.0,0.0,0.0,0.0,0.0,0.0,0.0,0.0,0.0,0.0,0.0,0.0,0.0,0.0,0.0,0.0,0.0,0.0,0.0,0.0,0.0,0.0,0.0,0.0,0.0,0.0,0.0,0.0,0.0,0.0,0.0,0.0,0.0,0.0,0.0,0.0,0.0,0.0,0.0,0.0,0.0,0.0,0.0,0.0,0.0,0.0,0.0,0.0,0.0,0.0,0.0,0.0,0.0,0.0,0.0,0.0,0.0,0.0,0.0,0.0,0.0,0.0,0.0,0.0,0.0,0.0,0.0,0.0,0.0,0.0,0.0,0.0,0.0,0.0,0.0,0.0,0.0,0.0,0.0,0.0,0.0,-0.3965,-0.3968,-0.4311,0.0,-0.5496,0.0,0.0,0.0,0.0,0.0,0.0,0.0,0.0,0.0,0.0,0.0,0.0,0.0,0.0,0.0,0.0,0.0,0.0,0.0,0.0,0.0,0.0,0.0,0.0,0.0,0.0,0.0,0.0,0.0,0.0,0.0,0.0,0.0,0.0,0.0,0.0,0.0,0.0,0.0,0.0,0.0,0.0,0.0,0.0,0.0,0.0,0.0,0.0,0.0,0.0,0.0,0.0,0.0,0.0,0.0,0.0,0.0,0.0,0.0,0.0,0.0,0.0,0.0,0.0,0.0,0.0,0.0,0.0,0.0,0.0,0.0,0.0,0.0,0.0,0.0,0.0,0.0,0.0,0.0,0.0,0.0,0.0,0.0,0.0,0.0,0.0,0.0,0.0,0.0,0.0,0.0,0.0,0.0,0.0,0.0,0.0,0.0,0.0,0.0,0.0,0.0,0.0,0.0,0.0,0.0,0.0,0.0,0.0,0.0,0.0,0.0,-0.4021,-0.4463,-0.5062,0.0,0.0,0.0,0.0,0.0,0.0,0.0,0.0,0.0,0.0,0.0,0.0,0.0,0.0,0.0,0.0,0.0,0.0,0.0,0.0,0.0,0.0,0.0,0.0,0.0,0.0,0.0,0.0,0.0,0.0,0.0,0.0,0.0,0.0,0.0,0.0,0.0,0.0,0.0,0.0,0.0,0.0,0.0,0.0,0.0,0.0,0.0,0.0,0.0,0.0,0.0,0.0,0.0,0.0,0.0,0.0,0.0,0.0,0.0,0.0,0.0,0.0,0.0,0.0,0.0,0.0,0.0,0.0,0.0,0.0,0.0,0.0,0.0,0.0,0.0,0.0,0.0,0.0,0.0,0.0,0.0,0.0,0.0,0.0,0.0,0.0,0.0,0.0,0.0,0.0,0.0,0.0,0.0,0.0,0.0,0.0,0.0,0.0,0.0,0.0,0.0,0.0,0.0,0.0,0.0,0.0,0.0,0.0,0.0,0.0,-0.4298,0.0,-0.4408,-0.4794,-0.5281,-0.5928,0.0,0.0,0.0,0.0,0.0,0.0,0.0,0.0,0.0,0.0,0.0,0.0,0.0,0.0,0.0,0.0,0.0,0.0,0.0,0.0,0.0,0.0,0.0,0.0,0.0,0.0,0.0,0.0,0.0,0.0,0.0,0.0,0.0,0.0,0.0,0.0,0.0,0.0,0.0,0.0,0.0,0.0,0.0,0.0,0.0,0.0,0.0,0.0,0.0,0.0,0.0,0.0,0.0,0.0,0.0,0.0,0.0,0.0,0.0,0.0,0.0,0.0,0.0,0.0,0.0,0.0,0.0,0.0,0.0,0.0,0.0,0.0,0.0,0.0,0.0,0.0,0.0,0.0,0.0,0.0,0.0,0.0,0.0,0.0,0.0,0.0,0.0,0.0,0.0,0.0,0.0,0.0,0.0,0.0,0.0,0.0,0.0,0.0,0.0,0.0,0.0,0.0,0.0,0.0,0.0,0.0,0.0,0.0,0.0,-0.4842,-0.4959,-0.5187,-0.5301,-0.5572,0.0,0.0,0.0,0.0,0.0,0.0,0.0,0.0,0.0,0.0,0.0,0.0,0.0,0.0,0.0,0.0,0.0,0.0,0.0,0.0,0.0,0.0,0.0,0.0,0.0,0.0,0.0,0.0,0.0,0.0,0.0,0.0,0.0,0.0,0.0,0.0,0.0,0.0,0.0,0.0,0.0,0.0,0.0,0.0,0.0,0.0,0.0,0.0,0.0,0.0,0.0,0.0,0.0,0.0,0.0,0.0,0.0,0.0,0.0,0.0,0.0,0.0,0.0,0.0,0.0,0.0,0.0,0.0,0.0,0.0,0.0,0.0,0.0,0.0,0.0,0.0,0.0,0.0,0.0,0.0,0.0,0.0,0.0,0.0,0.0,0.0,0.0,0.0,0.0,0.0,0.0,0.0,0.0,0.0,0.0,0.0,0.0,0.0,0.0,0.0,0.0,0.0,0.0,0.0,0.0,0.0,0.0,0.0,0.0,-0.4901,-0.4959,-0.5128,-0.5301,-0.5572,-0.595,0.0,0.0,0.0,0.0,0.0,0.0,0.0,0.0,0.0,0.0,0.0,0.0,0.0,0.0,0.0,0.0,0.0,0.0,0.0,0.0,0.0,0.0,0.0,0.0,0.0,0.0,0.0,0.0,0.0,0.0,0.0,0.0,0.0,0.0,0.0,0.0,0.0,0.0,0.0,0.0,0.0,0.0,0.0,0.0,0.0,0.0,0.0,0.0,0.0,0.0,0.0,0.0,0.0,0.0,0.0,0.0,0.0,0.0,0.0,0.0,0.0,0.0,0.0,0.0,0.0,0.0,0.0,0.0,0.0,0.0,0.0,0.0,0.0,0.0,0.0,0.0,0.0,0.0,0.0,0.0,0.0,0.0,0.0,0.0,0.0,0.0,0.0,0.0,0.0,0.0,0.0,0.0,0.0,0.0,0.0,0.0,0.0,0.0,0.0,0.0,0.0,0.0,0.0,0.0,0.0,0.0,0.0,0.0,0.0,-0.5285,0.0,-0.5563,0.0,-0.6114,-0.6386,0.0,0.0,0.0,0.0,0.0,0.0,0.0,0.0,0.0,0.0,0.0,0.0,0.0,0.0,0.0,0.0,0.0,0.0,0.0,0.0,0.0,0.0,0.0,0.0,0.0,0.0,0.0,0.0,0.0,0.0,0.0,0.0,0.0,0.0,0.0,0.0,0.0,0.0,0.0,0.0,0.0,0.0,0.0,0.0,0.0,0.0,0.0,0.0,0.0,0.0,0.0,0.0,0.0,0.0,0.0,0.0,0.0,0.0,0.0,0.0,0.0,0.0,0.0,0.0,0.0,0.0,0.0,0.0,0.0,0.0,0.0,0.0,0.0,0.0,0.0,0.0,0.0,0.0,0.0,0.0,0.0,0.0,0.0,0.0,0.0,0.0,0.0,0.0,0.0,0.0,0.0,0.0,0.0,0.0,0.0,0.0,0.0,0.0,0.0,0.0,0.0,0.0,0.0,0.0,0.0,0.0,0.0,0.0,-0.6059,-0.6009,-0.6173,-0.646,-0.6712,-0.689,-0.7052,0.0,0.0,0.0,0.0,0.0,0.0,0.0,0.0,0.0,0.0,0.0,0.0,0.0,0.0,0.0,0.0,0.0,0.0,0.0,0.0,0.0,0.0,0.0,0.0,0.0,0.0,0.0,0.0,0.0,0.0,0.0,0.0,0.0,0.0,0.0,0.0,0.0,0.0,0.0,0.0,0.0,0.0,0.0,0.0,0.0,0.0,0.0,0.0,0.0,0.0,0.0,0.0,0.0,0.0,0.0,0.0,0.0,0.0,0.0,0.0,0.0,0.0,0.0,0.0,0.0,0.0,0.0,0.0,0.0,0.0,0.0,0.0,0.0,0.0,0.0,0.0,0.0,0.0,0.0,0.0,0.0,0.0,0.0,0.0,0.0,0.0,0.0,0.0,0.0,0.0,0.0,0.0,0.0,0.0,0.0,0.0,0.0,0.0,0.0,0.0,0.0,0.0,0.0,0.0,0.0,0.0,0.0,0.0,0.0,-0.7427,-0.7802,-0.8171,-0.8399,-0.8348,-0.8263,0.0,0.0,0.0,0.0,0.0,0.0,0.0,0.0,0.0,0.0,0.0,0.0,0.0,0.0,0.0,0.0,0.0,0.0,0.0,0.0,0.0,0.0,0.0,0.0,0.0,0.0,0.0,0.0,0.0,0.0,0.0,0.0,0.0,0.0,0.0,0.0,0.0,0.0,0.0,0.0,0.0,0.0,0.0,0.0,0.0,0.0,0.0,0.0,0.0,0.0,0.0,0.0,0.0,0.0,0.0,0.0,0.0,0.0,0.0,0.0,0.0,0.0,0.0,0.0,0.0,0.0,0.0,0.0,0.0,0.0,0.0,0.0,0.0,0.0,0.0,0.0,0.0,0.0,0.0,0.0,0.0,0.0,0.0,0.0,0.0,0.0,0.0,0.0,0.0,0.0,0.0,0.0,0.0,0.0,0.0,0.0,0.0,0.0,0.0,0.0,0.0,0.0,0.0,0.0,0.0,0.0,0.0,0.0,0.0,-1.0981,-1.0306,-1.0051,-1.0329,-1.01,-0.9791,-0.937,0.0,0.0,0.0,0.0,0.0,0.0,0.0,0.0,0.0,0.0,0.0,0.0,0.0,0.0,0.0,0.0,0.0,0.0,0.0,0.0,0.0,0.0,0.0,0.0,0.0,0.0,0.0,0.0,0.0,0.0,0.0,0.0,0.0,0.0,0.0,0.0,0.0,0.0,0.0,0.0,0.0,0.0,0.0,0.0,0.0,0.0,0.0,0.0,0.0,0.0,0.0,0.0,0.0,0.0,0.0,0.0,0.0,0.0,0.0,0.0,0.0,0.0,0.0,0.0,0.0,0.0,0.0,0.0,0.0,0.0,0.0,0.0,0.0,0.0,0.0,0.0,0.0,0.0,0.0,0.0,0.0,0.0,0.0,0.0,0.0,0.0,0.0,0.0,0.0,0.0,0.0,0.0,0.0,0.0,0.0,0.0,0.0,0.0,0.0,0.0,0.0,0.0,0.0,0.0,0.0,0.0,0.0,0.0,-1.631,-1.3673,-1.2379,-1.2494,-1.221,-1.1611,0.0,0.0,0.0,0.0,0.0,0.0,0.0,0.0,0.0,0.0,0.0,0.0,0.0,0.0,0.0,0.0,0.0,0.0,0.0,0.0,0.0,0.0,0.0,0.0,0.0,0.0,0.0,0.0,0.0,0.0,0.0,0.0,0.0,0.0,0.0,0.0,0.0,0.0,0.0,0.0,0.0,0.0,0.0,0.0,0.0,0.0,0.0,0.0,0.0,0.0,0.0,0.0,0.0,0.0,0.0,0.0,0.0,0.0,0.0,0.0,0.0,0.0,0.0,0.0,0.0,0.0,0.0,0.0,0.0,0.0,0.0,0.0,0.0,0.0,0.0,0.0,0.0,0.0,0.0,0.0,0.0,0.0,0.0,0.0,0.0,0.0,0.0,0.0,0.0,0.0,0.0,0.0,0.0,0.0,0.0,0.0,0.0,0.0,0.0,0.0,0.0,0.0,0.0,0.0,0.0,0.0,0.0,0.0,0.0,-2.0119,-1.9655,-1.8191,-1.5942,-1.4944,-1.3869,0.0,0.0,0.0,0.0,0.0,0.0,0.0,0.0,0.0,0.0,0.0,0.0,0.0,0.0,0.0,0.0,0.0,0.0,0.0,0.0,0.0,0.0,0.0,0.0,0.0,0.0,0.0,0.0,0.0,0.0,0.0,0.0,0.0,0.0,0.0,0.0,0.0,0.0,0.0,0.0,0.0,0.0,0.0,0.0,0.0,0.0,0.0,0.0,0.0,0.0,0.0,0.0,0.0,0.0,0.0,0.0,0.0,0.0,0.0,0.0,0.0,0.0,0.0,0.0,0.0,0.0,0.0,0.0,0.0,0.0,0.0,0.0,0.0,0.0,0.0,0.0,0.0,0.0,0.0,0.0,0.0,0.0,0.0,0.0,0.0,0.0,0.0,0.0,0.0,0.0,0.0,0.0,0.0,0.0,0.0,0.0,0.0,0.0,0.0,0.0,0.0,0.0,0.0,0.0,0.0,0.0,0.0,0.0,-2.1099,-2.349,-2.3719,-2.279,-2.072,-1.8412,-1.6464,0.0,0.0,0.0,0.0,0.0,0.0,0.0,0.0,0.0,0.0,0.0,0.0,0.0,0.0,0.0,0.0,0.0,0.0,0.0,0.0,0.0,0.0,0.0,0.0,0.0,0.0,0.0,0.0,0.0,0.0,0.0,0.0,0.0,0.0,0.0,0.0,0.0,0.0,0.0,0.0,0.0,0.0,0.0,0.0,0.0,0.0,0.0,0.0,0.0,0.0,0.0,0.0,0.0,0.0,0.0,0.0,0.0,0.0,0.0,0.0,0.0,0.0,0.0,0.0,0.0,0.0,0.0,0.0,0.0,0.0,0.0,0.0,0.0,0.0,0.0,0.0,0.0,0.0,0.0,0.0,0.0,0.0,0.0,0.0,0.0,0.0,0.0,0.0,0.0,0.0,0.0,0.0,0.0,0.0,0.0,0.0,0.0,0.0,0.0,0.0,0.0,0.0,0.0,0.0,0.0,0.0,0.0,0.0,-2.4235,-2.6144,-2.6464,-2.6325,-2.5723,-2.2144,-1.9269,0.0,0.0,0.0,0.0,0.0,0.0,0.0,0.0,0.0,0.0,0.0,0.0,0.0,0.0,0.0,0.0,0.0,0.0,0.0,0.0,0.0,0.0,0.0,0.0,0.0,0.0,0.0,0.0,0.0,0.0,0.0,0.0,0.0,0.0,0.0,0.0,0.0,0.0,0.0,0.0,0.0,0.0,0.0,0.0,0.0,0.0,0.0,0.0,0.0,0.0,0.0,0.0,0.0,0.0,0.0,0.0,0.0,0.0,0.0,0.0,0.0,0.0,0.0,0.0,0.0,0.0,0.0,0.0,0.0,0.0,0.0,0.0,0.0,0.0,0.0,0.0,0.0,0.0,0.0,0.0,0.0,0.0,0.0,0.0,0.0,0.0,0.0,0.0,0.0,0.0,0.0,0.0,0.0,0.0,0.0,0.0,0.0,0.0,0.0,0.0,0.0,0.0,0.0,0.0,0.0,0.0,0.0,0.0,-2.6433,-2.8131,-2.8388,-2.8267,-2.7781,-2.4443,-2.16,0.0,0.0,0.0,0.0,0.0,0.0,0.0,0.0,0.0,0.0,0.0,0.0,0.0,0.0,0.0,0.0,0.0,0.0,0.0,0.0,0.0,0.0,0.0,0.0,0.0,0.0,0.0,0.0,0.0,0.0,0.0,0.0,0.0,0.0,0.0,0.0,0.0,0.0,0.0,0.0,0.0,0.0,0.0,0.0,0.0,0.0,0.0,0.0,-1.8027,0.0,0.0,0.0,0.0,0.0,0.0,0.0,0.0,0.0,0.0,0.0,0.0,0.0,0.0,0.0,0.0,0.0,0.0,0.0,0.0,0.0,0.0,0.0,0.0,0.0,0.0,0.0,0.0,0.0,0.0,0.0,0.0,0.0,0.0,0.0,0.0,0.0,0.0,0.0,0.0,0.0,0.0,0.0,0.0,0.0,0.0,0.0,0.0,0.0,0.0,0.0,0.0,0.0,0.0,0.0,0.0,0.0,0.0,0.0,-2.8129,-2.924,-2.9457,-2.9387,-2.8936,-2.6921,-2.4546,0.0,0.0,0.0,0.0,0.0,0.0,0.0,0.0,0.0,0.0,0.0,0.0,0.0,0.0,0.0,0.0,0.0,0.0,0.0,0.0,0.0,0.0,0.0,0.0,0.0,0.0,0.0,0.0,0.0,0.0,0.0,0.0,0.0,0.0,0.0,0.0,0.0,0.0,0.0,0.0,0.0,0.0,0.0,0.0,0.0,0.0,0.0,0.0,0.0,0.0,0.0,0.0,0.0,0.0,0.0,0.0,0.0,0.0,0.0,0.0,0.0,0.0,0.0,0.0,0.0,0.0,0.0,0.0,0.0,0.0,0.0,0.0,0.0,0.0,0.0,0.0,0.0,0.0,0.0,0.0,0.0,0.0,0.0,0.0,0.0,0.0,0.0,0.0,0.0,0.0,0.0,0.0,0.0,0.0,0.0,0.0,0.0,0.0,0.0,0.0,0.0,0.0,0.0,0.0,0.0,0.0,0.0,-2.7471,-2.9247,-2.9718,-2.9944,-2.997,-2.9753,-2.9053,-2.7378,-2.4563,0.0,0.0,0.0,0.0,0.0,0.0,0.0,0.0,0.0,0.0,0.0,0.0,0.0,0.0,0.0,0.0,0.0,0.0,0.0,0.0,0.0,0.0,0.0,0.0,0.0,0.0,0.0,0.0,0.0,0.0,0.0,0.0,0.0,0.0,0.0,0.0,0.0,0.0,-1.6197,-1.7546,0.0,0.0,0.0,0.0,0.0,0.0,0.0,0.0,-2.2239,0.0,0.0,0.0,0.0,0.0,0.0,0.0,0.0,0.0,0.0,0.0,0.0,0.0,0.0,0.0,0.0,0.0,0.0,0.0,0.0,0.0,0.0,0.0,0.0,0.0,0.0,0.0,0.0,0.0,0.0,0.0,0.0,0.0,0.0,0.0,0.0,0.0,0.0,0.0,0.0,0.0,0.0,0.0,0.0,0.0,0.0,0.0,0.0,0.0,0.0,0.0,0.0,0.0,0.0,0.0,0.0,-2.5584,-2.7959,-2.9257,-2.9463,-2.9774,-2.9956,-3.0033,-2.9691,-2.8837,-2.7335,0.0,0.0,0.0,0.0,0.0,0.0,0.0,0.0,0.0,0.0,0.0,0.0,0.0,0.0,0.0,0.0,0.0,0.0,0.0,0.0,0.0,0.0,0.0,0.0,0.0,0.0,0.0,0.0,0.0,0.0,0.0,0.0,0.0,0.0,0.0,0.0,0.0,0.0,0.0,-1.9203,-2.0543,0.0,0.0,0.0,0.0,0.0,0.0,0.0,0.0,-2.4929,0.0,0.0,0.0,0.0,0.0,0.0,0.0,0.0,0.0,0.0,0.0,0.0,0.0,0.0,0.0,0.0,0.0,0.0,0.0,0.0,0.0,0.0,0.0,0.0,0.0,0.0,0.0,0.0,0.0,0.0,0.0,0.0,0.0,0.0,0.0,0.0,0.0,0.0,0.0,0.0,0.0,0.0,0.0,0.0,0.0,0.0,0.0,0.0,0.0,0.0,0.0,0.0,0.0,0.0,0.0,-2.6543,-2.8222,-2.8969,-2.8953,-2.9437,-2.9813,-3.0025,-2.9959,-2.9516,0.0,0.0,0.0,0.0,0.0,0.0,0.0,0.0,0.0,0.0,0.0,0.0,0.0,0.0,0.0,0.0,0.0,0.0,0.0,0.0,0.0,0.0,0.0,0.0,0.0,0.0,0.0,0.0,0.0,0.0,0.0,0.0,0.0,0.0,0.0,0.0,0.0,0.0,0.0,0.0,-2.1185,-2.2903,-2.4833,0.0,0.0,0.0,0.0,0.0,0.0,-2.7546,-2.7511,0.0,0.0,0.0,0.0,0.0,0.0,0.0,0.0,0.0,0.0,0.0,0.0,0.0,0.0,0.0,0.0,0.0,0.0,0.0,0.0,0.0,0.0,0.0,0.0,0.0,0.0,0.0,0.0,0.0,0.0,0.0,0.0,0.0,0.0,0.0,0.0,0.0,0.0,0.0,0.0,0.0,0.0,0.0,0.0,0.0,0.0,0.0,0.0,0.0,0.0,0.0,0.0,0.0,0.0,0.0,-2.7524,-2.8333,-2.8573,-2.846,-2.9098,-2.9626,-2.9993,-3.0099,-2.981,0.0,0.0,0.0,0.0,0.0,0.0,0.0,0.0,0.0,0.0,0.0,0.0,0.0,0.0,0.0,0.0,0.0,0.0,0.0,0.0,0.0,0.0,0.0,0.0,0.0,0.0,0.0,0.0,0.0,0.0,0.0,0.0,0.0,0.0,0.0,0.0,0.0,0.0,0.0,0.0,0.0,-2.5379,-2.7567,-2.8985,0.0,0.0,0.0,0.0,-3.0717,-3.0437,0.0,0.0,0.0,0.0,0.0,0.0,0.0,0.0,0.0,0.0,0.0,0.0,0.0,0.0,0.0,0.0,0.0,0.0,0.0,0.0,0.0,0.0,0.0,0.0,0.0,0.0,0.0,0.0,0.0,0.0,0.0,0.0,0.0,0.0,0.0,0.0,0.0,0.0,0.0,0.0,0.0,0.0,0.0,0.0,0.0,0.0,0.0,0.0,0.0,0.0,0.0,0.0,0.0,0.0,0.0,0.0,-2.8159,-2.825,-2.821,-2.8264,-2.8897,-2.9495,-3.0075,-3.0205,-2.9767,0.0,0.0,0.0,0.0,0.0,0.0,0.0,0.0,0.0,0.0,0.0,0.0,0.0,0.0,0.0,0.0,0.0,0.0,0.0,0.0,0.0,0.0,0.0,0.0,0.0,0.0,0.0,0.0,0.0,0.0,0.0,0.0,0.0,0.0,0.0,0.0,0.0,0.0,0.0,0.0,0.0,-2.7601,-3.0403,-3.2119,-3.3201,0.0,0.0,-3.4834,-3.4743,-3.396,0.0,0.0,0.0,0.0,0.0,0.0,0.0,0.0,0.0,0.0,0.0,0.0,0.0,0.0,0.0,0.0,0.0,0.0,0.0,0.0,0.0,0.0,0.0,0.0,0.0,0.0,0.0,0.0,0.0,0.0,0.0,0.0,0.0,0.0,0.0,0.0,0.0,0.0,0.0,0.0,0.0,0.0,0.0,0.0,0.0,0.0,0.0,0.0,0.0,0.0,0.0,0.0,0.0,0.0,0.0,-2.3689,-2.7922,-2.8161,-2.821,-2.8272,-2.8856,-2.9476,-3.0028,-3.0247,-2.9856,0.0,0.0,0.0,0.0,0.0,0.0,0.0,0.0,0.0,0.0,0.0,0.0,0.0,0.0,0.0,0.0,0.0,0.0,0.0,0.0,0.0,0.0,0.0,0.0,0.0,0.0,0.0,0.0,0.0,0.0,0.0,0.0,0.0,0.0,0.0,0.0,0.0,0.0,0.0,0.0,0.0,0.0,-3.2989,-3.4256,0.0,0.0,0.0,-3.6615,-3.6584,0.0,0.0,0.0,0.0,0.0,0.0,0.0,0.0,0.0,0.0,0.0,0.0,0.0,0.0,0.0,0.0,0.0,0.0,0.0,0.0,0.0,0.0,0.0,0.0,0.0,0.0,0.0,0.0,0.0,0.0,0.0,0.0,0.0,0.0,0.0,0.0,0.0,0.0,0.0,0.0,0.0,0.0,0.0,0.0,0.0,0.0,0.0,0.0,0.0,0.0,0.0,0.0,0.0,0.0,0.0,0.0,0.0,-2.7735,-2.8191,-2.8378,-2.8428,-2.8964,-2.9494,-3.0013,-3.0289,0.0,0.0,0.0,0.0,0.0,0.0,0.0,0.0,0.0,0.0,0.0,0.0,0.0,0.0,0.0,0.0,0.0,0.0,0.0,0.0,0.0,0.0,0.0,0.0,0.0,0.0,0.0,-1.0234,0.0,0.0,0.0,0.0,0.0,0.0,0.0,0.0,0.0,0.0,0.0,0.0,0.0,0.0,-3.1683,-3.4977,-3.5951,-3.6766,0.0,0.0,-3.8198,-3.8233,-3.7434,-3.6705,0.0,0.0,0.0,0.0,0.0,0.0,0.0,0.0,0.0,0.0,0.0,0.0,0.0,0.0,0.0,0.0,0.0,0.0,0.0,0.0,0.0,0.0,0.0,0.0,0.0,0.0,0.0,0.0,0.0,0.0,0.0,0.0,0.0,0.0,0.0,0.0,0.0,0.0,0.0,0.0,0.0,0.0,0.0,0.0,0.0,0.0,0.0,0.0,0.0,0.0,0.0,0.0,0.0,0.0,0.0,-2.7791,-2.8352,-2.8621,-2.87,-2.9135,-2.9622,-3.0073,-3.0366,-3.0073,0.0,0.0,0.0,0.0,0.0,0.0,0.0,0.0,0.0,0.0,0.0,0.0,0.0,0.0,0.0,0.0,0.0,0.0,0.0,0.0,0.0,0.0,0.0,0.0,0.0,0.0,0.0,0.0,0.0,0.0,0.0,0.0,0.0,0.0,0.0,0.0,0.0,0.0,0.0,0.0,0.0,-3.3478,-3.5961,-3.7205,-3.818,0.0,0.0,-4.0298,-4.0279,-3.9546,-3.8701,-3.7904,0.0,0.0,0.0,0.0,0.0,0.0,0.0,0.0,0.0,0.0,0.0,0.0,0.0,0.0,0.0,0.0,0.0,0.0,0.0,0.0,0.0,0.0,0.0,0.0,0.0,0.0,0.0,0.0,0.0,0.0,0.0,0.0,0.0,0.0,0.0,0.0,0.0,0.0,0.0,0.0,0.0,0.0,0.0,0.0,0.0,0.0,0.0,0.0,0.0,0.0,0.0,0.0,0.0,-2.6201,-2.7453,-2.8554,-2.9082,-2.9086,-2.9399,-2.9761,-3.0144,-3.0432,-3.016,0.0,0.0,0.0,0.0,0.0,0.0,0.0,0.0,0.0,0.0,0.0,0.0,0.0,0.0,0.0,0.0,0.0,0.0,0.0,0.0,0.0,0.0,0.0,0.0,0.0,0.0,0.0,0.0,-1.2224,-1.2613,-1.3623,0.0,0.0,0.0,0.0,0.0,0.0,0.0,0.0,0.0,0.0,-3.4281,-3.6843,-3.7521,0.0,0.0,-4.0005,-4.0198,-4.0207,-3.9482,-3.8684,-3.7912,-3.7072,0.0,0.0,0.0,0.0,0.0,0.0,0.0,0.0,0.0,0.0,0.0,0.0,0.0,0.0,0.0,0.0,0.0,0.0,0.0,0.0,0.0,0.0,0.0,0.0,0.0,0.0,0.0,0.0,0.0,0.0,0.0,0.0,0.0,0.0,0.0,0.0,0.0,0.0,0.0,0.0,0.0,0.0,0.0,0.0,0.0,0.0,0.0,0.0,0.0,0.0,0.0,0.0,-2.6967,-2.73,-2.8774,-2.9494,-2.9416,-2.9643,-2.9931,-3.0222,-3.0449,-3.0314,0.0,0.0,0.0,0.0,0.0,0.0,0.0,0.0,0.0,0.0,0.0,0.0,0.0,0.0,0.0,0.0,0.0,0.0,0.0,0.0,0.0,0.0,0.0,0.0,0.0,0.0,0.0,0.0,-1.3983,-1.4459,-1.5716,0.0,0.0,0.0,0.0,0.0,0.0,0.0,0.0,0.0,0.0,-3.4817,-3.7159,-3.7414,-3.791,-3.9499,-3.9724,-3.97,-3.9745,-3.9294,-3.8688,-3.7909,0.0,0.0,0.0,0.0,0.0,0.0,0.0,0.0,0.0,0.0,0.0,0.0,0.0,0.0,0.0,0.0,0.0,0.0,0.0,0.0,0.0,0.0,0.0,0.0,0.0,0.0,0.0,0.0,0.0,0.0,-2.1575,0.0,0.0,0.0,0.0,0.0,0.0,0.0,0.0,0.0,0.0,0.0,0.0,0.0,0.0,0.0,0.0,0.0,0.0,0.0,0.0,0.0,0.0,-2.7556,-2.7528,-2.9064,-2.982,-2.9696,-2.9888,-3.009,-3.0292,-3.0432,-3.0552,-3.0622,0.0,0.0,0.0,0.0,0.0,0.0,0.0,0.0,0.0,0.0,0.0,0.0,0.0,0.0,0.0,0.0,0.0,0.0,0.0,0.0,0.0,0.0,0.0,0.0,0.0,0.0,-1.5976,-1.6427,-1.696,0.0,0.0,0.0,0.0,0.0,0.0,0.0,0.0,0.0,0.0,-3.3433,-3.5155,-3.6752,-3.6838,-3.7268,-3.8864,-3.9072,-3.9054,-3.9192,-3.9234,-3.8995,0.0,0.0,0.0,0.0,0.0,0.0,0.0,0.0,0.0,0.0,0.0,0.0,0.0,0.0,0.0,0.0,0.0,0.0,0.0,0.0,0.0,0.0,0.0,0.0,0.0,0.0,0.0,-2.3745,-2.3885,0.0,0.0,0.0,0.0,0.0,0.0,0.0,0.0,0.0,0.0,0.0,-2.71,-2.6997,0.0,0.0,0.0,0.0,0.0,0.0,0.0,0.0,0.0,0.0,0.0,0.0,-2.7835,-2.7837,-2.9328,-3.0056,-2.9984,-3.0079,-3.0213,-3.0367,-3.0481,-3.0358,-2.9904,0.0,0.0,0.0,0.0,0.0,0.0,0.0,0.0,0.0,0.0,0.0,0.0,0.0,0.0,0.0,0.0,0.0,0.0,0.0,0.0,0.0,0.0,0.0,0.0,0.0,-1.7961,0.0,0.0,0.0,0.0,0.0,0.0,0.0,0.0,0.0,0.0,0.0,-3.2385,-3.1437,-3.2557,-3.4035,-3.5586,-3.5763,-3.6389,0.0,0.0,0.0,0.0,0.0,0.0,0.0,0.0,0.0,0.0,0.0,0.0,0.0,0.0,-3.6329,-3.6665,-3.6419,-3.6147,-3.6161,0.0,0.0,0.0,0.0,0.0,0.0,0.0,0.0,0.0,0.0,0.0,0.0,0.0,0.0,0.0,0.0,-2.5273,0.0,0.0,0.0,0.0,0.0,0.0,0.0,0.0,-2.7565,-2.7626,-2.7823,-2.7688,-2.7566,0.0,-2.71,-2.6608,0.0,0.0,0.0,0.0,0.0,0.0,0.0,0.0,-2.8489,-2.8481,-2.9648,-3.026,-3.0207,-3.0221,-3.0292,-3.0402,-3.0559,-3.0418,-2.9932,-2.957,-2.8747,0.0,0.0,0.0,0.0,0.0,0.0,0.0,0.0,0.0,0.0,0.0,0.0,0.0,0.0,0.0,0.0,0.0,0.0,0.0,0.0,0.0,0.0,0.0,-2.0588,0.0,0.0,0.0,0.0,0.0,0.0,0.0,0.0,0.0,-2.9786,-3.0983,-3.1512,-3.068,-3.1391,-3.261,-3.4234,0.0,0.0,0.0,0.0,0.0,0.0,0.0,-3.8354,-3.8774,-3.8303,-3.7875,-3.8022,-3.8071,-3.8062,-3.8024,0.0,0.0,-3.757,-3.7338,-3.7205,-3.7246,-3.6883,-3.6614,-3.6812,-3.6572,-3.6281,0.0,0.0,0.0,0.0,0.0,0.0,0.0,0.0,-2.6448,-2.6543,0.0,-2.6713,0.0,0.0,0.0,0.0,0.0,-2.7274,0.0,0.0,-2.8077,-2.8257,-2.869,-2.854,-2.8398,-2.8191,-2.7344,-2.6986,-2.7053,-2.6988,0.0,0.0,0.0,0.0,0.0,0.0,-2.9085,-2.9038,-2.9718,-3.0257,-3.039,-3.0316,-3.034,-3.0417,-3.0593,-3.0685,-3.0662,-2.9966,-2.947,-2.9289,-2.768,0.0,0.0,0.0,0.0,0.0,0.0,0.0,0.0,0.0,0.0,0.0,0.0,0.0,0.0,0.0,0.0,0.0,0.0,0.0,0.0,-2.3001,0.0,0.0,0.0,0.0,0.0,0.0,0.0,0.0,0.0,0.0,-2.9813,-3.0339,-3.044,-2.9813,0.0,0.0,0.0,0.0,-3.4096,-3.6145,-3.6689,-3.6995,-3.741,-3.7577,-3.7918,-3.8558,0.0,0.0,-3.9392,-4.0033,-4.0381,-4.0454,-4.0203,-3.9766,-3.8132,-3.769,-3.7482,-3.7466,-3.7016,-3.6644,-3.6748,-3.6984,-3.6789,-2.4441,0.0,0.0,0.0,0.0,-2.5651,-2.6,-2.6131,-2.6291,-2.6449,-2.6593,-2.6169,0.0,0.0,0.0,0.0,0.0,0.0,-2.7725,-2.8323,-2.7968,-2.7757,-2.7644,-2.7274,-2.7052,-2.693,-2.655,-2.6447,-2.6675,-2.673,-2.6516,-2.6019,0.0,0.0,0.0,0.0,-2.05,-2.3915,-2.4764,-2.6825,-3.0404,-3.0409,-3.0398,-3.046,-3.0632,-3.0704,-3.0706,-3.0534,-3.0115,-2.9467,-2.8688,0.0,0.0,0.0,0.0,0.0,0.0,0.0,0.0,0.0,0.0,0.0,0.0,0.0,0.0,0.0,0.0,0.0,0.0,0.0,-2.4689,-2.5347,-2.5932,0.0,0.0,0.0,0.0,0.0,0.0,0.0,0.0,0.0,-2.9519,-2.9504,-2.9304,0.0,0.0,-3.0331,-3.182,-3.2481,-3.3452,-3.5121,0.0,0.0,0.0,-3.7126,-3.7427,-3.7864,-3.8672,-3.9337,-3.973,-3.9944,-4.005,-3.9955,-3.9839,-3.9768,-3.9774,-3.9389,-3.9013,-3.8706,-3.7931,-3.7514,-3.7978,-3.8096,-3.8051,-2.2998,-2.3326,-2.3996,-2.4298,-2.4427,-2.5075,-2.5407,-2.5505,-2.5811,-2.6048,-2.6217,-2.5901,-2.576,-2.5711,-2.5958,0.0,0.0,0.0,-2.7374,-2.7621,-2.7199,-2.6816,-2.6455,-2.6027,-2.5776,-2.5684,-2.5591,-2.5664,-2.5865,-2.6025,-2.5978,-2.5642,0.0,0.0,-2.0317,-2.0022,-2.0852,-2.2869,-2.4928,-2.7475,-3.0461,-3.0472,-3.046,-3.05,-3.0615,-3.0683,-3.0703,-3.0759,-3.0545,-3.0038,-2.9804,-2.8905,0.0,0.0,0.0,0.0,0.0,0.0,0.0,0.0,0.0,0.0,0.0,-1.9988,-2.0976,0.0,0.0,0.0,-2.532,-2.6522,-2.7397,-2.8208,0.0,0.0,0.0,0.0,0.0,0.0,0.0,-3.0321,-3.0137,-2.9793,-2.9195,-2.8903,-2.856,-2.8017,-2.839,-2.9226,-3.0652,0.0,-3.2501,-3.4088,-3.4891,-3.5599,-3.6148,-3.6568,-3.7036,-3.7757,-3.9295,-4.0299,-4.0237,-4.0446,-4.0618,-4.0477,-4.0369,-4.0443,-4.0745,-4.0541,-4.0299,-4.0147,-3.954,-3.9168,-3.9533,-3.9188,-3.8842,-2.1609,-2.1913,-2.3299,-2.3953,-2.4157,-2.4405,-2.4516,-2.4611,-2.507,-2.5352,-2.5591,-2.5865,-2.5747,-2.5392,-2.5692,0.0,-2.6985,-2.6863,-2.6702,-2.6353,-2.596,-2.5528,-2.5166,-2.4808,-2.4585,-2.4502,-2.4552,-2.4672,-2.4823,-2.502,-2.5114,-2.516,-2.5912,-2.4445,-2.1212,-2.4954,-2.6075,-2.4034,-2.7915,-3.0218,-3.0593,-3.053,-3.0491,-3.0481,-3.0567,-3.0634,-3.0698,-3.0759,-3.0786,-3.079,-3.0876,-3.0086,-2.8314,0.0,0.0,0.0,0.0,0.0,0.0,0.0,0.0,0.0,0.0,0.0,0.0,0.0,0.0,0.0,-2.828,0.0,-3.0158,-3.1149,0.0,0.0,0.0,-3.2036,-3.1922,-3.1531,-3.1203,-3.0999,0.0,0.0,-2.8985,0.0,-2.8264,-2.7947,-2.767,-2.8057,-2.961,-3.0496,-3.1489,-3.314,-3.402,-3.4754,-3.5492,-3.601,-3.6849,-3.8327,-4.0223,-4.1273,-4.0972,-4.1258,-4.1683,-4.1499,-4.1453,-4.1255,-4.114,-4.1007,-4.1169,-4.142,-4.1208,-4.1006,-4.0815,-4.0132,-3.9396,-2.061,-2.0795,-2.1266,-2.189,-2.2639,-2.2788,-2.3025,-2.3362,-2.3691,-2.4127,-2.448,-2.4721,-2.4946,-2.5167,-2.5261,-2.5504,-2.5796,-2.563,-2.5473,-2.5309,-2.4713,-2.4346,-2.4059,-2.3679,-2.3478,-2.3465,-2.3595,-2.3852,-2.4219,-2.4313,-2.441,-2.4533,-2.4349,-2.2499,-1.9128,-1.772,-1.8661,-2.1899,-2.3822,-2.6695,-3.0365,-3.0519,-3.049,-3.049,-3.0568,-3.0637,-3.0697,-3.0755,-3.0799,-3.0788,-3.0857,-3.0365,-2.921,-2.7853,0.0,0.0,0.0,0.0,0.0,0.0,0.0,0.0,0.0,-2.4522,-2.5466,0.0,-2.7007,0.0,-3.054,-3.1661,-3.1889,-3.2199,0.0,0.0,-3.2106,-3.1766,-3.1374,-3.1157,-3.0978,-3.0737,-2.995,-2.956,-2.9937,-2.9319,-2.8824,-2.8918,-2.8664,-2.8858,-2.9872,-3.0588,-3.1384,-3.2594,-3.3423,-3.4102,-3.4947,-3.5774,-3.7189,-3.9468,-4.084,-4.1542,-4.1446,-4.1437,-4.1471,-4.13,-4.1244,-4.114,-4.0982,-4.0935,-4.0982,-4.1041,-4.1007,-4.0926,-4.0903,-4.0573,-4.0277,-2.0016,-2.0156,-2.0207,-2.0696,-2.1444,-2.1684,-2.2002,-2.2328,-2.2709,-2.3039,-2.342,-2.3664,-2.3945,-2.4246,-2.4327,-2.4424,-2.461,-2.446,-2.4367,-2.4163,-2.3747,-2.339,-2.3143,-2.2859,-2.2723,-2.2768,-2.2994,-2.3348,-2.3739,-2.3994,-2.4162,-2.4302,-2.4036,-2.292,-2.1013,-1.968,-1.9952,-2.1698,-2.4753,-2.7638,-3.0332,-3.0499,-3.049,-3.049,-3.0559,-3.0629,-3.071,-3.0755,-3.0784,-3.0788,-3.0873,-3.043,-2.9389,-2.8647,-2.7818,0.0,0.0,0.0,0.0,0.0,0.0,0.0,0.0,0.0,0.0,0.0,-2.9295,-3.0976,-3.2322,-3.3109,-3.317,-3.3459,-3.3518,-3.3307,-3.2883,-3.2488,-3.222,-3.1841,-3.1554,-3.1358,-3.0731,-3.0401,-3.0579,-3.0321,-3.0087,-2.9997,-2.9718,-2.967,-3.0068,-3.0598,-3.1364,-3.2272,-3.3087,-3.3899,-3.4853,-3.692,-3.8687,-3.9718,-4.0732,-4.1443,-4.1408,-4.1363,-4.1255,-4.1198,-4.1123,-4.1047,-4.0918,-4.0871,-4.0871,-4.0871,-4.0871,-4.0871,-4.0871,-4.0806,-4.071,-1.9656,-1.9798,-1.9798,-2.008,-2.0524,-2.0947,-2.1277,-2.1554,-2.1949,-2.2203,-2.2466,-2.277,-2.2995,-2.3084,-2.3231,-2.3319,-2.345,-2.3468,-2.3305,-2.3094,-2.2853,-2.263,-2.2417,-2.2217,-2.2231,-2.237,-2.2723,-2.3054,-2.3406,-2.3867,-2.4162,-2.4343,-2.4343,-2.4395,-2.4409,-2.5464,-2.5107,-2.3425,-2.7977,-3.0364,-3.0383,-3.0428,-3.0488,-3.0479,-3.0559,-3.061,-3.069,-3.0753,-3.0802,-3.0796,-3.0852,-3.0409,-2.9394,-2.9429,-2.8962,0.0,-2.7897,0.0,0.0,0.0,0.0,0.0,0.0,0.0,0.0,-3.0524,-3.1732,-3.2886,-3.3749,-3.4237,-3.4265,-3.4606,-3.4734,-3.4454,-3.388,-3.349,-3.3365,-3.2824,-3.2378,-3.2171,-3.1772,-3.1358,-3.1204,-3.1524,-3.1541,-3.1073,-3.0807,-3.0644,-3.0478,-3.0777,-3.1364,-3.2135,-3.298,-3.3933,-3.5379,-3.8346,-4.0383,-3.9853,-4.0476,-4.1157,-4.1226,-4.1226,-4.118,-4.114,-4.1093,-4.1047,-4.0935,-4.0918,-4.0901,-4.0884,-4.0931,-4.0918,-4.0918,-4.0888,-4.0823,-1.9565,-1.9798,-1.9926,-2.0144,-2.0511,-2.0636,-2.0921,-2.1277,-2.1458,-2.1746,-2.2123,-2.2263,-2.2434,-2.254,-2.2586,-2.2632,-2.2711,-2.2642,-2.2598,-2.255,-2.2175,-2.1979,-2.1955,-2.1888,-2.1935,-2.2091,-2.2526,-2.2965,-2.3406,-2.3824,-2.4193,-2.4549,-2.4719,-2.4926,-2.5281,0.0,0.0,0.0,-2.9482,-3.0122,-3.024,-3.0311,-3.0364,-3.0428,-3.0492,0.0,-3.069,-3.0773,-3.0798,-3.0791,-3.0868,0.0,0.0,0.0,0.0,0.0,0.0,0.0,0.0,0.0,0.0,0.0,-3.1132,-3.1046,-3.1093,-3.2586,-3.3643,-3.3848,-3.4555,-3.5175,-3.5577,-3.4868,-3.4498,-3.4676,-3.4045,-3.3191,-3.2227,-3.2479,-3.2602,-3.1992,-3.1547,-3.1565,-3.2322,-3.2741,-3.2628,-3.1992,-3.1849,-3.1792,-3.1781,-3.161,-3.1652,-3.2272,-3.314,-3.4316,-3.6067,-3.8431,-4.01,-4.0528,-4.0764,-4.1036,-4.1163,-4.1152,-4.114,-4.1111,-4.1,-4.1,-4.1047,-4.0977,-4.0908,-4.0897,-4.103,-4.1088,-4.0918,-4.0871,-4.0871,-1.9604,0.0,-2.0029,-2.0233,0.0,-2.0573,-2.0822,-2.1229,-2.1277,-2.1471,-2.1712,-2.1746,-2.1888,-2.1996,-2.1996,-2.2077,-2.2156,-2.2118,-2.2104,-2.21,-2.1896,-2.1801,-2.1779,-2.1841,-2.1983,-2.2231,-2.2663,-2.3113,-2.3595,-2.4094,-2.4508,-2.4855,-2.5208,-2.5572,-2.5924,-2.6821,-2.7969,-2.9305,-2.9657,-2.9931,-3.0109,-3.0215,-3.0336,-3.0398,0.0,0.0,0.0,0.0,0.0,0.0,0.0,0.0,0.0,0.0,0.0,-3.0891,-3.0388,-3.0414,-3.1135,-3.1193,-3.154,-3.2325,-3.2701,-3.287,-3.2849,-3.3616,-3.438,-3.5078,-3.5438,-3.5644,-3.5748,-3.5128,-3.4534,-3.4087,-3.343,-3.2757,-3.2352,-3.2398,-3.258,-3.2777,-3.2708,-3.2832,-3.3308,-3.3641,-3.3583,-3.2888,-3.2734,-3.2749,-3.2765,-3.2382,-3.2312,-3.3071,-3.359,-3.43,-3.5554,-3.6835,-3.8726,-4.0233,-4.0908,-4.096,-4.1041,-4.1012,-4.1047,-4.1064,-4.1047,-4.1029,-4.1105,-4.1134,-4.1117,-4.1024,-4.0746,-4.0422,-4.0233,-4.0597,-4.1041,-1.9708,-1.9901,-2.0182,-2.0422,-2.0623,-2.0723,-2.0921,-2.1277,0.0,0.0,0.0,-2.141,-2.1471,-2.1568,-2.1554,-2.1664,-2.1759,-2.1759,-2.1773,-2.1787,-2.1827,-2.1846,-2.1846,-2.2016,-2.2217,-2.2495,-2.2934,-2.3436,-2.3909,-2.441,-2.4871,-2.5208,-2.5717,-2.6189,-2.659,-2.7589,-2.8368,-2.8929,-2.9436,-2.9769,-2.9981,-3.0161,-3.0311,-3.0375,-3.046,-3.0568,-3.0673,-3.0711,-3.0739,-3.0798,-3.0794,-3.0876,-3.1008,-3.1023,-3.1468,-3.2431,-3.2335,-3.2464,-3.3045,-3.3062,-3.3095,-3.3138,-3.3758,-3.4146,-3.4125,-3.4129,-3.4697,-3.6026,-3.5891,-3.5719,-3.5763,-3.5203,-3.4504,-3.3622,-3.2995,-3.2687,-3.2631,-3.2559,-3.2672,-3.3247,-3.3796,-3.4118,-3.3907,-3.4297,-3.4443,-3.3813,-3.3646,-3.3646,-3.3543,-3.323,-3.3177,-3.3968,-3.4186,-3.4376,-3.4971,-3.5555,-3.7022,-3.9991,-4.0758,-4.0965,-4.0935,-4.0918,-4.1012,-4.1123,-4.1123,-4.1152,-4.1209,-4.1115,-4.1168,-4.123,-4.0418,-3.9546,-3.9145,-3.9849,-4.06,-1.9811,-2.0182,-2.0409,-2.0699,-2.0888,-2.1046,-2.1264,-2.1506,-2.141,-2.1361,-2.141,-2.141,-2.1423,-2.1423,-2.141,-2.152,-2.1616,-2.1622,-2.1677,0.0,-2.1904,-2.1963,-2.1978,-2.2331,-2.2646,-2.2844,-2.329,-2.3782,-2.4219,-2.4639,-2.5098,-2.5626,-2.603,-2.6691,-2.756,-2.8147,-2.8626,-2.9048,-2.9358,-2.9644,-2.991,-3.0109,-3.0241,-3.0316,-3.0449,-3.053,-3.061,-3.0671,-3.0736,-3.0789,-3.0804,-3.114,-3.1856,-3.1868,-3.2208,-3.2997,-3.304,-3.3026,-3.3032,-3.2952,-3.3152,-3.3672,-3.4353,-3.4524,-3.3941,-3.4376,-3.5019,-3.5824,-3.5221,-3.5147,-3.6152,-3.4998,-3.4183,-3.4292,-3.3862,-3.3178,-3.2299,-3.287,-3.3042,-3.2386,-3.3734,-3.4447,-3.4027,-3.4589,-3.5018,-3.4643,-3.4464,-3.448,-3.4431,-3.4184,-3.4084,-3.4464,-3.4537,-3.4768,-3.534,-3.5898,-3.712,-3.9215,-4.0412,-4.0909,-4.0886,-4.0915,-4.0943,-4.1128,-4.1007,-4.115,-4.1241,-4.0603,-4.0578,-4.1051,-4.027,-3.9038,-3.7843,-3.8328,-3.9023,-2.0131,-2.0422,-2.0723,-2.0934,-2.1207,-2.1423,-2.1616,-2.1712,-2.165,-2.1602,-2.1575,-2.1602,-2.1589,-2.1575,-2.1602,-2.1712,-2.1793,-2.1841,-2.1924,-2.211,-2.2271,-2.239,-2.2526,-2.2877,-2.3157,-2.3436,-2.3882,-2.4287,-2.4639,-2.5075,-2.5535,-2.603,-2.6657,-2.7348,-2.8055,-2.8474,-2.8821,-2.916,-2.9375,-2.9626,-2.9895,-3.0079,-3.0234,-3.0367,-3.0439,-3.054,-3.0602,-3.0668,-3.0937,-3.1417,-3.1442,-3.1837,-3.2688,-3.2706,-3.3017,-3.3788,-3.378,-3.3925,-3.4295,-3.4184,-3.4184,-3.4375,-3.468,-3.4698,-3.432,-3.4564,-3.5047,-3.5702,-3.5423,-3.5435,-3.5903,-3.509,-3.444,-3.4095,-3.3607,-3.306,-3.2475,-3.2558,-3.2702,-3.2457,-3.2662,-3.3203,-3.4124,-3.5071,-3.5559,-3.5258,-3.5211,-3.5211,-3.5211,-3.5102,-3.5008,-3.5085,-3.5119,-3.5296,-3.5793,-3.6085,-3.6972,-3.8468,-3.9363,-3.9859,-3.9919,-3.9964,-3.9991,-4.0062,-4.0123,-4.0211,-4.0393,-4.0032,-3.9993,-3.9999,-3.967,-3.8508,-3.7591,-3.7562,-3.8076,-2.0372,-2.0646,-2.097,-2.1264,-2.1568,-2.1793,-2.1888,-2.1935,-2.1983,-2.1921,-2.1846,-2.1827,-2.1779,-2.1766,-2.1841,-2.1935,-2.2123,-2.2114,-2.2273,-2.2564,-2.2725,-2.2893,-2.3108,-2.3417,-2.3724,-2.4009,-2.4441,-2.4791,-2.5075,-2.5497,-2.5977,-2.6573,-2.7365,-2.7961,-2.8406,-2.8718,-2.8989,-2.9251,-2.9472,-2.9701,-2.991,-3.0113,-3.0266,-3.0398,-3.0458,-3.055,-3.0585,-3.0657,-3.0991,-3.163,-3.1669,-3.2166,-3.3149,-3.3216,-3.3626,-3.4524,-3.455,-3.4743,-3.5273,-3.5196,-3.5038,-3.4908,-3.4849,-3.4788,-3.4727,-3.4687,-3.4961,-3.5572,-3.5586,-3.5509,-3.5428,-3.5095,-3.4604,-3.3716,-3.3327,-3.3042,-3.2719,-3.2404,-3.2336,-3.2513,-3.1914,-3.223,-3.3894,-3.5369,-3.6019,-3.58,-3.5756,-3.5739,-3.5783,-3.5888,-3.5861,-3.5739,-3.5732,-3.583,-3.6156,-3.6225,-3.6801,-3.7853,-3.826,-3.8686,-3.892,-3.9085,-3.9076,-3.9308,-3.9375,-3.9529,-3.9564,-3.9393,-3.9381,-3.9438,-3.8907,-3.8143,-3.7549,-3.7358,-3.7574,-2.0422,-2.0795,-2.1215,-2.1616,-2.1935,-2.2091,-2.2217,-2.237,-2.2477,-2.248,-2.2285,-2.1955,-2.1902,-2.1983,-2.1996,-2.217,-2.2509,-2.2572,-2.2718,-2.3059,-2.326,-2.3423,-2.3614,-2.3998,-2.4317,-2.4498,-2.4871,-2.5208,-2.5551,-2.5905,-2.6488,-2.7286,-2.7915,-2.838,-2.8669,-2.8998,-2.9267,-2.9472,-2.9664,-2.9841,-3.0007,-3.0185,-3.0337,-3.0398,-3.0469,-3.053,-3.0588,-3.0615,-3.0651,-3.0707,-3.0793,-3.1474,-3.2909,-3.3113,-3.3826,-3.5307,-3.5393,-3.534,-3.5223,-3.5162,-3.5057,-3.4927,-3.4888,-3.4848,-3.4708,-3.4649,-3.4886,-3.5375,-3.4941,-3.4814,-3.5312,-3.4735,-3.4164,-3.3862,-3.3587,-3.3345,-3.3086,-3.2752,-3.2507,-3.2354,-3.2175,-3.2334,-3.336,-3.5151,-3.6381,-3.6138,-3.6182,-3.6216,-3.6259,-3.6318,-3.6402,-3.636,-3.6301,-3.6284,-3.6426,-3.6347,-3.6776,-3.7589,-3.7485,-3.7829,-3.8625,-3.9135,-3.9435,-3.8994,-3.934,-3.9345,-3.9257,-3.9138,-3.8823,-3.9011,-3.8422,-3.7529,-3.7491,-3.7458,-3.7509,-2.0885,-2.1202,-2.1602,-2.1935,-2.2231,-2.237,-2.2495,-2.2586,-2.2618,-2.2663,-2.268,-2.2512,-2.2463,-2.2413,-2.2402,-2.2572,-2.2918,-2.3009,-2.326,-2.3585,-2.3797,-2.4056,-2.4335,-2.4618,-2.491,-2.5146,-2.5454,-2.5733,-2.6049,-2.6573,-2.7175,-2.7736,-2.8264,-2.8601,-2.8887,-2.9181,-2.9433,-2.9608,-2.9841,-3.0038,-3.0171,-3.0253,-3.033,-3.0414,-3.0519,-3.0559,-3.0595,-3.0613,-3.0834,-3.1305,-3.1357,-3.1893,-3.3035,-3.3545,-3.4098,-3.4757,-3.5166,-3.5335,-3.519,-3.5162,-3.5092,-3.4964,-3.4927,-3.4869,-3.4809,-3.4769,-3.4858,-3.498,-3.4664,-3.4573,-3.4782,-3.4426,-3.4099,-3.3991,-3.378,-3.3559,-3.3415,-3.3117,-3.2848,-3.2752,-3.2558,-3.2634,-3.3475,-3.4996,-3.6025,-3.608,-3.6359,-3.6713,-3.6731,-3.6771,-3.6811,-3.6834,-3.6776,-3.6753,-3.6731,-3.6736,-3.6956,-3.7206,-3.7303,-3.7651,-3.7919,-3.8153,-3.8196,-3.8306,-3.8398,-3.8457,-3.8338,-3.8287,-3.811,-3.8327,-3.8346,-3.7703,-3.7774,-3.7739,-3.7649,-2.1277,-2.1616,-2.203,-2.2356,-2.2586,-2.2692,-2.2768,-2.283,-2.2844,-2.2934,-2.2979,-2.2979,-2.2978,-2.2917,-2.2859,-2.3008,-2.3319,-2.348,-2.3803,-2.413,-2.4441,-2.4721,-2.5003,-2.5255,-2.5476,-2.5738,-2.599,-2.626,-2.6641,-2.7224,-2.7736,-2.8138,-2.85,-2.8815,-2.9071,-2.931,-2.9551,-2.9734,-2.9972,-3.0171,-3.0324,-3.0343,-3.0371,-3.0449,-3.054,-3.0615,-3.0602,-3.0621,-3.0881,-3.1499,-3.1562,-3.1913,-3.2676,-3.3299,-3.3754,-3.4186,-3.4913,-3.5285,-3.5226,-3.5215,-3.5164,-3.5056,-3.4983,-3.4927,-3.4907,-3.4849,-3.4788,-3.4745,-3.4645,-3.4558,-3.4427,-3.4316,-3.4221,-3.4167,-3.3947,-3.378,-3.3698,-3.3426,-3.3238,-3.3208,-3.2943,-3.2933,-3.363,-3.4818,-3.5772,-3.6072,-3.6708,-3.7185,-3.7203,-3.7164,-3.7203,-3.7223,-3.7223,-3.7147,-3.697,-3.7027,-3.7087,-3.7182,-3.7329,-3.7441,-3.7372,-3.7427,-3.7465,-3.8003,-3.7628,-3.7593,-3.7953,-3.7864,-3.781,-3.7755,-3.7861,-3.8039,-3.8111,-3.8074,-3.802,-2.1602,-2.203,-2.2495,-2.283,-2.3068,-2.3083,-2.3127,-2.326,-2.326,-2.326,-2.3304,-2.3319,-2.3363,-2.3466,-2.3363,-2.3437,-2.3761,-2.397,-2.4334,-2.4756,-2.5044,-2.5314,-2.5579,-2.5859,-2.5994,-2.6104,-2.6418,-2.6808,-2.7317,-2.7765,-2.8138,-2.8492,-2.8767,-2.9021,-2.9262,-2.9412,-2.9589,-2.9801,-3.0015,-3.0194,-3.0398,-3.0469,-3.052,-3.0588,-3.0595,-3.0602,-3.0602,-3.0613,-3.0643,-3.0662,-3.0732,-3.1072,-3.1757,-3.1899,-3.2632,-3.398,-3.4918,-3.5354,-3.5312,-3.5226,-3.5196,-3.5181,-3.5075,-3.4983,-3.4946,-3.4907,-3.4868,-3.4807,-3.4788,-3.4687,-3.4539,-3.445,-3.4381,-3.4293,-3.4154,-3.4049,-3.3954,-3.3734,-3.3605,-3.353,-3.3302,-3.3237,-3.3458,-3.4637,-3.5605,-3.6305,-3.7112,-3.7578,-3.7542,-3.7542,-3.7613,-3.7577,-3.7577,-3.7503,-3.7334,-3.7314,-3.7314,-3.7408,-3.75,-3.7591,-3.763,-3.7649,-3.7739,-3.781,-3.781,-3.781,-3.7881,-3.7915,-3.7946,-3.8047,-3.8274,-3.8416,-3.8554,-3.846,-3.8387,-2.2263,-2.2814,-2.2994,-2.3201,-2.3421,-2.3421,-2.348,-2.361,-2.3625,-2.3668,-2.3754,-2.3754,-2.3797,-2.3867,-2.3925,-2.4016,-2.4109,-2.4446,-2.4854,-2.533,-2.5578,-2.5859,-2.6098,-2.6317,-2.6504,-2.6674,-2.6825,-2.721,-2.7765,-2.8138,-2.8474,-2.8743,-2.9021,-2.9243,-2.9431,-2.9589,-2.977,-2.9969,-3.0138,-3.0286,-3.0447,-3.054,-3.0604,-3.0649,-3.0657,-3.0645,-3.0665,-3.0684,-3.0649,-3.0621,-3.0615,-3.0704,-3.1042,-3.1973,-3.2998,-3.4077,-3.4927,-3.5383,-3.5369,-3.5308,-3.5245,-3.5212,-3.5164,-3.5092,-3.502,-3.4983,-3.4927,-3.4888,-3.4868,-3.4788,-3.4727,-3.4602,-3.4476,-3.4409,-3.4316,-3.4221,-3.4154,-3.3979,-3.3842,-3.3815,-3.3652,-3.3575,-3.388,-3.4522,-3.5054,-3.5434,-3.6472,-3.7196,-3.7413,-3.7739,-3.805,-3.807,-3.807,-3.8052,-3.7967,-3.7685,-3.7594,-3.7685,-3.7739,-3.7793,-3.7828,-3.7846,-3.7934,-3.8002,-3.802,-3.807,-3.8119,-3.8194,-3.8186,-3.8008,-3.8266,-3.845,-3.9081,-3.8504,-3.8486,-2.2934,-2.3494,-2.3538,-2.361,-2.3824,-2.3824,-2.3867,-2.3967,-2.3952,-2.4009,-2.4109,-2.4109,-2.4135,-2.4261,-2.4369,-2.4508,-2.4636,-2.4925,-2.5287,-2.573,-2.6019,-2.6298,-2.6573,-2.6691,-2.6892,-2.7169,-2.7386,-2.7713,-2.8192,-2.8543,-2.8791,-2.9021,-2.9262,-2.9431,-2.957,-2.9754,-2.9924,-3.0109,-3.026,-3.0402,-3.052,-3.0585,-3.0653,-3.0688,-3.0695,-3.0695,-3.0715,-3.0707,-3.0673,-3.061,-3.0604,-3.0558,-3.0675,-3.21,-3.3241,-3.3833,-3.4839,-3.5412,-3.5398,-3.5354,-3.5293,-3.5226,-3.5212,-3.5162,-3.5147,-3.5056,-3.4982,-3.4945,-3.4908,-3.4888,-3.4829,-3.4747,-3.4685,-3.4602,-3.4473,-3.4386,-3.4404,-3.4221,-3.4062,-3.3993,-3.391,-3.396,-3.4127,-3.4614,-3.4917,-3.4935,-3.6098,-3.6905,-3.7344,-3.7735,-3.8285,-3.8442,-3.851,-3.851,-3.8446,-3.8285,-3.8018,-3.8036,-3.807,-3.8088,-3.8036,-3.807,-3.805,-3.8135,-3.8216,-3.8281,-3.8323,-3.8401,-3.818,-3.7864,-3.7738,-3.7812,-3.8118,-3.8219,-3.8126,-2.3581,-2.3982,-2.4024,-2.4135,-2.4302,-2.4302,-2.4302,-2.4302,-2.4302,-2.4343,-2.4343,-2.4302,-2.44,-2.4523,-2.471,-2.4972,-2.5242,-2.5313,-2.5586,-2.6015,-2.6286,-2.6607,-2.6957,-2.707,-2.7247,-2.7548,-2.7968,-2.8291,-2.8601,-2.8863,-2.9089,-2.9283,-2.9431,-2.957,-2.9699,-2.9839,-3.0015,-3.0169,-3.0328,-3.0471,-3.0595,-3.0661,-3.071,-3.071,-3.0704,-3.0704,-3.071,-3.0695,-3.0673,-3.0629,-3.0613,-3.0558,-3.0743,-3.2094,-3.3076,-3.3318,-3.4578,-3.5397,-3.5412,-3.5417,-3.5373,-3.5308,-3.5242,-3.5212,-3.5179,-3.5089,-3.5018,-3.5001,-3.4963,-3.4908,-3.4907,-3.4887,-3.4849,-3.4807,-3.4666,-3.4583,-3.4561,-3.4427,-3.4232,-3.4091,-3.4123,-3.4234,-3.4476,-3.4841,-3.5168,-3.5335,-3.5932,-3.6684,-3.7276,-3.7618,-3.8042,-3.8578,-3.8847,-3.8913,-3.8902,-3.8862,-3.8621,-3.8465,-3.8465,-3.8446,-3.8342,-3.8305,-3.8149,-3.8138,-3.7869,-3.7911,-3.8114,-3.8072,-3.7404,-3.7076,-3.7075,-3.7137,-3.7274,-3.743,-3.7422,-2.4078,-2.4441,-2.4492,-2.4614,-2.4766,-2.4751,-2.4751,-2.4751,-2.4766,-2.4766,-2.4806,-2.4766,-2.4831,-2.491,-2.5068,-2.5313,-2.5582,-2.5761,-2.6025,-2.6303,-2.6639,-2.6926,-2.7139,-2.7341,-2.763,-2.7996,-2.8309,-2.8601,-2.8868,-2.9097,-2.9291,-2.9433,-2.9608,-2.9754,-2.9839,-3.0,-3.0166,-3.0279,-3.0398,-3.0511,-3.0604,-3.0656,-3.0704,-3.0697,-3.0698,-3.0704,-3.0697,-3.0703,-3.0661,-3.061,-3.0621,-3.0595,-3.0801,-3.1834,-3.2681,-3.3191,-3.4653,-3.5554,-3.5476,-3.5455,-3.5446,-3.5369,-3.532,-3.5273,-3.5261,-3.5193,-3.5124,-3.5127,-3.5035,-3.4981,-3.502,-3.5002,-3.4927,-3.4827,-3.4768,-3.4728,-3.4708,-3.4645,-3.4502,-3.4342,-3.436,-3.4473,-3.4604,-3.4903,-3.4899,-3.4955,-3.553,-3.6203,-3.6502,-3.743,-3.804,-3.8406,-3.8786,-3.9253,-3.9245,-3.9245,-3.9137,-3.8923,-3.8884,-3.8796,-3.8693,-3.8361,-3.8217,-3.7941,-3.7683,-3.7598,-3.7813,-3.7536,-3.6876,-3.6499,-3.6517,-3.6566,-3.6632,-3.6694,-3.6734,-2.4492,-2.4791,-2.495,-2.5029,-2.5162,-2.5201,-2.5224,-2.524,-2.524,-2.524,-2.5201,-2.524,-2.5278,-2.5301,-2.547,-2.5637,-2.5859,-2.6201,-2.6455,-2.6684,-2.6888,-2.7154,-2.7397,-2.7689,-2.7989,-2.8255,-2.8525,-2.8815,-2.9071,-2.927,-2.9454,-2.9589,-2.9735,-2.9872,-2.9988,-3.0138,-3.0279,-3.0364,-3.0481,-3.0568,-3.0629,-3.069,-3.0698,-3.0704,-3.0716,-3.0736,-3.0711,-3.0704,-3.0683,-3.0645,-3.0621,-3.0615,-3.0694,-3.167,-3.2538,-3.3291,-3.4554,-3.5584,-3.5528,-3.5541,-3.5515,-3.5435,-3.5393,-3.5369,-3.5339,-3.5254,-3.5187,-3.5176,-3.5124,-3.507,-3.5073,-3.5075,-3.4983,-3.4927,-3.4849,-3.4829,-3.4788,-3.4768,-3.4689,-3.4572,-3.4553,-3.4647,-3.4762,-3.4741,-3.4685,-3.4779,-3.512,-3.5666,-3.6023,-3.7099,-3.7717,-3.8371,-3.9129,-3.9449,-3.9556,-3.9599,-3.9623,-3.9477,-3.9324,-3.9192,-3.9073,-3.8468,-3.8085,-3.766,-3.7337,-3.7143,-3.7263,-3.6983,-3.6484,-3.6283,-3.5984,-3.5893,-3.5913,-3.6084,-3.616,-2.4815,-2.5146,-2.5278,-2.5355,-2.5454,-2.5567,-2.5621,-2.5642,-2.5642,-2.5621,-2.5637,-2.5621,-2.5642,-2.568,-2.5828,-2.6028,-2.6176,-2.6535,-2.6899,-2.7109,-2.7247,-2.7407,-2.7735,-2.8055,-2.8264,-2.844,-2.8712,-2.8975,-2.9243,-2.9433,-2.957,-2.9735,-2.9855,-2.9984,-3.0123,-3.0234,-3.0379,-3.0499,-3.0568,-3.0649,-3.07,-3.0717,-3.0697,-3.0698,-3.0767,-3.0773,-3.0716,-3.084,-3.0814,-3.07,-3.064,-3.0653,-3.0878,-3.1748,-3.2647,-3.3274,-3.4743,-3.5446,-3.5616,-3.5616,-3.5572,-3.5509,-3.5509,-3.5474,-3.5407,-3.5307,-3.5228,-3.5223,-3.5207,-3.5176,-3.5145,-3.511,-3.5073,-3.5094,-3.4984,-3.4907,-3.4848,-3.4829,-3.481,-3.4791,-3.4733,-3.4752,-3.4885,-3.4848,-3.4829,-3.4848,-3.4925,-3.5284,-3.5814,-3.6687,-3.7618,-3.8376,-3.9037,-3.9608,-3.97,-3.9851,-3.9873,-3.981,-3.9675,-3.9556,-3.9208,-3.8533,-3.7493,-3.7092,-3.6851,-3.671,-3.651,-3.6234,-3.5989,-3.5723,-3.5435,-3.5217,-3.531,-3.5596,-3.573,-2.524,-2.5486,-2.5675,-2.577,-2.5828,-2.5881,-2.5937,-2.6063,-2.6046,-2.6063,-2.6063,-2.6063,-2.6082,-2.6154,-2.6208,-2.6374,-2.6649,-2.6927,-2.7217,-2.7496,-2.7701,-2.7853,-2.8088,-2.8299,-2.8515,-2.8694,-2.8952,-2.9203,-2.9431,-2.9608,-2.9789,-2.9924,-3.0049,-3.0166,-3.0273,-3.0371,-3.0469,-3.0569,-3.0629,-3.0676,-3.069,-3.0755,-3.0753,-3.0697,-3.0773,-3.0778,-3.0781,-3.1339,-3.1333,-3.0746,-3.0637,-3.0912,-3.1543,-3.2492,-3.3355,-3.4071,-3.5001,-3.5688,-3.5676,-3.5676,-3.5646,-3.5574,-3.5589,-3.5553,-3.5477,-3.543,-3.5374,-3.535,-3.53,-3.5254,-3.5226,-3.5193,-3.5143,-3.511,-3.5057,-3.5039,-3.502,-3.502,-3.4982,-3.4888,-3.4869,-3.4907,-3.4983,-3.5021,-3.5002,-3.5002,-3.5039,-3.5096,-3.559,-3.6216,-3.7129,-3.7852,-3.8556,-3.9337,-3.9833,-4.0024,-4.01,-4.01,-4.0021,-3.992,-3.9299,-3.8496,-3.716,-3.5989,-3.6007,-3.5894,-3.574,-3.5522,-3.5291,-3.5291,-3.5283,-3.5273,-3.527,-3.5442,-3.548,-2.5567,-2.5787,-2.599,-2.6134,-2.6189,-2.6241,-2.6295,-2.64,-2.6417,-2.64,-2.6435,-2.6418,-2.6453,-2.6521,-2.6641,-2.6809,-2.7029,-2.733,-2.7596,-2.7868,-2.8146,-2.829,-2.8345,-2.8515,-2.8718,-2.8887,-2.9138,-2.9351,-2.9551,-2.9754,-2.9943,-3.0064,-3.018,-3.0286,-3.0383,-3.049,-3.0559,-3.0585,-3.0649,-3.0704,-3.0698,-3.0767,-3.0798,-3.0759,-3.0803,-3.0906,-3.129,-3.1782,-3.176,-3.128,-3.096,-3.1165,-3.2415,-3.3658,-3.4387,-3.462,-3.5271,-3.5727,-3.5737,-3.5737,-3.5728,-3.5679,-3.5669,-3.5629,-3.5596,-3.5558,-3.5502,-3.5424,-3.5435,-3.5393,-3.5354,-3.5289,-3.5242,-3.5209,-3.5176,-3.5179,-3.511,-3.5092,-3.5073,-3.5016,-3.4997,-3.5016,-3.5131,-3.5131,-3.5131,-3.5111,-3.5091,-3.5127,-3.5297,-3.5942,-3.6568,-3.7311,-3.815,-3.8972,-3.9544,-3.9774,-3.9925,-3.9964,-4.0039,-4.0005,-3.9242,-3.8365,-3.7243,-3.6058,-3.556,-3.5196,-3.5261,-3.5289,-3.5308,-3.5324,-3.5335,-3.5364,-3.5364,-3.536,-3.536,-2.5848,-2.603,-2.626,-2.64,-2.6469,-2.6589,-2.6657,-2.6725,-2.6758,-2.6758,-2.6791,-2.6825,-2.6891,-2.6906,-2.7132,-2.731,-2.7407,-2.7736,-2.801,-2.8255,-2.8504,-2.8621,-2.8587,-2.873,-2.8911,-2.9056,-2.923,-2.9455,-2.9663,-2.9855,-3.0034,-3.0199,-3.0279,-3.0394,-3.0481,-3.0558,-3.0602,-3.0622,-3.0685,-3.0866,-3.0917,-3.0915,-3.0886,-3.1106,-3.1096,-3.151,-3.206,-3.2415,-3.2435,-3.2318,-3.1495,-3.2059,-3.342,-3.4994,-3.5376,-3.4987,-3.5407,-3.5815,-3.5807,-3.5815,-3.5815,-3.5807,-3.5752,-3.5726,-3.5708,-3.565,-3.5599,-3.555,-3.5577,-3.5515,-3.5435,-3.5345,-3.5315,-3.53,-3.53,-3.5239,-3.5143,-3.5127,-3.5127,-3.5091,-3.5108,-3.5166,-3.5204,-3.5223,-3.5204,-3.5196,-3.5193,-3.5209,-3.5283,-3.5682,-3.623,-3.6776,-3.7693,-3.8668,-3.9128,-3.9493,-3.9624,-3.9701,-3.9829,-3.9717,-3.898,-3.8163,-3.7379,-3.6553,-3.5722,-3.5354,-3.5364,-3.5379,-3.5379,-3.5374,-3.5416,-3.5468,-3.5488,-3.5449,-3.5443,-2.6046,-2.626,-2.6468,-2.6657,-2.6876,-2.6909,-2.699,-2.712,-2.712,-2.727,-2.7247,-2.7279,-2.7355,-2.7504,-2.7582,-2.773,-2.7996,-2.8146,-2.8371,-2.867,-2.8768,-2.8925,-2.897,-2.9052,-2.9116,-2.9235,-2.9455,-2.9644,-2.9839,-3.0034,-3.0194,-3.0343,-3.0425,-3.051,-3.0586,-3.061,-3.063,-3.0685,-3.0755,-3.1182,-3.1504,-3.1222,-3.1252,-3.1748,-3.1835,-3.2276,-3.3076,-3.3774,-3.4111,-3.3999,-3.3735,-3.3657,-3.4369,-3.5299,-3.5702,-3.5657,-3.569,-3.5885,-3.5885,-3.5885,-3.5866,-3.5885,-3.5853,-3.582,-3.5779,-3.576,-3.5717,-3.5679,-3.5658,-3.5604,-3.5502,-3.5424,-3.5402,-3.5393,-3.5398,-3.535,-3.527,-3.5254,-3.5219,-3.52,-3.5219,-3.5254,-3.5293,-3.5315,-3.5296,-3.5273,-3.527,-3.5285,-3.5415,-3.5565,-3.5921,-3.6407,-3.7021,-3.7901,-3.83,-3.8723,-3.9008,-3.8911,-3.8999,-3.9105,-3.8373,-3.8012,-3.7281,-3.6474,-3.5674,-3.5495,-3.5476,-3.5509,-3.5522,-3.5515,-3.5496,-3.5528,-3.5528,-3.5509,-3.5509,-2.6295,-2.6504,-2.6759,-2.6925,-2.7156,-2.7594,-2.7846,-2.8042,-2.8418,-2.8411,-2.8194,-2.8172,-2.8112,-2.795,-2.8007,-2.8174,-2.837,-2.8569,-2.8748,-2.8937,-2.9028,-2.9154,-2.9289,-2.9323,-2.9364,-2.9456,-2.9644,-2.9855,-3.0049,-3.0213,-3.0343,-3.0447,-3.053,-3.0585,-3.0661,-3.0697,-3.0724,-3.0878,-3.1212,-3.1675,-3.1914,-3.2114,-3.2162,-3.2619,-3.2748,-3.311,-3.3961,-3.4398,-3.4886,-3.5137,-3.5112,-3.509,-3.5266,-3.5685,-3.5903,-3.5929,-3.5948,-3.5948,-3.5948,-3.5948,-3.5948,-3.5948,-3.5938,-3.5899,-3.5869,-3.5846,-3.5813,-3.5768,-3.5743,-3.5708,-3.5618,-3.5538,-3.5496,-3.5502,-3.5495,-3.5463,-3.5402,-3.5345,-3.5315,-3.5296,-3.532,-3.5339,-3.5373,-3.5388,-3.5354,-3.53,-3.5383,-3.5398,-3.5427,-3.5556,-3.5674,-3.6067,-3.651,-3.7043,-3.7429,-3.7847,-3.8304,-3.8034,-3.7668,-3.7746,-3.7475,-3.7328,-3.7193,-3.644,-3.5753,-3.556,-3.5553,-3.5596,-3.5628,-3.5589,-3.5581,-3.5581,-3.5601,-3.5601,-3.5601,-2.6556,-2.6758,-2.7021,-2.725,-2.7584,-2.8363,-2.8819,-2.9158,-2.9849,-2.973,-2.9384,-2.9337,-2.9119,-2.8667,-2.8666,-2.8706,-2.8743,-2.891,-2.9076,-2.9131,-2.9259,-2.936,-2.9455,-2.9548,-2.9666,-2.9697,-2.9872,-3.0049,-3.0226,-3.0355,-3.0439,-3.0521,-3.0571,-3.0644,-3.0717,-3.0767,-3.0789,-3.0877,-3.1568,-3.2162,-3.2424,-3.2931,-3.3267,-3.3583,-3.3617,-3.4027,-3.4704,-3.5019,-3.5254,-3.5937,-3.6015,-3.6015,-3.6016,-3.6011,-3.6016,-3.5981,-3.5985,-3.5985,-3.5981,-3.6001,-3.5997,-3.6013,-3.5994,-3.5978,-3.5939,-3.5908,-3.588,-3.5833,-3.5801,-3.5764,-3.5717,-3.5669,-3.5615,-3.5623,-3.562,-3.5584,-3.5496,-3.5397,-3.5407,-3.5388,-3.5403,-3.5417,-3.5417,-3.5412,-3.5379,-3.536,-3.5474,-3.552,-3.5547,-3.556,-3.5663,-3.5695,-3.6112,-3.6303,-3.6644,-3.6829,-3.7293,-3.7255,-3.6663,-3.6687,-3.669,-3.6643,-3.6574,-3.647,-3.6014,-3.5786,-3.5635,-3.5676,-3.5667,-3.5648,-3.5639,-3.5649,-3.5669,-3.5697,-3.5697,-2.6775,-2.6975,-2.7247,-2.7844,-2.8583,-2.8928,-2.949,-3.0112,-3.0511,-3.0575,-3.0543,-3.0612,-3.0288,-2.9839,-2.9776,-2.9551,-2.9195,-2.9218,-2.9296,-2.9348,-2.9428,-2.9518,-2.9645,-2.9915,-3.0018,-3.0071,-3.0252,-3.0431,-3.0355,-3.046,-3.052,-3.0599,-3.0639,-3.0716,-3.0764,-3.0789,-3.0798,-3.0958,-3.1746,-3.2491,-3.3002,-3.3489,-3.3945,-3.4417,-3.4488,-3.4899,-3.5506,-3.574,-3.5858,-3.5982,-3.5999,-3.6021,-3.6005,-3.6013,-3.6016,-3.6015,-3.6013,-3.6012,-3.601,-3.6009,-3.6009,-3.6007,-3.6005,-3.6005,-3.5984,-3.5977,-3.5939,-3.5899,-3.5839,-3.5781,-3.5787,-3.5763,-3.5737,-3.5708,-3.5688,-3.5646,-3.5581,-3.5546,-3.5515,-3.5501,-3.5474,-3.5474,-3.5468,-3.5482,-3.5476,-3.5489,-3.5547,-3.5591,-3.5591,-3.5604,-3.5623,-3.5647,-3.5678,-3.5762,-3.5892,-3.5989,-3.6202,-3.6357,-3.6105,-3.6105,-3.6086,-3.5989,-3.5902,-3.5989,-3.5979,-3.5786,-3.5718,-3.5747,-3.5756,-3.5726,-3.5715,-3.5715,-3.5754,-3.5812,-3.5793,-2.6957,-2.7135,-2.7448,-2.7852,-2.8458,-2.9461,-3.0143,-3.0718,-3.1618,-3.1924,-3.1746,-3.1737,-3.1448,-3.0876,-3.0415,-2.9958,-2.9493,-2.9429,-2.9485,-2.952,-2.9615,-2.9718,-2.9975,-3.0386,-3.0726,-3.106,-3.1379,-3.1118,-3.0518,-3.051,-3.0607,-3.0639,-3.0709,-3.0774,-3.0789,-3.0782,-3.0794,-3.1051,-3.203,-3.295,-3.3539,-3.4147,-3.4976,-3.5222,-3.5366,-3.5605,-3.5867,-3.6016,-3.6001,-3.6013,-3.6007,-3.6007,-3.6013,-3.6018,-3.6007,-3.6009,-3.601,-3.601,-3.6013,-3.6014,-3.6015,-3.6016,-3.6015,-3.6014,-3.6013,-3.6009,-3.5979,-3.5946,-3.5884,-3.585,-3.5844,-3.5846,-3.5818,-3.5768,-3.5763,-3.5718,-3.5679,-3.5658,-3.5623,-3.5565,-3.554,-3.554,-3.556,-3.5565,-3.5577,-3.562,-3.5631,-3.5643,-3.5654,-3.5654,-3.5654,-3.5657,-3.5658,-3.5708,-3.5756,-3.5745,-3.5754,-3.5754,-3.5754,-3.5754,-3.5773,-3.581,-3.5799,-3.5838,-3.576,-3.5771,-3.576,-3.5776,-3.5791,-3.5813,-3.5813,-3.584,-3.5878,-3.5898,-3.5898,-2.712,-2.7276,-2.7612,-2.7906,-2.8375,-2.9744,-3.0715,-3.1343,-3.2581,-3.2976,-3.2783,-3.2856,-3.2576,-3.1821,-3.1002,-3.0269,-2.9715,-2.9757,-2.9739,-3.002,-3.0133,-3.0225,-3.0719,-3.118,-3.1765,-3.1995,-3.2473,-3.229,-3.1157,-3.0944,-3.0866,-3.0748,-3.0779,-3.0798,-3.079,-3.0801,-3.0785,-3.1311,-3.2469,-3.3409,-3.4212,-3.5215,-3.6009,-3.6015,-3.6015,-3.5972,-3.601,-3.602,-3.602,-3.602,-3.602,-3.602,-3.6007,-3.6007,-3.601,-3.601,-3.601,-3.601,-3.6016,-3.6003,-3.6009,-3.601,-3.6012,-3.6015,-3.6016,-3.6015,-3.601,-3.5982,-3.5949,-3.5919,-3.5912,-3.5909,-3.5869,-3.5833,-3.5827,-3.5811,-3.5771,-3.5726,-3.5688,-3.564,-3.5588,-3.5596,-3.5626,-3.5646,-3.5637,-3.5669,-3.5708,-3.5708,-3.5708,-3.5718,-3.5728,-3.5727,-3.5726,-3.5754,-3.5799,-3.5823,-3.583,-3.5818,-3.5818,-3.5818,-3.5818,-3.5826,-3.5813,-3.582,-3.584,-3.5859,-3.5833,-3.582,-3.5846,-3.5878,-3.5908,-3.5933,-3.5942,-3.5967,-3.5947,-2.7293,-2.7478,-2.7824,-2.8472,-2.9239,-2.9728,-3.0794,-3.2074,-3.2517,-3.3206,-3.3622,-3.3937,-3.3589,-3.2798,-3.1555,-3.0959,-3.0641,-3.0339,-3.0393,-3.0882,-3.0995,-3.1358,-3.2135,-3.2559,-3.2532,-3.2677,-3.3031,-3.2632,-3.1814,-3.1676,-3.1362,-3.0921,-3.079,-3.0788,-3.0807,-3.0813,-3.0799,-3.1111,-3.2519,-3.4083,-3.5296,-3.5797,-3.5976,-3.6015,-3.6012,-3.6003,-3.6001,-3.5986,-3.5981,-3.6009,-3.599,-3.6005,-3.6009,-3.6017,-3.602,-3.6004,-3.6007,-3.601,-3.6013,-3.6016,-3.6018,-3.6018,-3.6018,-3.6003,-3.601,-3.6015,-3.6016,-3.6015,-3.5992,-3.5987,-3.5964,-3.5946,-3.5912,-3.5899,-3.588,-3.5878,-3.5853,-3.5806,-3.5772,-3.5741,-3.5697,-3.5698,-3.5698,-3.5708,-3.5708,-3.5736,-3.5763,-3.5782,-3.5791,-3.5799,-3.5807,-3.5795,-3.5791,-3.5826,-3.5845,-3.5885,-3.5898,-3.5891,-3.5891,-3.5891,-3.5891,-3.5891,-3.5883,-3.5889,-3.5928,-3.5938,-3.5895,-3.5899,-3.5909,-3.5934,-3.5962,-3.5981,-3.6012,-3.5997,-3.599,-2.7478,-2.7659,-2.794,-2.8378,-2.8937,-2.9564,-3.0352,-3.1212,-3.1875,-3.2667,-3.3441,-3.3736,-3.3639,-3.3158,-3.2618,-3.2204,-3.1807,-3.1366,-3.1531,-3.1642,-3.1623,-3.1699,-3.2075,-3.2632,-3.2908,-3.28,-3.3269,-3.3199,-3.248,-3.1954,-3.1631,-3.0907,-3.0801,-3.081,-3.0855,-3.0858,-3.0838,-3.1333,-3.2512,-3.3961,-3.5056,-3.5722,-3.6014,-3.6005,-3.6016,-3.6004,-3.599,-3.5958,-3.5958,-3.5981,-3.5962,-3.5958,-3.6001,-3.6009,-3.6009,-3.6009,-3.6013,-3.602,-3.601,-3.601,-3.601,-3.601,-3.601,-3.6016,-3.6003,-3.6007,-3.6011,-3.6014,-3.6015,-3.6015,-3.6015,-3.5972,-3.5966,-3.5938,-3.5942,-3.5927,-3.5914,-3.5899,-3.5864,-3.584,-3.5833,-3.5806,-3.5806,-3.5826,-3.5818,-3.5826,-3.584,-3.584,-3.5846,-3.5853,-3.5853,-3.5879,-3.5866,-3.5872,-3.5897,-3.5922,-3.5958,-3.5948,-3.5948,-3.5948,-3.5948,-3.5953,-3.5942,-3.5947,-3.5966,-3.5978,-3.5955,-3.5968,-3.5974,-3.5981,-3.6007,-3.6007,-3.601,-3.6003,-3.6009,-2.7647,-2.7836,-2.8025,-2.8264,-2.8521,-2.9323,-2.9954,-3.0466,-3.1135,-3.1994,-3.2745,-3.3081,-3.3183,-3.3129,-3.292,-3.237,-3.2064,-3.2048,-3.2175,-3.2041,-3.1905,-3.18,-3.2261,-3.2803,-3.2839,-3.2234,-3.3427,-3.327,-3.2503,-3.2012,-3.1644,-3.0849,-3.0816,-3.0838,-3.0882,-3.0923,-3.0964,-3.1438,-3.2675,-3.3828,-3.4743,-3.5583,-3.5903,-3.6004,-3.599,-3.5966,-3.5981,-3.5924,-3.5924,-3.5943,-3.5919,-3.5933,-3.5977,-3.5987,-3.5968,-3.5973,-3.5977,-3.5966,-3.5978,-3.5985,-3.6007,-3.601,-3.601,-3.6013,-3.6013,-3.6013,-3.6016,-3.6007,-3.6007,-3.6009,-3.601,-3.5994,-3.5996,-3.5995,-3.6009,-3.5982,-3.5952,-3.5929,-3.5926,-3.5916,-3.5903,-3.5914,-3.5929,-3.5948,-3.5943,-3.5919,-3.5919,-3.5919,-3.5924,-3.5924,-3.5919,-3.5938,-3.5943,-3.5929,-3.5948,-3.5977,-3.6009,-3.6004,-3.6004,-3.6007,-3.5994,-3.5994,-3.5996,-3.5996,-3.6018,-3.601,-3.5976,-3.6009,-3.6013,-3.6003,-3.601,-3.601,-3.6012,-3.6016,-3.6013,-2.7795,-2.8081,-2.8146,-2.8388,-2.8669,-2.887,-2.9582,-3.0445,-3.066,-3.1327,-3.2161,-3.243,-3.2617,-3.2498,-3.2155,-3.1806,-3.1527,-3.0715,-3.1245,-3.1666,-3.1699,-3.2083,-3.2532,-3.2839,-3.3011,-3.2912,-3.3287,-3.2854,-3.2237,-3.189,-3.1474,-3.0938,-3.087,-3.0873,-3.0895,-3.0936,-3.119,-3.1699,-3.2714,-3.3643,-3.4544,-3.5357,-3.5896,-3.5981,-3.5934,-3.5909,-3.5909,-3.5908,-3.5891,-3.5917,-3.5885,-3.5872,-3.5918,-3.5905,-3.5911,-3.5891,-3.5908,-3.5904,-3.5914,-3.597,-3.6004,-3.6007,-3.601,-3.601,-3.601,-3.601,-3.6013,-3.6016,-3.6018,-3.6016,-3.6016,-3.6016,-3.6009,-3.6012,-3.6015,-3.5996,-3.5995,-3.5995,-3.5974,-3.5972,-3.597,-3.5966,-3.5982,-3.5982,-3.5988,-3.5962,-3.5955,-3.5974,-3.5978,-3.5978,-3.5994,-3.599,-3.599,-3.599,-3.5994,-3.6004,-3.6003,-3.6012,-3.6014,-3.6015,-3.6015,-3.6015,-3.6015,-3.6015,-3.6015,-3.6011,-3.6005,-3.5993,-3.5996,-3.5996,-3.6015,-3.5995,-3.5992,-3.5984,-3.5991,-2.7795,-2.8126,-2.83,-2.8518,-2.8804,-2.898,-2.941,-2.988,-3.0056,-3.0641,-3.1581,-3.2198,-3.2552,-3.2414,-3.2384,-3.2165,-3.2168,-3.2026,-3.2065,-3.2109,-3.2184,-3.2094,-3.2369,-3.2343,-3.2216,-3.2036,-3.2211,-3.2133,-3.1343,-3.1435,-3.1246,-3.0937,-3.0879,-3.0898,-3.0917,-3.0896,-3.1089,-3.1418,-3.2194,-3.3035,-3.3891,-3.4705,-3.5383,-3.5908,-3.5928,-3.5897,-3.5891,-3.5898,-3.5866,-3.5852,-3.5845,-3.583,-3.5823,-3.583,-3.5811,-3.5799,-3.5807,-3.584,-3.5858,-3.5929,-3.6013,-3.6004,-3.6004,-3.6007,-3.601,-3.601,-3.601,-3.601,-3.601,-3.601,-3.601,-3.6013,-3.6018,-3.6021,-3.6003,-3.6005,-3.6009,-3.6011,-3.6012,-3.5995,-3.5994,-3.5994,-3.5995,-3.6015,-3.6012,-3.6005,-3.6001,-3.6021,-3.6003,-3.6007,-3.6005,-3.6005,-3.6005,-3.6007,-3.6007,-3.6014,-3.6015,-3.6013,-3.6009,-3.6007,-3.5986,-3.6016,-3.6016,-3.6016,-3.5999,-3.5968,-3.5958,-3.5958,-3.5965,-3.5996,-3.5996,-3.5988,-3.5978,-3.5947,-3.5934,-2.7824,-2.8144,-2.8432,-2.8669,-2.8881,-2.9115,-2.9351,-2.9569,-2.972,-3.0127,-3.0905,-3.1597,-3.1876,-3.1905,-3.1874,-3.1867,-3.1801,-3.1872,-3.2081,-3.1948,-3.1641,-3.1572,-3.1573,-3.1563,-3.1434,-3.1028,-3.125,-3.1311,-3.095,-3.0901,-3.0917,-3.0915,-3.0891,-3.0888,-3.0889,-3.0877,-3.0833,-3.1006,-3.1659,-3.2307,-3.3078,-3.4096,-3.4798,-3.5496,-3.5665,-3.5846,-3.5852,-3.5838,-3.5823,-3.5788,-3.5771,-3.5754,-3.5745,-3.5736,-3.5717,-3.5706,-3.5704,-3.5757,-3.5806,-3.5897,-3.5977,-3.597,-3.597,-3.5978,-3.5981,-3.6004,-3.602,-3.6004,-3.6004,-3.6004,-3.6004,-3.6004,-3.6004,-3.601,-3.601,-3.6013,-3.6016,-3.6021,-3.6018,-3.5999,-3.6018,-3.6021,-3.6003,-3.6009,-3.6013,-3.6015,-3.6015,-3.6015,-3.6015,-3.6015,-3.6014,-3.6014,-3.6014,-3.6014,-3.6013,-3.6011,-3.6009,-3.6003,-3.6013,-3.5965,-3.5978,-3.5981,-3.5977,-3.5966,-3.5942,-3.5924,-3.5899,-3.588,-3.5924,-3.5973,-3.5973,-3.5934,-3.5899,-3.5864,-3.5852,-2.79,-2.8233,-2.8554,-2.8815,-2.9026,-2.9228,-2.9434,-2.9701,-2.9825,-3.0016,-3.024,-3.0403,-3.0414,-3.0472,-3.0694,-3.0791,-3.0837,-3.0824,-3.0878,-3.0972,-3.106,-3.0863,-3.0903,-3.0934,-3.1003,-3.0858,-3.0955,-3.1013,-3.0879,-3.0859,-3.0896,-3.0889,-3.0838,-3.0858,-3.0871,-3.0833,-3.0798,-3.0927,-3.1655,-3.1953,-3.2497,-3.3587,-3.4198,-3.4899,-3.5313,-3.5551,-3.5768,-3.5791,-3.5756,-3.5708,-3.5689,-3.5649,-3.5599,-3.5599,-3.5588,-3.5579,-3.5659,-3.5708,-3.5727,-3.584,-3.5878,-3.5899,-3.5904,-3.5914,-3.5962,-3.5986,-3.6005,-3.5986,-3.5986,-3.5986,-3.6005,-3.6005,-3.5994,-3.5997,-3.5997,-3.602,-3.6004,-3.6007,-3.6004,-3.6004,-3.6007,-3.6013,-3.601,-3.6013,-3.6021,-3.6007,-3.601,-3.601,-3.601,-3.6007,-3.6021,-3.6021,-3.6021,-3.6018,-3.6018,-3.6016,-3.601,-3.602,-3.5994,-3.5942,-3.5914,-3.5904,-3.5914,-3.5908,-3.5897,-3.5885,-3.5833,-3.5801,-3.584,-3.5866,-3.5891,-3.5878,-3.5814,-3.5794,-3.5799,-2.7922,-2.8282,-2.8637,-2.8915,-2.9123,-2.9353,-2.957,-2.9773,-2.9959,-3.0045,-3.0118,-3.0199,-3.0253,-3.0286,-3.0359,-3.0428,-3.0472,-3.0598,-3.066,-3.0668,-3.0727,-3.0773,-3.0798,-3.0788,-3.0798,-3.0786,-3.0788,-3.0793,-3.0841,-3.0823,-3.0838,-3.0824,-3.0794,-3.0817,-3.084,-3.0806,-3.0793,-3.0828,-3.1149,-3.146,-3.1988,-3.2642,-3.3405,-3.4373,-3.4764,-3.5202,-3.5611,-3.5641,-3.5678,-3.5585,-3.5581,-3.5538,-3.5483,-3.547,-3.547,-3.5483,-3.5531,-3.5596,-3.5629,-3.5688,-3.5741,-3.5794,-3.5846,-3.5858,-3.5919,-3.5919,-3.5943,-3.5943,-3.5938,-3.5938,-3.5924,-3.5929,-3.5938,-3.5938,-3.5962,-3.599,-3.6013,-3.6013,-3.6013,-3.6013,-3.6013,-3.5994,-3.5994,-3.5994,-3.5981,-3.5988,-3.5974,-3.5999,-3.6018,-3.6013,-3.6004,-3.6004,-3.6004,-3.6017,-3.6013,-3.5994,-3.5951,-3.5938,-3.5909,-3.5885,-3.5869,-3.5846,-3.5827,-3.5826,-3.5838,-3.583,-3.5788,-3.5763,-3.5736,-3.5745,-3.5768,-3.5784,-3.5788,-3.5743,-3.5745,-2.7961,-2.8335,-2.87,-2.9016,-2.9258,-2.9474,-2.9701,-2.991,-3.0064,-3.0152,-3.0207,-3.0292,-3.0355,-3.0394,-3.049,-3.0559,-3.0577,-3.0679,-3.073,-3.0734,-3.0784,-3.0789,-3.0791,-3.08,-3.0794,-3.0784,-3.0786,-3.0801,-3.0767,-3.0763,-3.0754,-3.0765,-3.0755,-3.0745,-3.075,-3.0745,-3.0774,-3.0784,-3.0923,-3.1035,-3.1487,-3.1977,-3.2516,-3.3401,-3.41,-3.47,-3.5134,-3.5411,-3.557,-3.5457,-3.5418,-3.5391,-3.535,-3.5321,-3.5321,-3.5369,-3.5424,-3.5489,-3.5507,-3.5531,-3.559,-3.5669,-3.5741,-3.5779,-3.584,-3.5846,-3.5872,-3.5872,-3.5879,-3.5859,-3.584,-3.5858,-3.5864,-3.5889,-3.5919,-3.5963,-3.5973,-3.5973,-3.5973,-3.5973,-3.5992,-3.5992,-3.5953,-3.5973,-3.5958,-3.5962,-3.5947,-3.5974,-3.6001,-3.5994,-3.5986,-3.5962,-3.5981,-3.5953,-3.5953,-3.5953,-3.5904,-3.5875,-3.5839,-3.5807,-3.5813,-3.5803,-3.5771,-3.5754,-3.5736,-3.5718,-3.5718,-3.5707,-3.5657,-3.5637,-3.563,-3.5659,-3.5728,-3.5698,-3.5669,-2.8017,-2.837,-2.8797,-2.9111,-2.9344,-2.9608,-2.9859,-3.0102,-3.0171,-3.0259,-3.0305,-3.0386,-3.0436,-3.0519,-3.0577,-3.0632,-3.0696,-3.0761,-3.0789,-3.0794,-3.0793,-3.0792,-3.0801,-3.0794,-3.0781,-3.0794,-3.0773,-3.0725,-3.07,-3.0675,-3.0678,-3.0672,-3.0671,-3.0637,-3.0625,-3.0639,-3.0704,-3.0691,-3.0697,-3.0766,-3.1006,-3.1405,-3.1824,-3.2532,-3.3228,-3.3978,-3.4492,-3.4918,-3.5205,-3.5283,-3.5281,-3.5254,-3.5223,-3.519,-3.5245,-3.5293,-3.535,-3.5374,-3.5397,-3.5391,-3.5418,-3.5507,-3.5607,-3.5669,-3.5706,-3.5743,-3.5771,-3.5771,-3.5771,-3.5788,-3.5776,-3.5791,-3.5806,-3.584,-3.5898,-3.5911,-3.5897,-3.5903,-3.5903,-3.5917,-3.5955,-3.5936,-3.5878,-3.5878,-3.5891,-3.5897,-3.5903,-3.5908,-3.5919,-3.5934,-3.5924,-3.5899,-3.5894,-3.5903,-3.5903,-3.5878,-3.5859,-3.5794,-3.5748,-3.5733,-3.5724,-3.5718,-3.5689,-3.5639,-3.5618,-3.5596,-3.5601,-3.5596,-3.5572,-3.5565,-3.5526,-3.5562,-3.5604,-3.5623,-3.5581,-2.8138,-2.8551,-2.891,-2.9249,-2.9551,-2.9907,-3.0117,-3.019,-3.0234,-3.0304,-3.0364,-3.0441,-3.055,-3.066,-3.0664,-3.073,-3.0763,-3.0803,-3.0781,-3.0796,-3.0776,-3.0788,-3.0774,-3.0736,-3.0731,-3.0715,-3.0684,-3.063,-3.0603,-3.0583,-3.0552,-3.0567,-3.0558,-3.0501,-3.0482,-3.0491,-3.0546,-3.0582,-3.0565,-3.0576,-3.0549,-3.0849,-3.1226,-3.1813,-3.2204,-3.3005,-3.3846,-3.4208,-3.4542,-3.5035,-3.5098,-3.5122,-3.5126,-3.5108,-3.5162,-3.5157,-3.519,-3.5207,-3.5235,-3.5251,-3.5266,-3.5296,-3.5388,-3.5521,-3.5585,-3.562,-3.5639,-3.5639,-3.5639,-3.563,-3.565,-3.5689,-3.5717,-3.5735,-3.5779,-3.5795,-3.5803,-3.5811,-3.5811,-3.5838,-3.5877,-3.5838,-3.5791,-3.5791,-3.5803,-3.583,-3.583,-3.5818,-3.5833,-3.5833,-3.5846,-3.584,-3.5801,-3.5799,-3.5791,-3.5784,-3.576,-3.5743,-3.5668,-3.563,-3.562,-3.5604,-3.5562,-3.5538,-3.5514,-3.5483,-3.5463,-3.5468,-3.5482,-3.5441,-3.5402,-3.5457,-3.5489,-3.5509,-3.5509,-2.8255,-2.8682,-2.9115,-2.9472,-2.9841,-3.0157,-3.0292,-3.0311,-3.0352,-3.0428,-3.0451,-3.0528,-3.0626,-3.0683,-3.0728,-3.0769,-3.0788,-3.0798,-3.0793,-3.078,-3.0749,-3.0716,-3.0681,-3.0621,-3.0567,-3.0546,-3.0519,-3.0472,-3.0462,-3.0442,-3.0419,-3.0417,-3.0406,-3.0375,-3.0344,-3.0333,-3.0364,-3.0409,-3.0441,-3.0451,-3.0441,-3.0419,-3.0772,-3.109,-3.1284,-3.2152,-3.2905,-3.3165,-3.3792,-3.439,-3.4505,-3.4698,-3.4831,-3.4983,-3.4964,-3.4982,-3.5018,-3.5054,-3.5053,-3.507,-3.5089,-3.5126,-3.5143,-3.5235,-3.5336,-3.5399,-3.5445,-3.5477,-3.547,-3.5483,-3.5519,-3.5574,-3.5596,-3.5629,-3.5649,-3.5669,-3.5699,-3.5708,-3.5737,-3.5737,-3.5727,-3.5698,-3.5698,-3.5718,-3.5718,-3.5708,-3.5699,-3.5679,-3.5708,-3.5743,-3.576,-3.5749,-3.5724,-3.5708,-3.5698,-3.5679,-3.5659,-3.5609,-3.5549,-3.5516,-3.5502,-3.5483,-3.5424,-3.5397,-3.5402,-3.5379,-3.5364,-3.5364,-3.5364,-3.532,-3.5304,-3.534,-3.5364,-3.5397,-3.5397,-2.8394,-2.8892,-2.9334,-2.9805,-3.0199,-3.0355,-3.0447,-3.0511,-3.0511,-3.052,-3.0528,-3.0644,-3.0685,-3.072,-3.0755,-3.0781,-3.0785,-3.0771,-3.073,-3.0756,-3.0606,-3.0547,-3.0501,-3.0432,-3.0362,-3.0335,-3.0318,-3.0285,-3.026,-3.0254,-3.0228,-3.0266,-3.0188,-3.0142,-3.0128,-3.0133,-3.0152,-3.018,-3.0241,-3.0285,-3.0309,-3.0316,-3.0305,-3.0406,-3.0811,-3.1344,-3.1534,-3.202,-3.2708,-3.3204,-3.3582,-3.3865,-3.413,-3.4564,-3.4565,-3.4736,-3.4756,-3.4851,-3.487,-3.487,-3.4908,-3.4927,-3.4983,-3.4963,-3.5032,-3.5181,-3.5262,-3.5315,-3.533,-3.5307,-3.5316,-3.5378,-3.5438,-3.5464,-3.5489,-3.5526,-3.5538,-3.5558,-3.5608,-3.562,-3.5581,-3.5562,-3.5504,-3.5512,-3.555,-3.557,-3.5558,-3.5526,-3.5531,-3.5577,-3.5609,-3.563,-3.5609,-3.5577,-3.5543,-3.5538,-3.5534,-3.5489,-3.5425,-3.5386,-3.5355,-3.5315,-3.5304,-3.5289,-3.5273,-3.527,-3.5289,-3.5273,-3.5273,-3.5277,-3.5258,-3.5232,-3.5247,-3.5247,-3.5296,-2.8646,-2.9148,-2.9712,-3.0095,-3.029,-3.0482,-3.0577,-3.0662,-3.0716,-3.0691,-3.0676,-3.072,-3.0774,-3.0777,-3.0778,-3.0781,-3.0776,-3.0687,-3.0631,-3.0524,-3.043,-3.0322,-3.0279,-3.0136,-3.0127,-3.0146,-3.0114,-3.0041,-3.0011,-3.0,-2.9988,-2.9991,-2.994,-2.9888,-2.9888,-2.9891,-2.9891,-2.9891,-2.9921,-3.0007,-3.0066,-3.0114,-3.0142,-3.0072,-3.0278,-3.0572,-3.0806,-3.1148,-3.177,-3.2297,-3.2428,-3.2598,-3.271,-3.3368,-3.3688,-3.384,-3.429,-3.4478,-3.4628,-3.4628,-3.4668,-3.4668,-3.4689,-3.4689,-3.4753,-3.4963,-3.5088,-3.5126,-3.5162,-3.5105,-3.5119,-3.5187,-3.5254,-3.53,-3.5311,-3.536,-3.5374,-3.5427,-3.5465,-3.5446,-3.5441,-3.5383,-3.5325,-3.5325,-3.5369,-3.5369,-3.5355,-3.5355,-3.5326,-3.5336,-3.5359,-3.5386,-3.5438,-3.5432,-3.5397,-3.5355,-3.536,-3.533,-3.5296,-3.5235,-3.519,-3.5176,-3.5126,-3.5145,-3.5162,-3.5179,-3.516,-3.5162,-3.5162,-3.5179,-3.516,-3.5122,-3.5122,-3.5122,-3.519,-2.887,-2.9436,-3.0,-3.0309,-3.0433,-3.0586,-3.0658,-3.0701,-3.074,-3.0767,-3.0752,-3.0788,-3.0798,-3.0781,-3.0771,-3.0724,-3.0684,-3.0574,-3.0462,-3.0348,-3.017,-3.0047,-2.9942,-2.9801,-2.9739,-2.9718,-2.9701,-2.9681,-2.9662,-2.9662,-2.9645,-2.9626,-2.9589,-2.957,-2.957,-2.957,-2.957,-2.9589,-2.957,-2.9626,-2.975,-2.9803,-2.9836,-2.9751,-2.9793,-3.0002,-3.002,-3.028,-3.0671,-3.1285,-3.1675,-3.1899,-3.2064,-3.2384,-3.2776,-3.3127,-3.3556,-3.3967,-3.4209,-3.434,-3.4358,-3.434,-3.434,-3.4321,-3.4386,-3.4548,-3.473,-3.4788,-3.4849,-3.4831,-3.4889,-3.4963,-3.5018,-3.5089,-3.5088,-3.5122,-3.5155,-3.5171,-3.5245,-3.5318,-3.5261,-3.513,-3.5108,-3.5127,-3.5149,-3.5174,-3.5174,-3.5122,-3.5105,-3.5051,-3.5086,-3.5119,-3.513,-3.52,-3.5187,-3.5174,-3.5157,-3.516,-3.5126,-3.5072,-3.4982,-3.4983,-3.4965,-3.4983,-3.502,-3.5058,-3.5058,-3.502,-3.502,-3.5038,-3.502,-3.5001,-3.4982,-3.4982,-3.5019,-2.9142,-2.9746,-3.024,-3.0492,-3.0592,-3.0654,-3.0669,-3.0664,-3.0678,-3.0674,-3.0689,-3.0693,-3.0735,-3.0758,-3.0682,-3.0614,-3.0511,-3.0353,-3.0235,-3.0071,-2.9893,-2.9699,-2.9538,-2.9398,-2.9292,-2.9241,-2.9225,-2.923,-2.9235,-2.9212,-2.9193,-2.9212,-2.9212,-2.9212,-2.923,-2.923,-2.9249,-2.923,-2.923,-2.9191,-2.9275,-2.9395,-2.9475,-2.9494,-2.9434,-2.9351,-2.933,-2.94,-2.9709,-3.0095,-3.0738,-3.0845,-3.1057,-3.1241,-3.1826,-3.2269,-3.2969,-3.3386,-3.3736,-3.3902,-3.3928,-3.3928,-3.3947,-3.3972,-3.4023,-3.4161,-3.4344,-3.4456,-3.4487,-3.4542,-3.4609,-3.4691,-3.4752,-3.4811,-3.4831,-3.4851,-3.487,-3.4908,-3.5002,-3.5096,-3.5039,-3.4888,-3.4831,-3.485,-3.4907,-3.4927,-3.4927,-3.4889,-3.4831,-3.4753,-3.4753,-3.4754,-3.4774,-3.4832,-3.4908,-3.4927,-3.4927,-3.4908,-3.4889,-3.4831,-3.4792,-3.4751,-3.4751,-3.4791,-3.4831,-3.4869,-3.4888,-3.4868,-3.4869,-3.487,-3.485,-3.4831,-3.4793,-3.4793,-3.4812,-2.9553,-3.0269,-3.0477,-3.0587,-3.0601,-3.0603,-3.0582,-3.052,-3.0528,-3.0494,-3.0394,-3.0356,-3.0424,-3.0623,-3.05,-3.0381,-3.0247,-3.0079,-2.987,-2.9693,-2.9435,-2.925,-2.906,-2.8855,-2.8785,-2.8748,-2.8737,-2.8814,-2.8748,-2.8724,-2.8748,-2.8772,-2.8779,-2.8803,-2.8874,-2.885,-2.885,-2.885,-2.885,-2.8832,-2.8902,-2.9056,-2.9163,-2.9163,-2.9093,-2.9026,-2.8938,-2.8915,-2.8983,-2.9167,-2.9399,-2.9521,-2.974,-3.0163,-3.0836,-3.1583,-3.2274,-3.3021,-3.3367,-3.3504,-3.3504,-3.3532,-3.355,-3.3625,-3.3716,-3.3799,-3.3944,-3.4034,-3.409,-3.4141,-3.42,-3.4325,-3.4431,-3.4454,-3.4458,-3.4502,-3.4524,-3.4564,-3.462,-3.4717,-3.4755,-3.4545,-3.4355,-3.4433,-3.4545,-3.4561,-3.4542,-3.452,-3.4502,-3.4476,-3.4409,-3.4409,-3.4413,-3.452,-3.4645,-3.4668,-3.4668,-3.4647,-3.4628,-3.4607,-3.4564,-3.452,-3.452,-3.4607,-3.4628,-3.4687,-3.4687,-3.4708,-3.4649,-3.463,-3.4647,-3.4647,-3.4609,-3.4612,-3.463]}]]